GFSMW_sfc_thetae_000.txt.gz
Theta_e
302 306 307 307 309 309 309 309 311 312 319 321 321 320 324 323 322 322 322 321 320 319 318 320 320 318 318 319 318 316 315 315 312 310 314 314 314 314 315 316 314 314 313
303 305 306 305 306 306 308 308 309 310 314 319 321 323 322 323 324 325 325 324 324 323 321 320 321 320 319 319 319 316 316 316 314 314 313 310 314 315 315 316 315 315 315
303 304 304 304 304 304 304 306 308 311 312 318 321 321 322 321 321 322 323 325 326 326 325 325 323 322 320 320 320 319 316 317 320 316 315 309 308 305 307 310 314 315 315
302 303 304 304 304 304 304 306 307 307 309 311 312 312 313 313 316 317 319 319 321 323 325 326 325 325 324 321 322 323 321 321 317 320 318 319 318 311 311 313 307 309 312
302 303 303 305 304 304 304 305 306 307 306 306 306 306 306 309 311 311 310 311 314 317 318 321 323 324 325 325 325 324 324 324 322 321 320 318 317 317 313 310 314 316 312
301 302 303 305 304 304 304 305 305 305 306 305 304 304 303 303 305 304 306 307 309 312 311 311 314 321 323 324 326 327 326 326 325 324 323 321 317 316 315 313 314 314 318
301 302 301 303 303 303 303 305 305 304 304 304 304 304 303 303 303 303 303 304 305 306 307 306 307 307 309 312 319 323 324 325 324 323 322 324 323 323 320 318 316 316 318
301 301 301 302 302 303 303 303 303 303 304 304 304 304 304 304 304 304 303 304 304 305 305 306 306 307 307 307 308 309 313 317 320 320 321 321 321 322 322 319 317 314 315
300 301 301 302 302 302 301 301 302 302 303 303 304 304 304 304 303 303 304 304 304 306 306 306 305 306 306 306 306 306 306 307 309 310 313 315 317 318 319 319 319 315 309
300 301 301 302 301 300 300 301 302 302 302 303 302 303 303 303 302 302 301 302 302 303 303 303 304 304 305 305 305 305 306 306 306 308 308 309 311 313 316 317 318 317 314
299 300 301 300 300 300 301 301 301 300 300 301 301 300 301 301 300 299 299 299 300 300 300 301 302 302 303 303 302 303 303 303 304 306 306 307 309 310 312 314 314 313 313
299 299 299 299 300 299 299 299 298 297 297 298 298 297 299 297 296 296 296 297 297 297 298 299 299 299 299 300 301 301 301 302 300 301 303 305 307 307 309 310 309 310 311
298 296 297 298 298 298 297 296 295 294 295 296 295 295 295 293 292 292 293 294 294 295 295 296 295 295 296 299 298 300 299 299 300 301 302 304 304 303 304 306 306 307 309
297 295 296 297 297 296 295 293 292 292 293 293 292 292 290 290 290 291 291 291 292 292 292 292 292 293 296 295 298 299 297 299 299 302 303 301 299 299 301 302 303 305 306
295 295 296 295 294 293 291 290 290 290 291 290 290 289 289 289 289 288 288 289 289 290 290 289 290 291 293 293 297 295 294 296 299 297 296 297 298 301 303 299 297 301 301
294 298 297 294 292 290 289 289 288 288 289 287 287 287 286 286 286 286 286 287 287 287 287 287 288 290 289 295 298 296 293 297 294 291 292 295 296 300 298 298 300 300 299
296 296 293 292 291 288 288 287 287 287 285 286 284 284 284 284 284 284 284 284 284 285 285 285 286 285 287 295 296 297 292 290 291 290 289 291 295 294 291 294 297 296 299
295 293 291 290 289 287 286 286 285 284 283 283 282 283 283 282 283 283 282 282 283 283 283 284 284 285 285 292 294 295 287 286 287 288 288 291 291 291 292 292 291 293 295
293 291 290 289 287 286 284 283 281 280 281 281 281 282 282 282 282 281 281 282 282 282 282 283 283 283 283 291 293 291 286 286 287 287 288 291 290 293 294 291 290 292 294
292 290 291 288 286 283 281 280 279 279 279 280 281 282 282 281 280 281 281 282 282 282 282 282 282 285 283 288 290 289 286 285 285 286 288 292 291 293 293 290 290 290 293
291 290 287 285 283 280 279 279 278 278 279 280 281 281 281 280 281 281 281 281 281 281 281 281 281 282 283 285 289 290 286 285 286 286 287 287 291 291 292 293 292 292 294
288 287 283 283 283 282 279 278 277 279 279 280 280 280 280 281 282 280 280 281 280 279 279 280 280 283 284 287 288 290 290 290 286 286 286 286 290 292 293 293 294 294 293
286 285 284 283 282 280 279 277 278 279 279 279 279 279 280 280 280 280 279 279 279 279 279 279 280 281 283 284 288 289 290 290 287 286 288 288 290 290 289 290 291 291 287
284 284 282 281 279 279 279 278 278 279 278 278 278 279 278 280 280 280 280 279 278 279 279 280 280 281 282 283 284 285 285 287 286 287 284 287 287 287 286 287 287 286 286
284 282 281 279 278 278 278 278 279 278 277 277 278 278 279 279 279 279 279 279 280 281 281 281 281 281 281 283 287 286 284 286 285 284 283 282 281 281 282 283 284 285 285
282 279 278 277 277 277 277 278 278 278 277 278 278 278 279 279 279 278 278 283 284 285 285 285 284 283 286 287 286 287 288 287 285 281 280 279 278 279 280 281 282 284 285

GFSMW_sfc_thetae_003.txt.gz
Theta_e
302 304 304 304 305 306 307 307 309 310 316 319 318 318 320 321 321 321 321 320 319 318 316 318 318 318 317 318 318 315 314 314 312 313 314 316 316 315 315 316 316 315 314
301 303 304 303 303 303 304 305 307 309 313 318 319 321 320 321 322 323 324 324 323 322 320 319 320 320 318 317 317 316 315 315 317 314 313 311 313 313 315 315 315 315 316
301 301 302 302 302 302 302 304 305 306 309 314 319 319 319 318 316 317 318 318 319 322 322 322 322 322 319 319 320 318 316 316 318 317 314 310 308 309 310 310 314 314 314
300 302 302 302 302 302 303 304 305 305 306 306 307 308 308 308 310 311 310 310 311 313 313 315 317 319 322 320 321 322 322 319 317 319 318 317 317 312 312 315 311 312 313
301 301 302 303 302 303 302 303 304 305 304 304 303 303 302 303 304 304 304 305 306 308 306 306 306 308 311 315 319 321 322 323 321 321 321 320 317 316 313 310 314 318 316
300 301 302 302 302 301 302 303 304 303 303 304 303 302 301 301 303 302 303 303 304 305 305 305 304 304 304 305 307 309 312 316 319 320 319 317 315 315 314 313 314 314 317
299 300 300 301 301 300 301 303 302 302 302 303 302 302 301 301 301 300 301 301 302 302 303 302 303 303 303 304 304 305 305 307 308 309 311 314 314 315 314 313 311 311 315
298 299 300 300 299 299 300 300 301 301 301 301 301 300 300 301 300 300 300 299 300 300 300 302 302 302 303 304 304 304 303 304 304 304 306 307 309 311 312 311 310 306 308
298 299 299 299 298 298 299 300 300 300 300 300 300 299 298 298 298 297 297 298 297 300 299 299 299 300 301 302 302 301 301 302 302 303 303 304 305 307 309 310 311 308 303
298 299 299 298 298 299 299 299 298 297 297 297 297 298 296 296 296 295 294 295 295 296 296 296 297 298 299 298 298 299 301 300 301 301 300 300 303 305 307 307 308 308 306
298 298 297 297 298 298 297 296 295 295 294 295 295 294 294 293 292 291 291 292 292 293 293 293 294 294 294 294 297 297 298 299 297 297 298 299 302 303 303 303 304 303 304
297 297 297 297 297 296 294 293 293 292 293 293 292 292 290 289 289 289 289 289 289 290 290 290 290 290 291 293 293 293 296 294 294 297 297 298 302 300 300 299 299 301 302
296 295 297 297 295 294 292 291 290 290 291 291 290 288 287 287 286 287 287 287 287 287 288 288 288 288 289 291 291 291 293 291 291 294 295 299 296 296 294 295 298 297 296
296 295 296 295 293 292 290 289 288 288 288 288 287 285 285 285 285 285 285 285 286 285 286 286 286 287 288 289 288 290 290 290 292 295 298 293 292 293 293 295 292 291 292
293 295 295 294 291 289 288 287 287 287 287 286 285 284 284 284 283 283 284 284 284 284 285 285 285 286 286 287 288 289 289 290 288 288 289 289 291 293 295 294 292 290 291
292 296 295 292 290 287 286 287 286 285 284 284 283 283 283 282 282 282 283 283 283 283 283 283 283 284 285 290 291 291 289 288 285 284 285 288 289 290 295 295 295 294 291
294 295 292 290 288 286 286 284 284 283 282 282 282 282 282 282 282 282 281 281 281 281 281 282 282 282 283 289 291 291 289 285 284 285 286 286 288 290 290 292 294 293 294
295 292 290 288 286 285 284 284 284 282 281 280 280 281 281 281 281 281 280 280 281 280 281 281 282 281 283 288 290 290 286 285 285 285 285 285 286 288 289 288 288 288 289
292 290 289 287 284 283 284 283 280 279 279 279 279 280 280 280 280 279 279 280 280 280 280 281 281 280 281 287 288 288 285 284 285 286 286 287 286 290 291 287 286 286 287
290 288 287 286 285 283 280 279 279 278 278 279 279 280 280 280 279 279 279 280 280 280 280 280 281 283 281 286 288 288 285 284 284 286 286 289 288 290 290 286 286 286 288
289 287 287 284 281 282 280 279 279 277 278 279 279 279 279 279 278 279 279 279 279 279 279 279 280 280 282 283 288 288 285 285 285 285 284 285 289 290 289 290 287 287 289
287 286 283 282 282 282 281 279 276 278 278 278 278 278 278 279 280 278 279 279 278 278 278 278 279 281 282 286 286 288 288 288 285 283 284 285 288 287 288 287 288 288 289
284 283 282 282 282 281 280 276 277 278 278 277 277 277 278 278 278 278 278 278 278 277 277 278 278 280 282 282 286 287 288 288 285 285 287 286 286 286 284 285 286 287 284
282 282 282 281 280 279 277 276 277 277 277 276 276 277 276 279 279 278 278 278 277 277 277 278 279 280 280 281 282 284 284 286 285 287 282 283 284 284 282 281 282 282 283
283 282 280 278 277 277 276 277 277 277 276 276 276 276 277 277 277 278 278 278 279 280 280 280 280 279 279 281 285 285 283 283 286 284 279 278 279 277 277 278 280 280 281
282 279 277 277 276 276 276 277 277 277 276 276 277 276 277 277 278 277 277 282 283 284 285 284 283 282 284 285 286 286 286 287 286 280 277 276 277 276 276 277 278 279 280

GFSMW_sfc_thetae_006.txt.gz
Theta_e
300 303 303 302 303 303 303 304 308 310 316 317 317 317 317 319 320 321 322 321 319 318 316 315 316 316 315 317 317 315 312 315 314 313 313 315 316 315 316 315 315 315 315
300 301 302 301 301 301 303 304 305 306 311 317 318 319 319 319 320 318 316 316 318 318 319 318 318 318 317 317 316 316 317 318 318 313 314 311 313 314 316 316 315 315 316
300 300 300 300 300 301 301 303 303 304 306 308 313 312 313 311 309 309 307 308 309 308 307 308 309 312 315 316 317 318 318 316 319 319 314 311 310 315 316 313 313 314 315
299 301 301 301 301 301 302 302 303 304 304 304 304 304 303 302 303 304 303 304 305 305 304 304 304 304 306 305 308 309 313 315 313 317 320 319 316 311 309 317 315 312 313
299 300 301 301 301 301 301 301 303 303 303 303 302 302 301 301 301 301 301 301 302 303 303 303 302 302 303 302 303 303 304 306 308 308 311 311 312 312 310 306 309 314 318
299 299 300 300 299 300 300 301 302 301 302 302 301 300 299 298 299 299 298 299 300 301 301 301 301 301 301 301 302 302 302 303 304 305 304 304 303 304 305 304 304 306 310
298 298 299 298 298 299 299 301 301 300 300 300 299 298 298 297 296 296 296 296 296 297 297 298 298 299 299 300 301 301 301 301 301 301 301 303 303 305 305 303 302 304 306
297 298 298 297 297 298 298 299 299 298 298 298 297 296 296 296 295 295 295 294 295 295 295 296 296 297 297 298 298 298 299 299 299 299 300 301 301 302 302 302 302 298 300
297 298 297 296 297 297 297 297 297 296 296 296 295 294 293 292 292 292 291 292 292 293 293 292 292 293 293 293 294 295 295 296 298 298 297 297 298 300 302 304 304 299 294
297 297 296 296 297 297 296 295 295 294 294 293 293 292 290 290 289 289 288 288 289 289 289 289 289 289 289 290 290 294 292 293 297 294 293 296 297 298 301 301 300 299 297
297 296 296 296 296 295 293 292 292 292 291 291 290 288 288 287 287 286 286 286 286 287 287 287 287 287 287 288 288 290 289 291 291 290 290 293 295 297 296 297 295 293 295
297 296 295 296 295 293 291 290 290 290 290 290 288 286 286 285 284 284 285 285 284 285 285 285 286 285 286 286 287 286 287 289 287 288 290 292 296 291 293 293 290 292 296
295 294 295 295 293 291 290 288 288 287 288 287 285 284 283 282 282 282 283 284 284 284 284 284 284 284 285 285 285 285 286 287 287 289 288 286 288 287 287 287 288 293 292
295 295 295 293 292 290 288 287 286 286 286 284 283 282 282 282 281 282 282 283 283 282 282 283 283 283 284 284 285 286 286 287 289 287 285 285 285 286 286 286 287 291 289
293 296 295 292 289 287 286 286 285 284 284 282 282 282 282 282 281 281 282 282 282 282 282 282 282 283 283 284 285 286 286 286 286 285 285 286 288 290 289 288 287 288 287
293 295 294 291 288 285 285 285 284 282 282 281 281 282 281 281 281 281 281 281 281 281 281 281 281 281 283 287 289 288 286 285 284 284 284 285 287 288 291 291 291 290 287
292 294 291 289 286 285 285 283 281 281 281 281 280 281 281 280 280 280 280 280 279 279 280 280 280 280 281 287 289 289 285 284 284 284 284 284 286 287 286 289 290 290 291
293 292 289 287 285 284 283 282 281 282 280 279 279 280 280 279 280 279 278 278 279 279 279 279 280 280 281 286 288 288 285 284 284 284 284 284 286 286 287 286 285 286 285
292 290 288 286 284 282 281 281 281 278 278 278 278 279 279 278 278 278 277 278 278 279 279 279 279 279 279 285 287 287 284 283 283 284 285 287 285 288 289 286 284 283 285
290 288 286 284 282 280 279 278 278 277 277 278 278 278 279 278 277 277 277 278 278 278 279 279 279 281 279 284 287 286 283 282 283 284 286 287 286 289 289 284 283 281 281
287 286 285 282 280 279 281 278 277 276 277 278 278 278 278 277 277 277 277 278 278 278 277 278 278 279 280 282 287 287 284 283 283 284 282 283 288 288 287 286 282 281 284
286 284 281 280 280 282 278 277 277 277 277 277 277 277 277 278 279 277 277 277 277 276 277 277 277 279 281 284 285 287 287 287 284 282 282 284 287 285 285 284 285 285 285
284 283 281 279 278 278 278 275 276 276 277 276 276 276 276 277 277 277 277 277 277 276 276 276 277 279 281 281 285 286 287 287 284 283 285 284 284 283 282 283 283 283 279
282 281 280 279 280 279 277 276 276 276 276 275 275 276 275 277 277 276 278 277 276 276 276 277 278 279 279 280 281 282 283 285 283 286 283 282 282 282 281 280 279 278 278
282 281 281 280 278 276 276 276 277 276 275 275 275 275 276 275 276 277 277 277 278 279 279 279 279 278 278 280 284 284 282 283 284 283 280 278 277 276 276 277 277 277 277
282 280 279 277 276 275 275 276 276 276 275 275 276 276 277 276 277 276 276 281 282 283 284 284 282 281 283 285 285 285 285 285 284 279 277 276 275 275 275 275 275 276 277

GFSMW_sfc_thetae_009.txt.gz
Theta_e
304 305 306 306 308 308 309 310 314 318 323 324 324 325 323 321 318 317 316 316 317 318 318 318 317 318 319 319 319 320 319 320 322 316 316 319 322 323 324 324 323 322 322
303 304 305 305 305 306 307 308 309 311 318 324 324 324 319 314 313 312 311 311 309 309 308 308 309 309 310 310 311 312 312 314 317 315 315 312 315 320 321 322 322 323 323
302 303 304 304 305 305 306 307 308 308 309 312 314 313 313 311 310 308 307 307 308 306 306 306 306 306 307 306 307 308 307 305 308 311 310 307 305 308 314 318 320 322 322
303 303 304 304 305 304 306 307 307 307 308 309 308 307 306 304 305 305 305 305 305 305 303 304 304 304 304 304 305 305 305 305 303 306 308 308 308 302 302 307 312 313 316
303 302 303 303 304 305 305 306 306 305 305 305 305 304 302 303 303 302 301 302 302 303 301 301 301 301 302 302 303 303 303 304 303 303 303 304 305 306 304 300 303 308 309
302 302 302 303 303 304 305 305 304 302 303 303 302 301 300 299 298 298 297 297 298 299 298 298 298 298 298 299 300 301 302 302 302 303 303 302 301 300 300 300 300 301 305
301 301 301 302 302 303 303 303 303 300 300 300 299 299 298 297 295 295 294 293 293 295 294 295 294 295 295 295 296 296 299 299 299 300 301 302 299 299 298 299 299 300 302
301 301 301 301 301 301 301 301 300 299 299 297 296 295 295 294 293 293 292 291 291 292 293 293 293 292 292 292 293 293 297 295 296 299 298 297 295 297 298 298 298 295 296
300 300 300 301 301 300 299 299 298 297 297 295 293 292 291 291 290 290 290 290 290 290 290 291 290 291 290 290 291 291 293 293 293 295 294 294 294 298 299 300 300 295 292
299 299 299 300 299 298 297 297 296 295 294 292 291 289 289 289 289 289 288 288 288 289 289 289 289 289 289 289 289 290 291 290 290 292 291 292 294 296 298 296 296 297 292
299 299 298 299 297 296 295 294 294 293 292 290 288 288 287 287 287 287 287 287 287 287 287 287 287 287 287 287 287 288 288 288 289 290 291 292 292 290 291 294 293 291 290
299 298 298 297 295 293 293 292 291 291 290 288 287 286 286 286 286 286 286 286 286 286 286 286 286 286 286 286 286 286 287 287 287 289 290 289 288 288 288 289 289 289 290
298 297 297 296 294 292 291 290 289 289 288 286 286 285 285 285 285 285 285 285 285 285 285 285 284 284 285 285 285 286 287 287 288 288 288 287 287 287 287 288 288 289 289
297 296 296 295 293 291 290 289 287 288 286 285 285 284 284 284 284 285 284 284 284 284 284 284 284 284 284 284 285 286 287 287 287 287 287 287 286 286 288 288 289 289 289
295 296 295 293 291 289 288 288 286 285 285 284 284 284 284 284 284 284 284 284 284 283 283 283 283 284 284 284 286 287 287 286 286 287 287 287 288 289 289 288 288 288 287
295 297 295 292 290 288 288 287 285 284 284 283 283 283 283 283 283 283 283 283 283 283 282 282 282 282 283 286 288 288 287 286 286 285 286 287 288 288 290 290 290 289 287
295 297 295 292 289 288 287 285 283 283 283 282 282 282 282 282 282 282 282 282 281 282 282 282 282 281 282 286 287 288 286 286 285 285 285 286 287 288 288 289 290 290 289
294 295 292 289 288 287 285 283 283 283 282 281 281 282 281 281 281 281 281 281 281 281 281 281 281 281 282 285 287 287 286 285 285 285 285 285 286 288 287 287 287 286 286
295 293 291 288 286 285 284 283 282 280 280 281 280 281 281 280 280 280 280 281 281 281 281 281 281 280 281 285 286 286 285 284 284 285 285 286 286 287 288 287 284 283 284
291 289 287 285 284 282 282 281 280 280 279 280 280 280 280 280 279 280 280 281 281 280 281 280 280 281 280 284 286 286 284 283 284 285 286 287 286 288 289 284 282 281 281
288 287 286 284 282 281 282 281 279 279 279 280 280 280 280 279 280 280 280 280 280 280 279 279 280 280 281 283 286 286 284 283 284 284 284 284 287 288 286 285 282 282 283
287 285 283 281 281 283 281 279 278 279 279 279 279 279 279 279 280 280 280 280 279 278 278 278 279 281 282 284 285 286 286 286 283 283 283 285 288 286 284 283 284 284 283
286 284 282 280 280 280 280 278 279 279 279 278 278 278 279 279 279 279 279 279 279 278 278 278 278 280 282 282 285 285 286 286 283 284 285 285 284 284 282 282 283 282 279
284 283 281 280 280 281 280 278 278 278 278 277 277 278 278 280 279 279 279 278 278 278 278 278 279 280 281 281 282 283 284 285 284 285 282 282 282 282 281 280 280 279 279
284 282 281 280 280 279 278 278 278 278 277 277 277 278 278 277 278 278 278 279 280 280 280 280 280 279 279 281 284 284 282 283 283 282 280 279 279 278 278 278 278 278 278
282 280 280 280 278 277 277 278 278 278 277 277 278 277 278 278 278 277 278 281 282 283 283 283 282 282 283 284 284 284 285 285 283 279 277 276 277 276 276 276 276 277 277

GFSMW_sfc_thetae_012.txt.gz
Theta_e
310 312 313 315 316 318 320 324 327 329 330 330 329 327 321 319 317 316 315 314 313 313 313 313 312 313 312 312 312 312 311 311 313 310 311 313 317 320 319 325 324 322 324
309 310 311 312 313 314 315 318 322 327 329 330 326 321 317 315 314 314 312 312 311 310 310 310 310 310 310 309 309 309 308 308 309 306 306 304 308 312 312 313 312 315 316
308 309 310 311 313 312 313 314 316 317 318 318 317 317 316 315 312 311 310 309 309 307 307 307 307 307 307 306 306 306 305 303 305 307 304 300 300 304 307 308 309 311 312
309 309 310 311 311 312 314 314 314 314 315 316 314 313 311 308 308 308 308 307 306 304 302 303 303 303 303 302 302 302 303 302 300 302 303 304 303 299 298 304 306 308 307
309 308 309 310 311 312 312 312 311 311 311 311 311 309 307 307 306 305 304 303 303 302 299 299 299 299 299 300 300 299 299 301 299 299 300 301 302 302 299 296 298 302 303
308 308 309 310 310 311 311 310 308 307 308 307 307 306 304 303 302 301 300 299 299 299 297 297 297 297 297 297 297 297 298 299 298 298 299 299 297 296 295 293 295 296 298
307 307 307 308 309 309 309 308 306 304 305 304 303 302 301 300 298 297 296 295 295 295 295 295 295 295 295 295 295 295 296 298 296 297 298 298 295 295 293 293 294 294 297
308 308 308 308 308 307 307 306 305 303 302 301 299 299 298 297 296 295 294 294 293 293 294 293 293 293 293 294 294 294 294 295 295 294 294 296 294 294 294 294 295 293 294
307 307 308 308 307 306 305 304 303 301 300 298 297 295 295 294 293 293 293 292 292 292 292 293 292 293 292 292 292 292 292 292 293 292 294 293 293 295 295 295 294 292 288
307 307 307 307 306 304 304 303 302 299 297 296 295 294 293 292 292 292 291 291 291 291 291 291 291 291 291 291 291 291 291 291 291 292 291 292 292 294 293 291 291 291 290
306 306 306 306 304 303 302 300 299 297 295 294 293 292 292 291 291 290 290 290 290 290 290 290 289 289 289 290 289 289 289 289 290 291 290 290 292 291 290 290 290 289 289
307 306 306 304 302 301 300 298 298 296 294 292 292 291 290 290 290 290 290 290 289 289 289 289 288 288 288 288 288 288 288 288 288 289 289 289 289 289 289 289 288 289 290
305 305 304 302 301 299 298 297 296 294 292 291 290 290 289 289 289 289 289 289 288 288 288 288 287 287 287 287 287 287 288 288 289 289 288 288 288 287 288 288 288 289 289
304 304 303 302 301 299 297 295 294 293 290 289 289 289 288 288 288 288 288 288 288 287 287 287 287 287 287 287 287 287 288 288 288 288 288 288 287 287 287 287 288 288 288
303 303 303 302 300 297 296 294 292 291 289 288 288 288 288 288 288 288 287 287 287 287 287 286 286 287 286 286 286 287 287 287 287 288 288 288 288 288 289 288 288 288 287
302 303 303 302 299 296 294 293 290 289 288 287 286 287 286 287 287 287 286 287 287 287 286 286 286 286 285 287 287 288 287 287 287 286 286 287 287 288 290 290 290 289 287
302 302 302 301 298 295 295 293 290 288 287 286 286 285 286 286 286 286 286 286 286 286 286 285 285 284 285 286 287 288 286 286 286 286 285 286 286 288 287 289 289 289 290
302 303 302 299 296 295 293 290 288 287 286 285 285 285 285 285 285 285 285 285 285 285 285 285 284 284 284 286 286 287 286 286 286 286 286 285 286 287 287 287 287 287 286
301 302 301 297 294 292 291 289 287 285 285 285 284 284 284 284 284 284 284 285 285 284 284 284 284 283 283 285 286 286 285 285 285 285 286 286 286 287 288 287 285 284 285
298 297 295 293 293 290 289 287 285 283 284 284 284 284 284 284 284 284 284 284 284 284 284 283 283 284 283 285 286 286 284 283 284 285 286 287 286 287 288 285 284 282 282
295 293 293 292 291 288 287 284 282 283 284 284 284 284 284 284 284 284 284 284 283 283 283 282 283 283 284 284 286 286 284 284 284 285 285 285 287 287 286 286 283 282 283
292 292 291 289 288 287 285 282 283 284 284 284 283 283 284 283 283 284 284 283 283 282 281 281 282 283 284 285 285 286 286 286 284 283 285 285 286 284 284 284 284 284 283
291 291 290 287 286 285 284 283 284 283 283 283 283 283 283 283 284 283 282 282 282 281 280 281 281 282 283 284 285 286 286 286 284 285 286 285 284 283 283 283 283 282 281
291 290 288 287 285 284 284 284 283 283 282 282 282 283 283 283 283 283 282 281 281 280 280 280 281 281 282 282 284 284 285 285 285 285 284 283 282 282 282 281 281 281 280
290 289 288 287 286 284 283 283 283 282 282 282 282 282 282 282 282 282 281 281 282 282 281 281 281 281 280 282 284 284 283 284 284 283 281 280 279 279 279 279 279 280 279
290 288 287 286 283 282 282 282 282 282 281 281 282 282 282 282 281 280 281 283 283 284 283 283 283 282 284 284 285 284 284 285 284 280 278 277 278 277 278 277 278 278 278

GFSMW_sfc_thetae_015.txt.gz
Theta_e
313 315 316 318 319 323 326 328 328 330 331 331 329 324 319 318 316 315 314 313 313 313 312 312 311 311 311 310 309 309 308 309 310 307 308 308 310 310 312 310 310 311 313
311 313 314 315 316 318 322 325 327 330 329 325 323 320 317 315 314 314 312 311 309 308 308 308 308 307 307 307 306 306 304 305 305 302 301 299 302 307 305 306 308 308 310
310 311 312 313 315 315 317 318 318 319 319 320 319 317 317 316 312 310 309 308 307 304 304 304 303 303 304 303 303 302 302 300 302 303 298 296 294 298 303 303 305 305 304
311 311 312 312 313 314 316 316 316 316 317 318 316 314 311 307 308 308 307 307 305 302 300 300 300 300 300 300 300 299 300 300 298 300 299 300 299 295 294 300 300 301 300
310 310 311 312 313 314 314 313 313 312 313 313 312 310 308 307 307 306 304 303 302 301 298 298 298 298 298 298 297 298 297 299 298 296 297 297 298 298 293 290 293 296 297
310 311 311 312 312 313 312 312 310 309 309 309 308 307 306 305 303 302 300 300 299 299 297 297 297 296 296 296 296 297 297 297 297 296 296 295 294 293 291 289 290 291 295
309 309 309 310 310 310 310 308 307 305 306 305 305 304 303 302 299 299 297 296 296 295 295 295 294 294 295 295 295 295 295 295 295 295 294 294 294 295 292 291 290 290 294
309 309 310 310 310 309 308 307 305 303 303 302 301 301 300 299 297 296 296 295 294 294 294 294 293 293 293 293 294 294 294 294 294 294 294 293 294 293 293 291 291 288 289
309 309 310 310 309 308 308 306 304 302 301 300 299 298 297 296 295 295 294 294 293 292 292 293 292 292 292 292 292 291 292 292 292 292 292 292 292 293 293 293 293 288 283
309 309 309 309 309 307 306 306 304 301 300 299 298 296 295 294 294 294 292 292 292 292 291 291 291 291 291 291 291 291 291 290 291 291 291 291 291 291 292 292 291 290 286
308 308 309 309 307 306 305 303 301 299 298 297 296 295 294 293 293 292 291 291 291 291 290 290 290 290 289 290 289 289 289 289 289 290 290 290 290 290 290 290 289 288 288
309 308 308 307 305 304 303 302 301 299 297 296 295 293 293 293 292 291 290 290 290 290 290 289 289 289 289 289 288 287 288 287 287 288 289 288 289 289 289 288 287 287 287
308 308 307 305 304 303 302 300 299 297 296 294 293 293 292 291 290 290 290 290 289 289 289 289 288 288 288 288 287 287 286 287 288 288 288 288 288 287 287 287 286 287 287
307 307 306 305 304 303 301 299 298 296 294 293 292 291 290 290 289 289 289 289 288 288 288 288 288 288 288 287 287 286 286 287 287 288 288 288 287 286 286 286 286 287 286
306 306 306 305 304 302 300 298 297 294 293 291 290 289 289 289 289 288 288 288 288 288 288 288 288 288 287 287 287 286 286 286 286 287 287 288 289 289 288 287 286 286 285
306 306 306 306 303 301 299 297 294 292 291 290 288 288 288 288 288 288 287 287 288 288 288 287 287 287 286 289 289 287 286 286 285 285 286 287 288 288 289 289 290 288 285
306 306 306 306 304 301 298 295 293 291 290 288 287 287 287 287 287 287 287 287 287 287 287 287 286 286 286 288 288 288 285 285 285 285 285 285 286 287 287 288 289 289 289
305 305 306 305 303 300 297 295 291 290 288 287 286 286 286 286 286 286 286 286 286 286 286 286 286 285 285 287 287 287 285 285 285 285 285 285 285 286 286 286 285 286 286
305 306 306 303 299 297 294 291 289 288 287 286 286 286 285 285 285 285 285 286 286 285 285 285 285 284 284 287 287 286 285 284 284 285 285 285 285 287 288 285 283 282 282
303 303 301 298 296 294 292 290 288 286 285 285 285 285 285 285 284 285 285 286 285 285 285 284 284 285 283 286 287 286 284 283 283 284 285 287 286 288 288 284 281 279 280
298 297 296 295 293 292 291 289 286 285 285 285 285 285 285 285 285 285 285 285 284 284 283 283 284 284 284 285 287 287 284 284 283 283 283 284 287 287 286 286 281 281 283
294 295 294 292 291 290 289 286 284 285 285 285 285 285 285 285 285 285 285 285 284 283 282 282 282 284 284 286 286 287 287 286 283 282 283 284 287 285 285 283 284 284 283
293 294 292 290 289 288 287 285 285 285 284 284 284 284 284 285 285 284 284 283 283 281 281 281 281 282 283 284 286 286 286 286 283 283 285 286 284 284 282 283 283 283 279
293 293 291 289 287 286 285 285 285 284 284 283 283 284 284 284 284 284 284 282 281 281 280 280 280 281 281 282 283 283 284 285 284 285 284 283 282 282 281 280 280 279 279
293 292 291 290 287 286 285 284 284 284 283 283 283 283 284 283 283 283 283 282 282 282 281 281 281 280 279 281 284 284 282 282 284 283 280 279 278 277 277 277 278 278 278
292 291 290 289 286 285 284 284 284 283 282 282 282 283 282 283 282 282 281 285 285 285 285 284 283 282 284 285 285 284 284 285 284 280 277 276 276 276 276 276 276 277 277

GFSMW_sfc_thetae_018.txt.gz
Theta_e
309 310 311 313 316 320 321 322 323 324 325 325 321 315 311 309 308 308 307 306 305 306 304 304 303 303 302 301 300 299 298 298 299 297 297 298 300 298 299 300 301 303 303
306 308 309 309 313 317 319 321 322 320 319 318 315 313 310 308 308 307 305 303 301 301 300 299 299 298 298 298 297 296 296 296 297 294 293 291 294 296 298 299 300 300 300
305 306 306 308 309 310 311 313 314 314 314 313 313 311 311 308 305 304 302 301 299 298 297 296 296 296 296 295 294 294 293 293 294 295 292 289 288 291 295 296 297 295 296
306 306 307 307 307 308 310 311 312 312 313 312 310 307 303 301 302 301 300 299 298 295 295 295 294 293 294 292 292 294 292 292 291 293 295 292 291 288 288 293 293 294 293
305 305 306 308 309 308 307 306 307 307 307 306 305 303 301 300 300 299 297 296 296 294 294 293 292 292 292 291 291 291 291 292 291 291 290 290 290 290 288 285 287 290 291
305 306 307 308 307 307 306 304 303 303 303 302 301 300 298 297 296 294 293 293 293 293 292 293 291 291 291 290 290 290 290 290 289 290 289 289 286 286 286 286 286 286 289
305 305 305 305 305 304 303 303 302 300 300 299 298 297 296 294 292 292 291 290 290 290 289 290 289 289 289 290 289 289 288 288 288 288 288 289 288 289 289 287 285 285 287
304 304 304 304 304 304 302 301 299 298 297 296 295 294 294 293 291 290 290 289 288 288 288 288 288 288 288 288 288 288 288 287 287 286 287 288 288 289 288 287 286 283 284
304 304 305 305 304 302 301 299 298 297 296 294 293 291 291 290 289 289 289 288 288 289 288 287 287 287 287 287 287 286 286 286 285 286 286 286 288 288 288 288 287 285 281
304 304 305 304 303 302 301 299 297 295 294 293 291 290 289 289 289 288 287 287 287 287 287 286 286 286 286 286 285 285 286 285 285 286 285 286 287 287 287 287 287 286 283
304 304 304 304 302 301 299 297 295 294 293 292 290 289 288 288 288 287 286 286 286 286 286 286 285 285 285 285 284 284 285 284 284 285 285 286 286 286 286 286 286 285 284
304 304 304 302 300 299 297 296 294 293 292 291 289 289 288 287 286 286 286 286 285 285 285 285 285 285 285 285 284 283 284 283 283 284 284 285 287 285 286 285 284 284 284
303 303 302 300 299 298 297 295 294 291 291 290 289 288 287 286 285 285 286 285 285 284 285 285 284 284 285 285 284 284 283 283 284 284 284 284 284 284 284 284 283 284 285
304 302 302 299 298 298 296 294 292 291 289 289 288 286 285 285 285 285 285 285 285 284 284 284 285 285 285 285 285 284 283 283 284 284 284 284 284 284 284 284 284 285 284
303 302 301 299 298 296 295 293 291 289 289 287 287 286 285 285 285 285 285 285 284 284 284 284 284 284 285 286 284 284 283 283 283 283 284 285 287 289 288 285 285 284 283
303 302 302 300 298 295 293 292 290 288 288 286 286 286 285 285 285 285 284 283 283 283 283 283 283 283 285 289 289 288 283 283 283 282 283 284 286 286 289 289 289 288 285
302 301 301 300 297 295 293 290 288 287 286 285 285 285 285 284 284 284 283 282 282 282 282 282 282 281 281 288 289 289 284 283 282 282 282 283 284 285 284 287 289 288 289
302 302 301 300 297 294 292 289 287 286 286 285 284 285 284 283 283 282 281 281 281 281 281 281 281 280 282 288 288 288 283 283 282 283 283 282 282 284 285 285 284 285 283
300 300 300 296 294 292 288 287 286 285 285 284 284 284 283 281 281 280 280 280 280 280 280 280 280 279 280 287 288 286 283 282 282 283 283 284 283 287 288 285 283 281 281
299 297 295 294 291 288 288 286 284 283 283 283 283 282 282 281 280 280 279 280 280 281 281 281 280 282 280 285 288 287 283 281 282 283 283 286 285 287 288 284 281 279 278
294 293 292 290 288 287 287 284 283 281 282 283 282 282 282 281 280 280 280 280 279 279 279 279 279 279 280 282 287 287 283 282 282 282 282 282 286 288 287 286 280 280 282
292 292 289 287 287 288 285 282 280 281 282 282 282 281 280 281 282 280 280 280 278 277 277 278 278 279 280 285 285 287 286 286 282 281 281 282 286 285 285 283 284 284 283
291 290 287 286 285 285 283 280 280 282 282 280 280 280 280 280 281 280 279 278 278 277 277 277 278 279 281 281 285 286 286 286 283 282 284 286 284 283 281 282 283 282 277
290 288 286 284 282 281 282 281 282 282 281 279 279 279 279 280 280 280 279 278 277 277 277 278 278 278 279 279 280 282 282 284 282 284 282 282 281 281 280 279 278 277 277
289 288 286 285 282 282 281 281 281 281 279 278 278 278 279 279 278 279 278 278 278 280 280 279 279 278 278 280 284 284 282 282 283 282 278 276 276 275 276 276 276 277 277
289 288 286 283 282 281 280 281 281 280 278 277 278 278 278 278 278 277 278 283 284 285 285 285 283 282 284 285 285 285 285 285 284 278 275 274 275 274 275 275 275 276 277

GFSMW_sfc_thetae_021.txt.gz
Theta_e
306 309 310 313 316 317 318 320 321 322 322 316 311 309 306 306 305 303 302 300 300 300 298 299 298 297 297 295 295 295 294 294 295 294 292 294 296 294 294 295 297 298 299
304 307 308 311 314 314 314 315 315 315 317 315 311 309 306 304 303 302 299 298 297 297 296 295 295 294 295 293 292 292 292 293 293 291 290 288 291 292 293 294 295 294 293
304 303 305 307 308 308 310 311 311 312 311 311 309 308 306 303 301 299 297 295 295 295 294 293 293 292 292 291 290 290 290 289 291 291 289 286 285 288 291 292 292 291 292
304 305 304 305 306 306 308 309 310 310 309 309 307 304 301 299 298 298 296 294 293 293 293 292 291 291 291 289 290 291 289 289 288 290 293 289 287 285 284 289 289 290 292
305 304 305 306 306 304 303 303 304 304 304 304 302 301 298 297 297 295 293 292 291 291 292 291 290 289 290 288 288 288 287 288 288 288 288 286 287 287 284 282 284 288 289
303 305 306 306 304 302 301 300 301 300 300 300 299 298 295 293 292 291 290 290 290 290 289 290 288 288 288 288 288 287 287 286 286 286 286 285 284 285 283 282 283 284 286
304 304 304 303 302 300 299 299 299 297 296 296 295 293 291 290 289 289 288 288 288 287 287 287 286 286 287 287 287 286 285 285 284 284 284 285 286 286 286 285 283 283 285
304 304 303 302 301 300 298 297 296 294 294 293 292 291 291 290 289 288 287 286 286 286 286 286 286 286 286 286 285 285 285 285 284 283 283 284 285 286 286 285 283 281 282
302 303 303 303 300 298 297 296 295 293 292 291 290 288 288 288 287 286 286 286 286 288 286 285 285 285 285 285 284 284 283 283 283 283 283 283 285 286 286 286 285 282 278
302 303 303 302 300 298 296 295 294 292 291 290 288 288 287 287 286 286 285 285 285 285 285 285 284 284 284 284 283 283 284 283 283 284 282 283 284 285 285 285 285 284 282
302 302 303 302 300 297 295 293 292 291 290 289 287 287 286 286 285 285 284 284 284 284 284 284 284 284 284 283 282 282 283 282 281 282 283 283 284 284 284 285 285 284 283
302 302 302 300 298 296 294 292 291 290 289 288 287 287 286 285 284 284 284 284 284 284 284 284 284 284 284 283 282 281 282 281 281 282 282 283 285 283 284 284 283 283 283
301 301 299 298 297 295 293 292 290 289 288 288 287 286 285 284 283 283 284 284 284 283 284 284 283 283 284 283 283 282 281 281 281 282 282 282 282 282 283 283 283 283 284
302 300 298 298 297 295 293 291 289 288 288 287 286 284 284 283 283 284 284 284 284 283 283 283 283 284 284 283 283 282 282 281 282 283 283 282 282 282 283 283 283 284 283
300 300 298 297 296 294 292 290 288 287 287 286 285 284 284 284 284 284 284 284 283 283 283 283 283 283 283 285 284 284 282 281 281 281 283 283 285 287 287 284 283 283 282
301 300 299 297 296 294 291 290 287 286 286 285 284 284 284 284 284 283 283 282 282 282 282 281 281 281 284 288 289 288 283 281 281 281 282 283 285 285 288 288 288 287 284
300 300 299 298 295 293 291 288 286 285 284 284 284 284 284 283 283 283 282 281 280 280 280 280 280 279 279 288 289 289 284 281 281 281 281 282 284 285 283 286 288 287 289
301 301 299 296 294 291 289 286 285 284 284 284 283 284 284 283 282 281 280 279 279 279 279 279 279 278 281 287 288 288 283 281 281 281 281 281 282 283 284 283 283 284 283
299 299 297 294 291 289 287 285 284 284 283 283 283 283 282 281 281 280 278 278 279 279 278 279 278 277 278 286 287 286 282 281 281 282 282 283 283 286 287 283 283 281 280
296 293 292 289 287 286 286 284 283 282 282 282 282 282 282 281 279 278 278 279 279 279 279 279 278 281 278 284 286 286 282 280 281 282 282 285 284 286 287 283 281 277 277
291 291 289 287 286 285 285 283 282 281 282 282 282 282 281 279 279 278 278 278 278 278 277 276 276 277 278 280 286 286 282 281 281 281 281 281 285 287 286 285 279 279 282
289 288 287 286 285 285 284 280 279 281 281 281 281 280 279 280 281 279 279 278 277 276 275 275 276 277 278 283 284 286 286 286 282 281 280 281 286 284 283 281 283 283 282
287 287 286 284 283 282 281 279 280 281 281 280 279 278 278 279 279 278 278 277 276 275 276 276 276 278 279 278 284 286 286 286 282 281 284 284 283 282 280 281 282 281 276
286 286 284 281 280 280 281 280 280 280 279 278 277 278 278 280 278 278 278 277 275 275 276 276 277 277 278 279 280 282 282 284 283 283 280 280 280 280 279 278 278 277 277
286 285 283 281 280 280 279 279 280 279 278 277 277 277 278 277 277 277 277 277 277 279 279 278 278 277 278 280 284 283 281 282 283 281 277 276 275 275 275 276 276 277 277
286 285 282 281 279 279 279 279 280 279 277 277 277 277 277 276 276 275 276 282 283 284 284 284 282 281 283 284 284 284 284 284 283 277 274 274 274 274 274 274 275 276 276

GFSMW_sfc_thetae_024.txt.gz
Theta_e
304 306 309 311 314 316 317 318 319 315 313 311 308 305 302 303 301 301 299 298 297 296 296 295 295 295 293 291 292 292 291 291 292 291 291 292 293 290 290 291 292 292 292
303 306 309 311 314 314 315 316 318 314 313 310 307 305 302 302 299 297 295 295 294 294 294 293 292 292 291 290 289 289 289 290 291 288 288 286 289 290 290 290 291 288 290
303 304 307 308 309 310 311 312 311 310 309 308 306 303 302 300 297 295 293 292 293 293 292 291 291 290 290 289 288 288 288 287 289 288 287 283 282 285 288 288 288 289 288
304 304 306 305 306 306 308 308 309 308 308 307 304 302 299 297 296 294 292 291 291 291 291 291 290 289 289 287 288 289 287 286 285 288 290 287 286 282 281 286 288 286 288
304 305 306 306 305 305 305 305 306 306 305 304 303 301 297 296 295 292 290 289 289 290 290 289 288 288 288 287 286 286 285 286 285 285 286 284 284 284 283 280 281 285 287
303 304 304 304 301 300 300 301 302 301 301 301 298 297 295 292 291 289 289 288 288 288 288 288 287 286 286 286 286 285 284 284 284 284 284 283 282 282 281 280 281 281 284
302 303 302 301 299 298 298 298 299 296 296 296 294 292 291 289 288 288 287 287 286 286 285 286 285 285 285 285 285 284 283 283 282 282 282 283 283 284 283 282 281 280 283
303 303 302 300 299 298 296 296 295 293 293 292 290 289 289 289 288 287 286 286 285 285 285 284 284 284 284 284 283 283 283 283 282 281 281 282 283 283 283 282 281 279 280
302 302 301 300 298 296 295 294 293 291 291 290 289 287 287 287 286 285 285 285 285 287 284 284 283 283 284 283 283 282 282 282 282 281 281 281 282 283 283 283 283 281 277
301 301 301 299 297 296 293 292 292 291 289 288 287 287 286 286 285 285 284 284 284 284 284 283 283 283 283 283 282 282 282 281 281 283 281 281 282 283 283 283 283 283 280
301 301 300 299 296 295 293 291 290 289 287 287 286 285 285 285 284 283 283 283 283 283 283 283 283 283 282 282 282 281 282 281 280 281 281 281 282 282 282 283 283 282 282
301 301 300 297 295 293 292 291 289 288 287 286 286 285 284 284 283 283 283 283 282 283 283 283 283 282 283 282 281 281 281 280 280 280 281 281 283 281 282 282 281 282 282
300 300 298 297 294 293 291 290 288 287 286 286 285 284 283 283 282 282 283 283 283 282 283 283 282 282 283 282 282 281 280 280 280 280 280 281 281 280 281 281 281 282 283
300 299 298 296 294 292 290 289 287 287 286 286 284 283 283 282 282 283 283 283 283 282 282 282 282 282 282 282 282 281 281 281 281 281 281 281 281 281 281 282 282 283 281
299 298 297 295 293 291 289 288 287 286 286 285 284 283 283 283 283 283 283 283 282 282 282 281 282 281 282 283 284 283 282 281 280 280 281 282 284 287 286 284 283 282 282
299 298 297 295 293 291 289 288 286 285 286 284 284 284 283 283 283 282 281 281 281 281 280 280 280 280 282 287 289 287 283 281 280 280 281 281 284 284 287 287 288 286 283
299 298 297 296 294 291 289 286 285 285 284 284 283 283 283 282 282 281 281 280 279 279 279 279 279 278 278 287 288 289 283 280 280 279 280 281 283 284 282 285 287 286 287
300 298 297 296 292 290 288 285 285 284 283 283 283 283 283 282 281 280 279 279 279 279 278 278 278 277 279 286 287 288 282 280 280 280 280 280 281 282 283 282 282 284 281
300 299 297 293 289 287 286 285 283 283 283 282 282 282 282 281 280 279 278 278 278 278 277 277 277 276 276 285 286 285 281 281 280 281 280 282 281 285 287 284 280 279 279
295 293 291 289 286 285 285 284 282 281 281 282 282 281 281 280 279 278 278 278 277 277 277 277 276 280 277 283 286 285 282 280 280 281 282 285 283 286 287 281 279 276 277
289 289 288 286 284 284 284 282 280 281 281 281 281 281 280 279 278 278 277 277 277 276 275 276 275 275 277 278 285 286 283 281 281 281 280 280 285 286 285 284 278 278 282
287 287 285 283 283 283 283 280 279 280 280 281 280 279 278 279 280 278 278 278 276 274 274 274 274 277 277 283 284 286 286 286 281 280 280 282 284 283 283 281 283 283 282
285 286 284 282 281 280 281 279 278 280 280 279 278 278 278 278 278 278 277 276 275 274 274 274 275 277 279 277 284 285 286 285 282 281 283 283 282 281 279 281 282 281 276
284 284 282 280 279 279 279 279 279 279 278 277 276 276 277 279 277 277 277 276 275 274 275 276 277 277 278 278 279 281 280 283 282 283 279 280 280 280 279 278 277 276 277
283 283 281 280 278 278 278 279 279 278 277 276 276 276 277 276 276 276 275 276 276 278 278 277 277 277 277 279 283 283 281 281 281 281 276 275 275 274 275 275 276 276 276
283 282 280 279 278 278 278 278 278 277 276 276 276 276 276 275 275 275 275 281 282 283 283 283 281 280 283 284 284 284 284 283 282 277 274 273 274 273 274 274 274 275 276

GFSMW_sfc_thetae_027.txt.gz
Theta_e
303 305 306 307 311 312 314 312 316 312 313 310 307 305 304 301 300 300 299 298 296 295 294 293 293 292 290 289 290 289 289 289 289 288 288 290 291 290 288 290 288 288 289
302 304 306 309 313 313 314 315 312 311 311 309 304 302 300 298 298 297 296 294 293 293 293 291 291 290 289 288 288 287 287 288 288 286 286 284 286 288 289 288 289 287 288
301 302 305 309 310 311 312 313 311 309 307 305 303 300 300 298 296 294 291 291 291 291 291 290 290 289 288 287 286 286 286 285 286 287 284 280 280 283 286 285 287 287 286
302 304 306 307 309 310 310 309 308 306 305 305 303 302 299 295 295 291 289 289 290 290 290 289 288 288 287 286 286 287 285 285 284 286 288 285 284 280 279 284 286 284 285
303 303 307 309 308 307 306 306 305 305 303 302 302 300 297 295 292 289 287 287 288 288 288 288 287 286 286 285 284 284 283 284 283 283 284 282 283 282 280 279 280 283 284
303 304 305 305 302 302 303 304 304 302 301 300 299 298 295 292 290 288 287 287 287 287 287 287 285 285 285 284 284 283 283 282 282 282 281 281 280 280 279 278 279 279 281
302 303 303 302 300 301 300 301 302 298 298 297 295 294 292 291 289 287 287 286 285 285 284 284 284 284 284 284 284 283 282 282 281 280 280 281 281 282 281 280 279 278 281
302 304 304 302 300 299 299 299 298 295 294 293 290 289 289 289 287 287 286 285 284 284 284 283 283 283 283 283 282 282 282 282 281 280 280 281 281 282 281 280 279 277 278
302 303 301 299 298 297 296 296 294 292 291 289 289 287 287 287 286 285 284 284 284 285 283 283 283 283 283 283 282 281 281 281 280 280 280 280 281 282 281 282 281 279 275
302 301 300 298 296 294 293 292 293 291 289 287 287 286 285 285 284 284 283 283 283 283 283 283 282 282 282 282 281 281 281 280 280 281 280 280 281 281 281 281 281 281 279
300 299 298 297 294 293 292 290 289 288 287 287 285 285 284 284 283 283 283 283 282 282 282 282 282 282 282 281 281 280 281 280 280 280 280 280 281 280 281 281 281 280 280
299 299 296 294 293 291 290 288 287 287 286 285 285 284 283 283 282 282 282 282 282 282 282 282 282 281 282 281 280 280 280 280 279 279 279 280 283 280 280 280 280 280 281
298 297 295 294 292 290 289 288 287 285 285 285 284 283 282 282 282 282 282 282 282 281 282 282 281 281 282 281 281 280 280 280 280 280 279 280 280 280 280 280 280 281 282
298 297 295 293 291 290 288 287 285 286 285 284 283 282 282 282 282 282 282 282 282 281 281 281 281 281 281 281 281 281 280 280 280 281 280 280 280 280 280 281 281 283 281
297 296 294 292 290 288 287 286 285 285 285 284 283 282 282 282 282 282 282 282 281 280 280 280 280 280 280 282 283 283 281 280 279 279 280 281 283 286 286 284 282 281 281
297 297 295 292 289 288 287 286 285 284 285 283 283 283 282 282 282 281 281 280 280 280 279 279 279 279 281 286 288 287 282 280 279 278 280 280 283 283 287 287 287 286 282
298 297 295 293 291 289 287 285 285 284 284 283 283 283 282 282 281 281 280 279 278 278 278 278 278 277 277 286 288 288 282 279 279 279 280 280 282 283 281 284 286 286 287
298 297 295 293 290 288 286 285 285 284 283 282 282 282 282 281 281 280 278 277 278 278 278 277 277 276 278 286 287 287 281 279 279 279 279 279 280 281 283 282 283 280 280
298 297 296 292 288 287 285 284 283 283 282 281 281 282 281 280 279 278 277 278 277 277 277 276 276 275 276 284 286 285 280 279 279 279 280 281 282 284 287 283 279 279 278
296 293 290 288 286 285 285 284 282 281 281 281 281 281 280 279 277 277 277 277 277 276 276 276 276 278 276 282 286 285 281 279 280 281 282 284 283 286 287 281 279 276 276
289 289 288 286 284 284 284 282 281 280 281 281 280 280 279 278 277 277 277 277 275 275 274 275 275 275 277 278 285 286 282 281 281 280 280 280 285 286 285 284 278 278 282
286 285 284 282 283 284 283 280 280 280 280 280 279 278 277 279 280 278 277 277 275 274 274 274 275 276 276 282 284 285 286 286 280 280 280 281 284 283 283 281 283 284 282
284 284 283 281 280 281 282 280 278 279 279 278 277 276 277 277 277 277 276 276 274 274 274 274 274 276 278 277 283 285 285 285 283 281 283 283 282 281 279 280 282 281 276
283 283 282 280 278 279 279 279 278 279 277 275 275 276 277 276 276 276 277 276 274 274 275 276 276 276 277 278 279 280 280 283 282 282 278 280 279 279 279 277 277 276 276
282 282 281 279 277 278 278 278 278 277 276 276 276 276 276 275 275 275 275 276 276 277 277 276 277 276 276 278 283 282 281 281 281 280 276 274 274 274 274 275 275 276 276
281 280 279 278 277 277 277 277 277 277 276 276 276 276 276 274 275 274 275 280 282 283 283 283 281 280 282 283 284 284 284 283 282 276 273 273 273 273 273 273 274 274 275

GFSMW_sfc_thetae_030.txt.gz
Theta_e
306 304 305 305 307 309 310 313 317 313 313 310 308 307 303 301 300 300 299 298 297 295 293 292 290 290 289 288 288 288 287 287 288 287 287 288 289 289 288 287 287 287 287
301 303 304 305 310 310 311 313 312 312 313 312 304 303 301 298 298 297 296 296 295 293 292 290 289 289 288 287 286 286 285 285 286 284 284 282 284 286 287 285 288 285 287
303 301 302 306 309 310 311 312 309 308 307 304 301 298 297 296 295 294 293 293 291 291 290 289 288 288 287 286 285 285 284 283 284 285 283 279 278 282 284 285 286 285 284
301 302 302 306 308 310 311 309 308 305 304 304 302 300 299 296 295 293 292 290 289 289 289 288 287 287 286 285 285 285 284 283 282 284 286 283 283 279 278 283 284 283 284
302 301 303 307 308 308 308 306 304 303 302 302 303 300 296 294 292 291 289 286 286 287 287 287 286 285 285 284 283 283 282 283 282 282 282 281 281 280 279 278 279 282 283
299 302 304 307 306 305 304 304 303 300 300 300 299 299 294 292 290 288 286 285 286 286 285 286 285 284 284 283 283 282 282 281 281 281 280 280 279 279 278 277 278 278 280
299 300 303 305 303 303 303 303 302 299 299 301 299 296 294 292 288 287 286 285 284 284 283 283 283 283 283 283 283 282 281 281 280 280 279 280 280 281 280 278 278 277 280
298 301 304 305 304 304 303 303 301 297 298 297 293 291 291 290 288 287 285 284 284 283 283 283 283 283 283 283 282 282 281 281 280 279 279 280 280 281 280 279 278 276 276
298 301 304 305 303 302 302 301 297 294 293 291 290 288 288 287 286 284 284 284 283 284 282 282 282 282 282 282 281 280 280 280 280 280 279 279 280 281 281 280 280 278 274
299 301 303 301 300 299 296 296 295 292 290 288 288 287 285 285 284 284 283 282 282 282 282 282 282 282 282 281 280 280 281 280 280 281 279 279 280 280 280 280 280 280 278
300 300 299 297 295 294 294 291 290 289 287 287 285 285 284 283 283 282 282 282 282 282 282 282 282 281 281 281 280 279 280 279 279 279 279 279 280 280 280 280 280 279 279
299 297 295 293 293 291 291 289 288 287 286 285 284 283 283 282 282 281 281 282 281 282 281 281 281 281 281 280 279 279 279 279 279 279 279 279 282 279 280 280 279 279 280
295 293 293 292 290 289 288 287 287 285 285 285 284 283 282 281 281 281 281 281 281 281 281 281 280 280 280 280 279 279 279 279 279 279 279 279 279 278 279 279 279 280 281
295 294 293 291 289 288 287 286 285 285 284 284 283 282 281 281 281 281 281 281 281 280 280 280 280 280 280 280 280 281 280 280 280 280 279 279 279 279 279 280 280 282 280
295 294 291 289 288 286 285 285 284 284 284 283 283 281 281 281 281 281 281 281 281 281 280 280 279 279 279 282 282 282 281 279 279 279 279 280 282 286 285 283 282 281 280
296 294 291 289 287 286 285 285 284 283 284 283 282 282 282 281 281 280 280 280 280 279 279 278 278 278 280 285 288 287 281 280 279 278 279 279 283 282 287 287 287 286 283
296 294 291 290 288 287 286 284 284 284 283 283 282 282 281 281 280 280 280 279 279 278 277 277 277 276 276 286 288 288 282 280 278 278 279 280 282 283 280 284 286 286 286
297 294 292 289 287 286 285 284 284 283 283 282 281 281 281 280 280 279 279 278 278 277 276 276 276 275 277 285 287 287 280 279 278 278 278 278 279 280 283 282 284 280 280
298 295 293 289 287 285 285 284 283 282 282 281 281 280 280 280 279 279 278 276 276 276 275 276 275 274 275 284 286 285 280 278 278 279 279 279 281 284 286 284 280 279 278
295 292 289 288 285 284 285 283 282 281 281 280 280 280 280 279 278 277 277 276 276 275 275 276 275 278 275 282 285 285 280 277 279 279 280 284 283 286 287 281 279 276 276
290 289 288 286 284 284 284 282 281 280 280 280 280 279 279 277 277 276 276 275 275 274 274 275 274 275 276 278 285 286 281 280 280 279 280 281 285 286 285 284 278 278 282
286 286 284 283 283 284 283 281 280 279 280 279 278 277 277 279 279 277 276 276 274 273 273 274 275 276 276 282 283 285 285 285 280 280 280 280 285 284 283 281 282 284 282
283 284 282 281 281 282 283 279 277 279 278 277 276 276 277 277 277 277 276 275 274 273 273 274 274 276 278 277 283 285 285 285 282 281 282 284 283 281 279 280 282 281 275
282 283 282 280 278 279 279 278 278 278 277 275 275 276 276 276 275 276 276 275 274 274 274 275 276 275 277 277 278 279 279 283 282 282 279 280 279 279 278 277 276 276 275
283 283 281 279 277 278 278 278 277 277 276 275 276 275 275 275 274 275 274 276 276 276 276 276 277 276 276 278 283 282 281 281 282 281 276 274 274 273 273 274 274 275 275
281 279 279 278 277 277 276 276 277 277 276 275 276 276 275 274 274 274 274 280 282 283 283 282 281 279 282 283 283 284 284 283 282 276 273 272 272 272 272 272 273 274 274

GFSMW_sfc_thetae_033.txt.gz
Theta_e
309 311 311 311 311 312 315 317 323 327 324 320 317 314 311 310 305 303 301 300 299 297 296 297 296 295 294 293 294 294 293 293 293 293 295 296 296 297 298 294 295 294 294
306 308 309 309 310 313 315 318 323 321 321 321 316 313 310 305 303 300 298 297 296 295 295 295 294 294 293 293 292 293 292 292 292 290 291 289 292 294 294 294 294 293 293
304 307 307 308 311 313 314 317 318 317 316 309 306 303 302 301 299 296 295 294 294 294 294 294 293 293 294 292 292 292 291 290 291 291 289 288 286 287 291 292 292 291 290
302 306 307 307 310 314 316 316 314 312 310 309 307 306 307 303 300 294 293 292 293 292 293 293 293 292 292 291 291 290 290 291 288 290 289 290 288 285 283 289 290 290 288
302 304 307 308 311 314 315 314 312 310 308 309 309 309 307 300 294 292 290 290 290 292 292 292 291 291 291 290 290 289 289 289 288 288 288 287 287 287 285 282 285 287 288
302 305 307 308 310 313 313 310 309 306 306 307 306 304 301 293 291 290 289 290 290 290 290 290 290 290 290 289 289 289 288 288 287 287 287 286 285 285 283 282 283 283 285
301 303 304 307 309 310 309 308 307 303 304 304 303 300 297 294 291 290 289 288 289 289 289 289 289 289 289 289 289 288 288 287 287 287 286 286 286 286 285 283 283 282 284
301 302 304 307 309 310 308 308 305 302 303 302 299 297 294 293 291 290 289 290 289 288 288 288 288 288 288 288 288 288 288 287 287 286 286 286 286 286 285 284 282 281 282
298 302 304 307 308 309 308 306 303 301 301 298 295 293 292 291 290 290 290 289 288 287 287 288 288 288 287 287 287 287 287 286 286 286 286 285 286 286 286 286 285 282 278
297 301 304 306 308 308 305 304 302 299 297 294 293 291 290 290 289 289 288 288 287 287 287 287 287 287 287 286 286 286 286 286 286 286 285 285 285 286 286 286 285 284 282
297 301 304 304 303 301 301 298 296 294 292 291 289 289 288 288 288 287 287 287 287 287 287 287 286 286 286 285 285 285 285 284 285 285 285 284 285 285 285 285 285 284 283
299 301 299 297 298 297 296 295 294 292 290 289 289 287 287 287 286 286 286 286 286 286 286 286 285 285 285 285 284 284 284 284 284 284 284 284 284 284 284 284 283 283 284
295 294 295 296 295 294 293 293 291 288 287 287 287 286 286 285 285 285 285 286 285 285 285 285 285 284 284 283 284 284 285 285 284 284 283 283 283 283 283 283 283 284 283
294 294 293 292 292 291 291 289 287 287 286 286 286 285 285 285 285 285 285 285 285 284 284 284 284 283 283 283 284 285 286 285 285 284 284 284 283 283 283 284 284 284 284
293 293 291 290 289 288 288 288 286 286 286 286 286 284 284 285 284 284 284 284 284 284 284 283 283 282 283 283 286 287 286 285 284 284 284 284 285 287 287 285 284 284 283
294 292 290 289 288 288 287 287 286 286 287 286 284 284 284 284 284 284 283 283 283 283 283 282 282 282 282 285 288 288 286 285 284 283 284 284 284 284 286 287 287 286 284
294 291 290 289 288 287 287 286 286 286 285 284 284 284 284 283 283 283 283 283 282 282 282 281 281 280 281 285 288 288 286 284 284 283 283 283 283 285 284 285 286 287 288
294 292 291 288 287 287 286 285 286 285 285 284 283 284 283 282 282 282 282 282 282 281 281 280 280 280 281 285 286 287 285 284 284 283 283 282 283 284 284 284 285 284 283
295 293 291 288 287 286 286 285 285 284 284 283 283 283 282 281 281 281 281 281 281 280 280 280 279 279 281 284 285 286 284 283 283 283 283 283 283 285 287 285 283 281 281
294 291 289 288 286 286 286 285 284 284 283 283 282 282 282 281 281 281 280 280 280 279 279 279 280 280 280 282 285 285 284 282 282 283 283 284 284 286 287 283 282 279 279
291 290 289 287 285 286 286 284 284 282 282 282 282 281 281 280 281 280 280 279 279 278 278 279 279 280 280 281 285 285 283 283 283 282 282 283 285 286 285 285 281 279 283
287 287 285 284 285 286 285 283 281 281 282 281 280 280 281 281 281 280 279 278 278 278 278 278 279 280 280 282 283 285 285 285 282 282 282 283 285 284 283 282 282 283 283
284 285 284 283 283 285 284 280 280 281 280 279 279 279 279 280 280 280 279 279 278 277 277 278 278 279 280 280 283 284 285 285 283 283 283 284 283 282 280 280 282 281 277
283 283 283 281 280 281 281 281 280 280 279 278 279 279 279 278 278 279 279 278 278 277 278 278 278 278 279 279 281 281 282 284 283 283 282 281 280 279 279 277 277 277 277
283 283 281 279 279 280 279 279 279 279 278 278 278 278 278 278 278 278 278 279 279 279 280 279 279 278 278 280 283 283 282 283 283 282 279 276 275 275 275 275 276 276 276
281 280 279 279 278 278 278 278 279 279 279 278 278 278 277 277 277 277 277 280 281 282 282 282 281 281 282 283 283 283 284 283 282 278 274 274 274 273 274 273 274 275 276

GFSMW_sfc_thetae_036.txt.gz
Theta_e
312 314 316 319 320 321 321 322 322 325 330 333 334 336 333 328 325 321 317 310 307 303 305 301 303 303 302 300 300 299 298 298 298 298 300 301 300 301 302 301 299 299 298
307 310 313 316 318 319 321 322 323 327 331 332 331 330 327 318 314 311 308 308 304 299 302 302 301 301 300 299 298 299 298 297 297 295 296 295 297 299 299 298 298 296 297
304 306 310 314 317 318 320 321 324 328 330 330 329 321 313 306 304 302 302 302 300 297 300 300 300 300 299 298 297 297 296 295 296 295 294 293 293 292 297 296 295 296 295
305 306 307 310 314 318 322 322 325 327 328 326 319 316 317 310 309 305 302 298 297 296 297 298 299 298 298 297 296 296 296 296 294 296 293 293 292 289 288 294 294 294 292
305 305 307 309 313 318 321 322 324 325 323 321 322 321 319 313 307 302 297 294 294 296 298 298 297 296 296 296 295 295 295 295 294 293 293 292 292 291 288 287 290 292 293
304 306 308 310 311 317 321 322 321 321 320 321 321 323 316 306 301 296 292 292 294 296 297 296 296 296 295 295 294 294 293 294 293 293 292 290 289 288 288 286 287 287 290
303 305 308 309 311 314 319 320 319 317 318 319 320 318 310 306 302 296 292 294 292 295 295 295 295 295 295 294 294 294 293 293 292 291 291 290 290 289 288 287 286 286 288
305 304 308 311 312 314 318 318 318 315 316 317 316 311 305 301 295 294 292 294 293 293 295 295 294 294 293 293 293 293 293 293 292 290 290 290 290 290 289 287 286 284 286
303 305 306 309 313 315 317 318 316 314 314 314 309 302 299 295 296 292 294 293 294 293 294 294 293 293 293 292 292 293 292 291 291 291 290 289 290 290 290 289 288 285 281
304 306 306 308 312 315 317 318 316 312 312 309 306 299 295 293 292 293 291 292 293 293 293 293 292 292 292 291 291 291 290 290 291 290 289 289 289 289 289 289 288 287 285
304 306 306 309 313 315 316 314 312 309 306 305 301 296 292 292 293 293 293 294 293 293 292 292 291 291 290 290 290 289 289 288 289 289 289 288 289 288 288 288 287 286 286
305 306 307 310 311 311 311 309 307 305 302 299 297 293 291 292 293 293 293 293 292 292 291 291 290 290 289 289 288 288 288 288 288 288 288 287 287 287 287 286 286 285 286
303 303 303 305 307 307 307 305 302 298 297 296 292 290 290 292 293 292 291 292 291 291 290 290 289 288 288 288 288 288 288 289 288 288 287 287 286 285 286 286 286 286 286
301 301 302 304 305 305 303 299 294 292 291 290 290 289 292 292 291 291 290 290 290 290 289 289 288 287 287 287 287 288 289 289 288 288 288 287 286 285 286 286 286 286 285
299 299 300 301 301 297 294 291 290 289 289 288 289 289 291 291 290 289 289 289 289 289 289 288 287 287 287 286 288 289 289 289 288 288 287 287 287 287 287 286 285 285 284
299 298 298 298 294 291 289 288 288 288 288 288 288 289 289 289 289 289 289 289 288 288 287 287 286 286 285 285 288 289 288 288 287 286 286 286 287 286 287 287 287 286 284
298 297 296 293 291 289 289 287 287 289 288 288 288 289 289 288 288 288 288 288 287 287 287 286 285 285 285 285 287 288 288 287 286 286 285 285 285 286 285 286 287 288 288
298 297 293 291 290 290 289 288 289 289 289 289 288 288 288 287 287 287 287 287 287 286 286 285 285 285 285 285 286 287 287 286 286 286 286 285 285 285 285 285 286 286 285
298 297 292 291 291 291 290 291 290 290 289 288 287 287 287 286 286 286 286 286 286 285 285 285 284 284 285 284 285 286 286 285 285 286 286 285 285 286 287 285 284 283 283
297 294 293 293 292 291 292 290 289 289 287 286 286 287 287 287 286 286 286 285 285 285 285 284 284 283 283 284 285 286 285 284 284 285 285 286 285 286 287 284 283 281 281
294 294 293 291 290 290 290 288 288 286 286 286 286 286 286 286 286 285 285 285 284 284 284 283 284 284 284 284 285 285 284 284 283 283 283 284 286 286 286 285 282 281 283
291 290 287 287 288 289 289 288 286 285 285 285 284 284 285 285 285 285 284 284 284 283 283 283 283 284 284 284 284 285 285 285 283 282 283 284 285 285 284 283 283 283 284
289 290 289 288 289 289 288 284 283 284 284 283 283 284 285 284 285 285 284 284 283 282 282 282 281 282 283 283 284 284 285 285 284 284 285 285 284 283 281 281 282 282 280
288 289 288 286 286 285 284 283 283 283 283 284 284 284 284 283 283 284 284 283 282 282 281 281 281 281 281 282 283 283 284 284 284 285 284 283 282 281 281 280 280 280 279
287 287 286 285 284 284 282 283 283 285 284 284 284 284 283 283 283 283 283 283 283 282 281 281 281 280 280 281 284 284 283 284 284 283 281 279 278 278 278 278 278 279 279
285 284 284 283 283 283 282 283 284 285 284 283 283 283 283 283 282 282 282 281 281 282 282 282 281 281 282 283 283 283 284 284 283 279 277 277 277 276 276 276 277 277 278

GFSMW_sfc_thetae_039.txt.gz
Theta_e
313 315 317 318 319 320 322 323 323 325 326 329 331 335 337 337 336 336 335 328 322 315 312 310 309 309 307 305 303 302 301 299 299 301 303 303 301 302 303 303 301 301 299
308 311 314 315 317 318 321 322 323 324 326 330 334 336 331 326 326 327 325 320 316 311 306 306 306 305 303 302 301 302 300 299 299 296 299 297 298 300 301 301 299 298 299
305 307 309 312 317 317 320 322 323 325 328 331 334 334 320 313 309 311 312 312 309 306 304 304 303 303 304 302 301 300 300 298 298 297 294 295 294 293 299 298 298 297 297
305 306 307 309 312 316 322 323 324 326 330 333 331 329 319 312 309 307 308 306 305 303 302 302 301 302 301 300 299 298 298 298 296 297 294 294 292 290 289 296 296 297 293
306 306 308 310 311 315 320 324 324 326 330 331 330 325 318 318 309 303 302 300 300 300 300 299 301 300 300 298 297 297 296 296 294 294 293 293 293 292 289 287 291 293 294
305 306 308 309 311 314 320 324 324 326 329 330 325 322 323 312 303 300 298 298 300 300 298 300 300 299 298 297 297 296 296 294 293 293 292 290 289 289 288 287 288 288 291
304 304 305 307 309 312 315 322 322 323 326 324 324 323 322 311 305 300 298 297 296 297 298 298 298 297 298 297 296 296 295 294 293 292 291 291 290 290 289 288 287 286 289
303 305 306 308 311 312 314 319 321 322 322 322 323 325 316 311 307 302 301 297 297 295 297 298 297 296 295 295 295 295 294 293 293 292 292 291 290 291 289 288 286 284 285
303 304 306 308 308 312 314 319 320 321 320 321 323 318 312 309 305 302 298 296 297 295 296 296 295 295 294 294 294 293 292 292 292 292 292 291 291 291 291 290 289 285 281
303 305 307 309 309 313 316 319 320 318 319 320 317 313 306 300 296 296 294 294 293 294 294 295 294 294 293 293 292 292 291 290 291 291 290 290 290 290 290 289 289 288 285
303 305 307 310 310 313 317 318 319 316 317 314 307 303 299 296 294 293 293 292 294 293 294 294 293 292 292 292 291 290 290 289 290 290 290 289 289 288 288 288 288 286 286
303 306 307 310 310 314 317 317 316 314 313 308 302 297 295 294 294 293 293 295 292 294 293 293 292 291 291 290 289 289 289 289 289 289 289 288 288 288 288 287 286 286 286
303 306 306 308 311 314 314 313 312 309 307 303 298 295 294 293 292 292 294 293 293 292 292 291 291 290 289 289 288 288 289 289 289 289 288 288 287 286 286 286 285 286 286
304 305 305 306 309 311 310 309 306 304 301 298 295 293 292 292 292 292 293 293 292 291 291 290 290 289 288 288 288 289 289 289 289 289 289 288 287 286 286 285 285 285 284
303 303 303 305 306 307 306 302 299 299 298 295 293 292 292 291 291 292 292 291 291 290 290 289 289 288 288 287 287 288 289 289 288 289 288 288 288 288 288 286 285 285 284
303 302 302 303 303 299 297 294 293 292 292 291 291 290 290 290 291 290 290 290 289 289 289 288 288 288 287 286 287 288 287 287 287 287 287 287 288 287 288 289 288 287 284
301 299 299 299 295 292 291 290 290 290 289 288 289 289 289 289 290 289 289 289 288 288 288 287 286 286 286 285 287 288 287 286 286 286 286 285 286 287 286 287 288 287 288
298 298 296 293 291 290 289 289 290 289 288 288 287 288 288 288 289 288 288 288 288 288 287 286 286 286 286 285 286 287 286 286 286 286 286 285 285 286 285 285 284 285 285
299 295 293 290 289 288 289 289 288 288 288 287 287 288 288 288 288 287 287 287 287 286 286 285 285 285 285 285 285 286 285 285 285 286 286 286 285 287 288 285 283 283 283
292 290 290 289 289 290 290 290 289 289 288 289 289 289 288 288 287 287 286 286 286 285 285 285 285 285 284 285 285 285 284 283 284 284 285 287 286 287 288 284 283 280 280
292 293 292 291 291 292 292 290 290 288 288 288 288 288 288 287 287 286 286 286 285 285 285 284 285 285 285 284 285 286 284 283 283 283 283 284 287 287 287 287 282 281 283
293 293 292 292 292 293 291 288 286 286 286 286 285 286 286 286 286 286 286 285 284 284 284 283 283 284 285 285 285 285 285 286 283 282 283 284 286 286 286 284 284 284 284
289 289 288 288 290 289 287 285 285 285 285 284 284 285 285 286 286 286 285 284 284 283 282 282 282 282 283 283 285 285 286 286 284 284 285 286 285 285 283 282 283 283 279
290 290 289 287 285 285 284 283 283 284 285 284 284 285 284 284 284 284 284 284 283 282 281 281 281 281 281 282 282 283 283 284 284 284 283 283 283 282 281 280 280 279 279
290 290 288 285 283 283 282 283 284 285 284 284 284 284 284 284 283 283 283 282 283 282 280 280 280 279 279 280 283 283 282 282 283 283 280 279 278 277 278 278 278 278 278
288 286 285 283 282 283 283 285 286 286 285 283 284 284 283 283 283 282 282 283 281 281 282 282 281 281 282 283 283 283 284 284 284 279 277 276 277 276 276 276 276 277 278

GFSMW_sfc_thetae_042.txt.gz
Theta_e
308 309 310 311 311 311 313 319 317 318 319 317 324 330 331 333 334 334 333 330 320 317 310 307 306 304 301 299 297 296 295 293 293 293 294 294 294 295 295 296 295 294 294
305 307 308 309 311 311 312 313 316 317 319 320 321 325 326 325 328 330 328 322 316 311 307 304 303 300 298 296 295 296 294 293 293 290 291 289 291 293 294 295 294 291 292
302 304 305 306 308 311 312 313 315 316 318 320 325 319 315 312 310 313 313 312 309 308 303 303 301 300 298 297 295 295 295 292 291 290 288 287 286 286 291 291 291 290 289
301 302 303 302 304 308 312 313 314 316 318 322 324 321 321 316 308 309 309 308 307 306 302 302 303 299 299 297 294 295 293 292 290 290 292 288 286 284 283 288 289 289 288
300 300 301 303 304 304 306 312 314 315 318 323 326 321 315 308 307 303 302 303 304 303 301 300 297 297 297 295 293 292 291 290 289 289 288 286 287 286 283 282 284 287 288
297 298 299 301 302 304 305 310 314 315 321 324 324 318 313 305 302 301 299 299 300 301 300 299 298 296 294 294 293 291 290 289 288 288 287 286 284 283 282 281 281 282 285
296 297 298 299 301 302 305 307 314 314 321 322 320 316 314 305 301 299 298 298 297 298 298 298 296 294 294 294 292 291 290 289 288 287 286 286 286 286 284 283 281 281 283
296 296 298 300 302 304 305 306 314 315 320 321 317 316 307 303 301 300 298 298 297 297 298 298 295 293 292 292 291 290 289 288 288 287 286 286 286 286 285 284 281 280 280
296 296 299 301 303 303 306 306 313 315 318 317 317 311 307 303 300 298 299 298 297 297 296 295 292 291 291 291 290 289 288 287 287 286 286 286 286 286 285 285 284 281 278
297 298 301 303 305 307 306 307 313 314 315 317 314 309 305 301 300 298 296 296 295 295 294 292 292 291 290 289 289 288 287 286 286 286 285 285 285 285 284 284 284 283 280
296 298 302 303 305 307 306 309 313 315 314 313 309 298 295 295 296 295 295 294 294 294 293 292 291 290 289 289 288 287 287 286 285 285 285 285 285 284 283 283 283 282 281
296 298 302 302 304 304 308 310 314 314 306 303 297 295 293 292 293 293 293 293 293 294 292 290 291 290 288 287 286 286 286 285 285 285 285 285 287 283 283 282 281 281 281
298 300 301 301 303 308 311 312 313 304 299 295 293 292 292 293 293 292 293 293 292 291 292 290 289 287 287 287 286 286 285 286 285 285 284 284 283 282 282 281 281 281 284
299 300 300 300 302 309 309 307 302 299 295 292 291 292 293 293 292 292 292 291 291 290 289 288 287 287 287 286 286 287 286 286 286 286 285 284 283 282 281 282 281 282 281
300 300 299 299 304 306 303 300 298 294 292 291 291 292 292 292 291 291 290 291 290 288 288 286 286 287 286 287 286 287 286 285 284 284 285 284 286 289 288 285 281 281 281
300 299 299 300 301 298 295 294 293 292 292 291 290 291 290 290 289 289 289 288 288 287 287 286 287 286 286 288 288 288 285 284 283 282 283 283 287 286 289 289 289 287 283
299 298 299 294 292 291 291 288 288 290 290 290 290 290 290 289 289 289 288 287 286 285 285 284 285 284 285 287 287 288 284 283 282 282 282 282 285 285 282 286 288 287 288
299 298 293 291 290 290 289 289 289 289 288 289 288 288 288 288 288 287 287 286 286 285 284 284 284 284 285 286 286 287 283 281 281 282 281 281 281 282 284 283 279 281 282
294 292 289 288 288 288 289 288 288 287 288 287 287 287 288 287 287 286 285 284 284 283 283 284 283 282 281 285 285 285 281 281 279 281 281 282 281 286 288 284 280 281 281
289 288 288 288 288 288 289 288 287 288 287 288 288 289 289 287 286 284 283 283 284 283 283 282 281 284 280 285 286 285 281 278 279 280 281 286 285 287 288 284 282 280 279
290 290 290 289 290 291 291 289 289 287 288 289 288 287 286 284 285 284 284 283 282 282 281 280 280 280 281 280 286 286 281 280 280 280 280 280 286 287 287 287 281 280 282
292 292 291 291 292 292 290 286 285 286 286 285 284 284 285 286 285 283 282 281 281 279 279 279 278 279 279 285 285 286 286 285 281 279 279 280 286 286 286 284 285 285 284
288 289 289 288 287 286 285 283 283 284 284 284 284 284 284 284 284 282 281 280 280 278 278 277 276 277 278 278 285 285 286 285 282 281 283 285 285 284 282 283 284 283 277
288 287 286 284 283 284 284 283 284 285 284 283 282 281 280 281 281 281 281 279 278 277 276 276 275 275 276 277 278 280 279 283 282 283 280 282 282 282 281 279 278 277 277
286 285 283 282 281 282 282 284 285 284 282 281 281 280 281 280 279 279 278 277 278 279 277 276 276 275 275 278 283 282 280 281 283 282 277 276 275 275 276 276 276 276 277
284 282 282 282 282 283 284 284 284 283 281 279 279 279 278 278 277 277 277 283 282 282 282 281 279 278 281 283 283 283 284 284 283 277 274 274 274 274 274 275 275 275 276

GFSMW_sfc_thetae_045.txt.gz
Theta_e
306 306 306 306 305 306 308 313 314 327 333 331 333 334 331 332 333 333 331 329 322 318 314 310 305 302 300 298 296 294 292 291 291 292 292 293 293 294 293 294 293 293 293
300 303 304 304 306 308 308 307 313 318 325 328 331 331 328 325 329 332 331 326 318 315 310 306 303 300 298 296 295 294 292 291 290 289 291 289 290 292 293 293 293 291 291
300 301 301 302 302 304 306 309 310 314 315 316 320 316 317 316 317 321 320 315 312 310 309 303 301 297 297 295 294 294 294 291 290 289 289 287 286 285 289 290 290 288 288
298 298 299 299 300 301 305 308 310 312 314 317 320 321 321 322 315 313 308 308 308 307 307 303 302 298 297 295 294 294 293 293 290 291 291 286 286 284 282 286 287 287 288
298 299 299 301 301 300 301 305 308 310 313 317 321 322 321 311 309 308 305 306 306 306 305 304 304 299 298 294 293 292 291 292 291 290 287 285 286 284 283 281 283 285 286
296 297 298 299 299 300 300 303 307 308 310 316 321 322 312 307 305 303 302 302 303 302 302 302 301 301 299 296 295 290 290 289 289 288 287 285 284 283 282 280 280 281 283
294 295 295 298 298 298 300 302 304 308 311 316 321 317 312 310 307 303 302 299 299 299 299 299 298 298 296 296 294 290 289 288 288 287 286 286 285 285 284 282 281 280 282
293 296 295 297 299 301 301 301 302 307 313 318 317 313 308 307 305 304 302 301 300 299 300 298 297 296 296 296 292 290 289 288 287 286 286 286 286 286 284 283 281 278 279
293 293 298 300 301 302 303 303 302 310 316 317 313 306 305 304 302 301 300 301 299 298 297 296 295 295 295 294 291 290 287 287 287 287 286 286 286 285 285 284 283 280 277
294 297 300 301 302 302 303 304 303 311 315 314 307 304 303 301 299 299 297 295 296 297 295 295 294 295 293 291 290 287 286 287 286 287 286 285 285 285 284 283 283 282 279
295 295 299 301 301 302 303 303 304 311 312 309 304 302 300 298 298 297 296 296 295 294 294 293 292 291 290 289 288 287 287 286 285 286 285 286 285 284 283 282 282 281 279
295 298 300 300 301 301 303 305 308 308 305 300 298 297 296 295 294 295 295 294 293 293 293 292 291 290 289 288 288 286 285 285 285 285 285 285 286 283 282 281 281 280 280
296 298 299 299 300 301 307 305 301 297 298 295 295 294 293 293 292 291 293 293 293 292 292 292 291 290 289 287 286 285 285 286 285 285 285 284 283 282 281 281 280 280 282
299 298 298 300 301 304 300 298 295 295 293 294 293 292 292 292 292 292 292 292 292 291 291 289 288 288 287 287 287 286 286 285 286 286 285 284 283 281 281 281 280 281 279
299 298 298 300 300 299 296 293 294 294 294 294 293 292 293 293 292 291 291 291 291 290 289 289 288 287 286 287 287 287 286 285 285 284 284 284 285 289 287 284 281 280 279
299 298 299 295 293 295 294 292 293 293 293 292 291 291 291 291 290 290 289 288 288 287 287 286 287 286 288 290 290 288 286 284 283 282 282 282 286 285 288 288 289 287 282
300 297 290 288 289 291 290 291 290 290 290 289 289 289 289 288 288 288 288 288 287 288 287 286 286 284 286 289 288 288 284 282 281 280 280 281 284 284 281 285 288 287 288
297 292 289 288 288 288 289 289 289 289 288 288 288 288 288 288 288 288 287 287 286 285 285 284 284 284 286 288 287 287 281 281 280 280 280 279 279 281 284 282 280 281 281
287 287 287 287 288 288 288 288 287 288 288 287 288 288 288 288 287 287 287 286 286 284 283 283 283 281 283 287 286 284 281 280 279 281 281 282 281 285 288 283 279 280 281
288 287 288 288 287 288 288 287 287 287 287 287 287 288 288 288 286 286 285 284 284 283 283 282 281 284 279 285 286 284 281 278 279 279 280 285 284 287 287 284 281 280 279
289 290 290 288 289 290 289 287 287 286 288 289 289 289 288 287 286 285 283 283 283 282 280 279 279 279 281 280 286 286 281 280 279 279 279 279 285 287 287 287 280 280 282
290 290 288 287 288 290 289 288 286 288 287 287 286 285 285 285 284 283 282 281 280 278 277 278 278 278 278 285 285 286 286 285 280 279 278 279 285 285 285 283 284 285 283
289 289 287 286 287 288 290 287 285 286 285 284 284 284 284 284 282 280 279 278 278 278 276 276 275 276 277 277 283 284 285 285 281 280 283 285 284 283 280 282 283 282 276
287 287 286 285 284 284 284 284 284 285 284 283 282 281 280 280 280 280 279 277 276 275 275 275 274 274 275 277 278 280 279 282 281 282 279 281 280 280 280 278 278 277 276
285 284 282 281 281 283 283 284 284 284 282 281 280 279 279 278 276 277 276 277 277 277 275 275 276 275 275 278 283 282 281 281 282 281 276 275 275 275 275 275 276 276 276
283 282 282 282 283 283 283 284 284 283 280 278 278 277 276 276 275 275 275 283 283 283 282 281 280 278 281 283 283 284 284 283 282 275 273 273 274 273 274 274 274 275 275

GFSMW_sfc_thetae_048.txt.gz
Theta_e
304 303 304 304 304 304 304 308 319 329 332 333 332 330 329 329 330 329 327 325 322 319 317 313 307 302 301 298 295 293 292 290 290 291 292 293 292 292 292 293 291 292 292
300 301 303 304 304 305 304 304 309 321 330 334 334 333 331 327 330 329 328 327 322 319 317 312 306 301 298 296 294 294 292 290 289 289 290 289 291 293 292 292 293 290 290
300 301 299 301 301 302 304 306 307 312 326 332 327 319 320 319 320 322 324 326 321 319 315 309 305 301 300 296 294 293 293 290 289 290 290 288 288 286 290 289 289 288 288
297 299 299 299 300 301 302 304 306 308 313 316 322 327 325 323 321 327 319 314 313 317 312 306 303 303 300 295 294 294 293 291 289 289 290 287 287 285 284 287 287 286 287
295 296 297 299 300 299 299 300 304 306 309 313 320 323 325 325 315 312 310 310 311 312 309 307 305 301 299 298 299 298 295 292 291 291 287 286 286 284 283 283 284 286 286
293 295 296 297 297 297 298 297 300 303 306 310 315 321 319 311 311 308 307 306 306 307 307 305 302 301 300 300 299 295 295 293 291 289 286 285 284 284 283 281 281 281 283
293 294 294 296 297 297 300 300 300 302 304 306 313 316 317 313 312 309 308 303 303 302 304 305 302 300 301 299 295 293 293 292 290 286 286 285 285 285 284 283 281 281 282
292 292 294 296 299 301 301 301 302 302 302 305 313 317 316 314 312 310 306 306 304 301 302 300 300 298 296 295 294 293 292 291 289 287 287 285 286 285 284 283 281 279 280
295 293 297 298 299 300 301 301 303 303 303 308 313 308 310 309 307 303 303 302 302 301 299 299 298 297 296 295 294 292 291 289 289 288 285 285 285 284 284 284 283 280 277
297 296 297 299 300 300 301 302 303 302 303 311 306 305 305 305 303 303 303 301 302 299 298 296 295 294 294 293 292 290 289 288 288 286 284 284 284 284 283 283 282 281 279
298 297 294 298 300 300 301 302 303 302 308 305 302 301 300 301 302 301 300 300 299 296 296 295 294 293 291 291 290 289 288 287 287 285 284 285 284 284 282 282 282 281 279
297 297 297 300 300 299 301 305 304 307 305 303 300 299 298 299 299 298 298 296 294 296 295 293 291 291 290 289 288 288 287 287 286 285 284 285 286 283 282 282 281 279 279
299 297 297 299 299 300 304 300 299 298 297 297 296 296 296 297 296 296 293 293 293 292 292 291 290 290 290 290 289 288 287 286 286 286 286 284 284 283 282 281 280 279 282
300 297 299 299 299 300 296 293 293 296 294 296 296 294 293 293 293 293 293 292 292 291 291 291 291 290 289 288 288 287 287 287 287 286 286 285 284 282 282 282 281 280 279
300 297 297 295 296 292 291 291 293 295 296 294 293 292 292 292 292 292 291 291 290 290 289 289 289 289 288 288 288 288 287 286 285 284 284 284 285 289 287 284 281 280 280
299 298 291 290 290 289 290 291 293 294 296 294 293 292 291 290 290 289 290 290 289 288 288 287 287 288 290 292 291 288 285 284 282 282 282 282 284 284 288 289 289 287 281
298 292 289 288 289 289 289 289 291 292 291 291 290 289 289 288 288 288 288 287 287 288 287 287 287 286 287 290 290 288 283 282 281 280 280 280 283 283 281 285 288 287 288
288 286 285 285 287 289 289 290 290 289 289 288 288 289 289 289 289 288 288 288 288 287 286 285 285 286 287 289 288 287 282 280 280 280 280 279 280 281 284 282 280 281 281
287 287 288 287 287 287 288 288 288 288 288 287 288 288 289 288 287 286 285 286 285 285 285 285 284 285 285 288 287 285 280 279 279 280 280 281 281 285 287 283 280 280 280
287 287 287 288 287 287 288 288 287 287 287 288 288 289 288 286 286 286 285 285 285 284 284 283 281 283 279 286 286 284 280 278 279 279 280 284 283 286 287 284 280 277 277
289 289 289 288 288 289 289 288 287 286 287 287 287 288 288 286 285 285 285 285 284 282 280 278 278 278 280 279 286 287 280 280 280 279 279 280 285 286 287 286 278 279 281
289 289 287 287 288 290 288 286 285 287 287 287 287 286 286 287 286 284 282 281 279 278 276 277 277 277 277 284 285 285 285 285 280 279 279 279 285 285 284 282 283 284 283
288 288 287 286 286 289 288 285 286 287 286 286 285 284 284 283 281 280 278 276 277 276 275 275 274 275 277 276 283 284 285 284 281 280 282 284 283 282 279 281 283 282 275
289 289 288 285 285 287 287 286 286 286 285 282 281 281 279 279 278 279 278 276 275 274 274 275 274 274 275 276 278 279 278 282 281 282 277 280 279 280 279 278 277 276 276
285 284 282 282 282 283 283 283 283 282 280 279 279 278 278 277 276 276 276 276 275 276 275 275 276 274 274 278 282 282 280 280 281 278 275 274 274 274 274 275 275 275 275
283 282 282 282 282 283 283 283 282 281 279 278 277 277 276 275 275 275 275 283 283 283 282 282 280 278 282 283 283 283 283 282 282 275 273 272 273 273 273 273 273 274 275

GFSMW_sfc_thetae_051.txt.gz
Theta_e
303 301 303 303 303 303 302 305 314 326 331 333 332 331 331 330 329 330 329 325 323 320 320 315 308 306 304 301 297 293 292 291 290 291 291 292 291 290 291 291 291 292 292
298 299 301 302 302 304 303 302 306 319 330 332 333 331 331 331 331 329 327 325 323 320 319 315 310 306 301 296 295 294 291 290 290 290 289 289 290 290 291 291 292 291 291
299 300 298 300 300 301 303 305 304 307 322 332 331 321 322 320 321 321 323 323 323 321 320 316 312 305 304 300 297 295 294 290 288 288 291 287 288 286 287 288 288 288 288
296 297 298 298 298 300 301 303 304 305 309 321 325 328 326 323 325 327 328 321 320 320 319 316 310 308 305 303 303 301 298 293 289 289 289 288 289 286 283 285 286 285 286
293 295 296 297 299 299 298 299 300 302 305 310 324 327 326 323 322 324 324 311 313 318 314 311 309 307 306 305 302 301 300 296 292 289 288 286 285 286 284 282 283 285 285
293 294 294 295 296 296 296 297 298 299 302 306 312 321 325 315 314 313 317 311 310 312 311 310 309 308 304 301 302 302 300 296 295 293 290 288 287 285 283 281 280 281 283
294 296 293 293 296 297 297 298 298 299 300 302 306 313 317 316 316 316 316 312 308 306 306 306 304 304 304 303 300 298 295 294 293 292 288 286 287 284 284 282 280 280 281
294 295 295 296 297 298 300 300 300 301 302 301 302 308 313 317 318 315 314 313 312 312 307 304 303 303 302 299 296 294 293 292 291 289 288 288 287 286 285 283 281 278 278
296 296 295 298 299 299 299 299 300 301 302 302 303 308 311 312 313 311 308 307 304 304 303 302 301 298 296 295 293 292 291 291 291 289 289 287 287 286 284 283 282 281 277
297 297 296 295 297 299 299 299 301 301 302 302 305 307 307 308 306 303 301 301 301 302 302 300 299 296 294 293 292 290 290 289 289 290 288 286 286 285 284 283 282 282 280
298 297 298 297 297 299 299 299 302 303 303 305 303 301 299 299 300 300 300 301 299 300 300 298 296 294 292 292 290 290 289 288 287 287 286 286 286 285 284 283 282 282 279
297 297 297 295 296 298 299 302 303 303 303 300 298 297 297 298 297 297 298 300 298 298 296 295 293 292 291 290 289 288 288 287 287 286 286 286 286 285 284 284 282 281 280
299 303 299 297 298 297 299 296 295 295 295 296 295 295 295 297 299 299 297 297 296 294 294 292 290 289 289 289 289 288 288 288 287 287 286 286 286 285 284 283 280 280 282
300 301 299 297 295 294 293 292 293 295 295 295 296 296 296 297 296 295 295 295 292 291 290 291 291 290 290 290 289 288 288 287 288 288 287 285 285 284 283 281 281 281 279
293 295 295 292 290 289 289 291 292 293 294 293 293 293 293 293 292 291 291 291 291 290 289 289 288 289 289 289 288 288 287 286 286 285 284 284 285 288 287 284 281 280 279
292 295 289 287 286 286 287 289 290 290 292 292 290 291 290 290 290 289 290 290 289 289 289 288 288 289 290 292 291 287 285 284 283 283 282 282 283 285 287 288 289 287 281
288 286 286 285 285 286 288 287 288 289 289 289 289 289 289 289 289 289 289 288 288 288 287 288 288 288 288 291 290 288 284 283 280 280 280 281 283 282 281 284 287 287 288
286 286 286 286 287 289 289 290 290 289 289 289 289 289 289 289 289 288 288 288 288 287 286 286 285 285 288 290 290 287 282 281 281 280 279 279 279 281 283 282 281 282 281
287 287 287 287 287 287 288 289 288 289 289 288 289 289 289 288 288 286 285 285 285 285 285 285 285 285 286 289 289 285 281 280 279 280 279 280 280 284 287 283 280 281 280
287 287 288 288 288 288 289 288 288 288 287 288 288 289 289 287 286 285 285 285 285 285 285 284 283 285 281 287 286 285 279 277 279 279 280 283 283 286 287 284 280 276 277
289 289 289 288 289 289 289 287 286 285 287 288 288 288 287 286 285 285 285 284 284 282 280 278 277 278 281 280 287 287 280 280 280 279 278 279 285 286 286 286 278 278 281
288 288 288 288 289 289 288 286 285 287 287 287 286 286 287 288 286 285 283 280 278 277 276 275 275 276 276 283 284 285 285 284 280 279 278 279 285 285 284 282 283 284 283
287 287 287 287 288 289 288 285 287 288 287 286 286 285 285 283 280 278 277 275 275 275 275 274 274 275 277 276 283 284 285 284 281 280 282 283 283 282 279 281 283 282 275
288 289 287 287 286 288 288 287 287 287 285 282 279 279 278 277 277 277 277 275 274 273 274 274 274 273 275 276 277 279 278 282 281 280 276 279 279 279 279 277 277 276 276
287 283 284 284 284 286 285 285 282 280 279 278 278 277 276 276 275 276 275 275 274 275 274 274 275 274 274 278 282 282 280 279 280 278 274 273 273 273 274 274 275 275 275
282 282 283 283 282 281 280 280 281 280 278 277 276 276 275 274 275 275 275 284 283 284 283 283 280 278 281 283 283 283 283 282 282 275 272 271 272 272 273 273 273 273 274

GFSMW_sfc_thetae_054.txt.gz
Theta_e
302 301 301 302 302 302 302 303 306 322 333 335 334 334 332 333 333 330 331 327 324 321 321 320 316 313 310 306 300 294 293 291 291 291 291 291 291 290 291 292 290 292 291
298 299 299 299 300 302 301 301 303 310 324 333 334 333 334 333 333 330 330 329 323 321 320 319 315 311 307 301 298 295 292 290 291 291 290 289 290 290 290 290 290 289 290
295 297 296 297 298 299 301 302 302 304 318 329 331 321 322 322 328 324 326 326 323 321 321 318 315 310 307 303 301 298 297 292 291 289 292 287 289 287 287 288 289 288 287
291 293 294 295 296 297 298 300 302 303 306 321 327 327 327 325 326 328 327 325 323 321 321 318 314 310 307 304 302 303 304 302 295 292 290 286 288 287 284 285 285 285 286
292 294 293 294 296 296 296 298 300 302 304 307 322 326 325 326 320 322 323 323 320 322 321 317 313 309 307 306 304 302 300 301 297 293 291 288 287 285 287 283 285 285 284
295 297 297 296 295 296 296 295 296 298 300 302 309 322 325 321 316 316 319 313 315 317 318 316 312 309 307 305 304 302 302 299 297 295 292 292 290 287 286 283 284 284 283
295 296 296 296 297 298 298 300 299 298 298 298 301 309 318 318 318 319 321 318 314 316 314 314 312 308 306 305 304 302 302 299 295 293 291 290 289 289 287 284 283 283 282
296 296 296 295 296 297 298 298 298 299 299 299 299 301 306 313 317 316 318 317 315 315 314 313 310 306 305 303 303 302 297 294 292 290 289 288 289 289 287 286 284 279 281
296 296 296 296 295 296 297 297 298 299 300 300 300 300 303 307 312 312 312 313 309 308 308 306 306 306 304 302 300 295 292 292 291 291 290 289 288 287 287 287 284 284 278
296 297 297 297 296 296 297 299 299 300 302 302 301 302 303 306 308 305 304 302 301 303 303 303 303 302 300 297 295 292 291 290 290 289 288 288 287 287 286 286 285 284 281
297 296 296 297 297 297 298 298 300 300 302 303 301 300 299 299 300 299 298 299 299 300 300 300 300 298 297 295 292 291 290 289 289 288 288 287 287 286 285 285 285 284 283
297 297 299 297 298 297 297 297 294 295 296 298 297 296 300 300 298 298 297 299 300 300 300 298 296 294 293 292 290 289 289 288 287 287 287 286 288 286 286 286 285 284 283
297 296 297 296 295 293 292 292 292 292 294 295 295 295 298 299 299 300 299 299 298 296 295 294 292 290 290 289 289 288 288 288 288 288 288 288 287 286 286 285 284 283 283
292 292 294 292 289 289 290 291 291 292 292 293 296 297 298 298 296 296 296 295 294 292 291 290 290 290 290 290 290 289 288 288 288 288 287 286 286 285 285 284 283 282 281
289 290 289 286 286 287 288 289 290 290 291 291 291 291 292 293 292 291 291 291 290 290 290 289 289 290 290 290 289 289 288 287 285 285 284 284 285 287 287 286 282 280 280
288 287 287 285 288 285 286 288 289 288 289 289 289 290 290 291 290 290 290 289 289 289 289 289 290 290 291 293 292 289 286 286 284 283 283 283 284 285 286 287 288 286 281
287 284 284 286 288 289 289 288 289 290 289 289 289 290 290 289 289 289 289 289 288 289 288 289 290 290 291 294 292 289 285 283 282 281 281 281 283 282 281 284 287 286 288
286 285 285 287 288 289 290 290 290 290 290 289 289 290 290 289 289 289 288 288 288 287 287 286 286 285 288 291 289 286 282 281 281 281 280 280 279 280 282 281 280 281 281
287 286 287 287 288 288 289 289 289 289 289 287 288 289 288 287 287 286 285 285 285 285 285 285 285 285 287 290 289 284 281 279 279 280 279 280 279 284 286 282 281 281 280
288 287 288 289 288 289 289 288 287 287 287 288 288 289 288 287 286 285 285 285 285 285 285 284 284 286 281 287 288 283 279 277 279 278 279 283 282 286 287 284 279 276 276
288 289 289 288 288 289 289 287 287 286 288 288 288 287 287 285 285 285 285 285 284 281 279 279 278 279 281 283 288 286 280 280 280 279 278 279 285 286 286 285 277 278 281
287 288 288 288 289 289 288 287 285 288 288 287 286 286 286 287 287 284 282 279 278 277 275 275 275 276 275 284 285 285 285 284 280 279 278 279 284 284 283 281 283 284 282
287 287 288 287 288 289 288 286 287 288 287 287 286 285 282 280 279 277 276 275 274 274 273 273 273 274 277 276 284 284 284 284 280 280 281 282 281 281 278 281 282 281 275
287 288 288 287 287 288 288 288 288 288 284 280 278 277 277 276 276 276 276 274 273 273 273 274 273 273 275 276 277 279 278 281 280 279 275 278 278 279 278 277 276 275 275
287 286 286 286 286 287 287 286 282 280 278 277 277 275 275 275 275 275 275 275 273 274 273 274 275 274 274 278 282 281 280 278 280 277 274 273 273 273 273 274 274 274 274
282 284 285 284 284 284 281 279 280 279 277 276 276 275 274 274 275 275 275 284 283 284 284 283 280 279 281 283 283 282 282 281 281 274 271 271 271 272 272 272 272 273 273

GFSMW_sfc_thetae_057.txt.gz
Theta_e
303 305 306 307 307 308 307 308 310 320 337 336 335 333 333 334 333 334 335 333 330 329 329 329 328 327 326 324 319 311 305 301 300 299 299 300 300 299 302 304 303 302 301
297 298 301 303 304 305 306 307 307 310 321 335 336 336 335 336 335 334 333 335 331 329 328 328 326 325 324 321 314 308 302 301 300 300 300 298 298 298 298 299 299 300 299
295 297 296 299 301 301 304 305 307 308 312 327 335 332 333 331 333 332 331 331 331 329 328 327 326 323 323 318 313 308 306 301 298 300 302 296 298 296 295 296 297 297 297
298 299 298 299 299 300 302 303 305 307 308 317 329 330 329 328 330 332 333 331 331 328 326 326 325 322 321 318 312 308 309 306 300 296 295 295 298 295 292 292 294 294 294
298 299 300 299 300 302 302 301 301 303 306 309 323 329 329 330 332 331 331 331 328 328 326 326 324 321 318 318 313 309 308 308 305 302 295 293 291 291 292 290 290 291 292
299 300 301 301 302 303 304 305 303 302 302 305 309 323 328 329 327 326 327 328 326 326 326 325 324 322 318 314 312 311 309 307 307 303 297 295 294 293 290 289 288 288 290
299 300 300 300 301 302 302 303 303 303 304 304 303 307 315 324 325 326 326 326 321 320 322 323 321 319 317 315 313 310 308 307 304 300 295 295 293 292 291 289 285 287 286
299 300 300 300 301 301 302 302 302 303 304 305 305 305 306 311 319 323 325 325 324 323 323 321 321 318 315 311 309 308 307 306 302 297 295 293 292 291 291 290 287 284 285
298 300 300 300 301 301 301 301 302 304 306 306 307 307 306 307 310 315 320 323 322 319 319 318 315 313 311 310 308 307 304 303 297 293 292 291 291 290 290 290 289 289 285
300 300 300 301 302 302 302 302 303 303 303 305 306 306 307 308 309 311 313 315 313 313 312 311 308 308 307 306 305 301 298 293 292 291 290 289 288 288 289 288 287 287 285
299 299 300 301 300 300 299 299 298 298 299 301 302 302 303 304 305 307 307 308 307 307 307 306 304 302 300 298 296 294 293 292 290 290 288 287 288 287 287 288 287 286 286
297 295 296 297 294 294 295 295 296 297 298 299 300 301 302 303 304 303 302 303 304 304 303 302 300 297 295 294 292 291 291 290 288 288 288 287 289 287 287 287 286 286 286
293 294 294 291 291 292 293 294 294 294 295 297 299 301 301 300 300 300 301 301 301 300 298 296 293 292 292 291 290 289 289 289 289 289 289 288 289 287 287 286 285 285 285
290 290 289 288 289 290 291 291 292 292 292 293 294 295 296 296 295 295 294 293 293 291 291 291 290 290 290 290 290 290 289 289 289 289 288 287 286 285 285 285 285 285 283
289 287 287 287 288 288 289 290 290 291 291 291 291 291 292 293 292 292 292 292 292 292 291 290 290 291 290 291 290 290 289 287 286 285 285 285 286 287 287 286 286 285 284
288 286 286 287 288 289 289 290 290 290 291 290 290 290 291 291 291 291 291 292 291 292 292 292 291 291 292 294 293 290 287 286 285 284 284 284 286 286 286 286 287 287 285
287 286 285 286 288 290 290 290 290 291 290 290 290 290 290 289 289 290 290 289 290 291 291 291 291 292 293 294 293 290 286 284 283 283 283 283 284 284 284 285 286 286 287
287 286 286 287 288 290 290 291 291 290 290 289 289 289 289 289 288 288 288 288 288 288 287 286 286 287 290 290 289 287 284 283 283 282 282 282 283 283 285 284 285 285 285
286 287 288 288 288 289 290 290 289 290 289 288 289 289 288 288 287 285 285 285 285 285 285 285 286 286 288 289 288 284 282 282 281 282 282 284 283 284 286 285 283 283 283
288 288 289 289 289 289 289 288 288 288 287 288 288 289 289 287 286 285 285 285 285 284 285 284 286 287 285 289 289 284 282 281 282 282 282 283 284 286 286 285 282 280 281
288 290 289 288 288 289 289 287 288 287 288 288 288 288 287 285 286 285 285 284 282 281 281 280 280 282 285 287 288 286 283 283 282 281 281 282 284 285 285 284 281 281 284
287 289 288 288 289 290 289 287 286 288 289 288 287 286 287 287 285 282 280 280 279 278 278 278 278 279 280 285 286 286 285 285 282 281 282 282 283 283 282 282 283 284 282
287 287 288 288 288 289 288 287 287 288 288 286 283 281 280 280 280 279 279 278 278 277 276 276 277 278 279 280 284 285 284 284 282 282 282 282 281 280 280 281 282 281 278
287 288 287 287 287 289 289 288 288 288 284 280 279 279 278 278 277 278 278 277 276 276 276 277 276 277 278 279 281 282 281 282 281 280 279 279 279 279 279 278 278 278 278
288 289 288 288 287 288 288 286 284 282 280 279 278 278 278 278 278 278 278 277 276 278 277 277 278 277 278 280 283 282 281 281 281 278 276 276 276 276 276 277 277 277 277
285 287 287 287 286 286 284 281 281 281 279 277 277 278 278 278 279 279 279 284 284 284 283 282 281 280 282 283 283 282 282 281 280 276 274 274 275 275 275 275 275 276 276

GFSMW_sfc_thetae_060.txt.gz
Theta_e
309 309 309 311 312 314 316 317 317 319 325 334 336 336 335 336 336 337 341 341 339 337 336 335 334 333 332 332 332 330 322 317 318 310 308 307 307 306 308 310 310 308 308
303 304 305 306 308 309 312 314 315 317 318 324 335 337 338 337 338 337 338 338 339 338 337 335 334 333 331 330 331 329 320 319 314 313 313 308 306 304 305 307 307 307 306
303 305 306 306 307 307 308 310 312 314 316 318 325 333 336 338 337 338 338 337 336 338 338 336 336 334 333 330 331 328 320 315 311 314 315 309 309 304 304 303 305 304 304
306 306 307 308 308 310 310 308 309 310 312 315 317 324 328 328 332 333 336 337 336 334 334 334 336 335 333 330 329 326 323 321 311 308 307 306 308 305 299 299 301 302 300
306 307 307 308 309 310 311 312 310 308 310 312 315 320 325 327 330 332 333 334 336 334 331 332 332 331 332 330 327 323 321 322 318 311 306 304 301 301 301 300 295 297 299
307 309 309 309 310 312 312 312 311 310 310 309 312 315 320 325 327 329 331 333 334 331 330 330 330 331 329 327 327 324 321 320 321 313 308 305 304 301 299 300 297 295 294
307 308 307 308 309 310 311 310 310 310 311 312 310 310 312 318 325 327 328 329 330 329 327 328 327 327 327 326 325 323 320 319 316 313 308 305 299 297 296 296 293 293 289
307 307 307 308 309 310 310 310 310 310 312 312 313 313 312 312 314 317 322 325 326 329 330 326 326 325 324 323 321 320 318 318 316 312 308 301 296 294 294 295 291 290 286
306 306 307 307 308 308 308 309 308 310 310 311 312 313 314 314 314 315 316 320 323 326 328 326 323 323 320 318 315 314 313 312 311 306 301 298 293 293 293 292 293 295 287
304 304 304 305 305 305 305 307 307 306 307 309 310 311 312 312 313 315 316 317 319 320 320 320 319 316 314 312 310 310 309 307 301 297 292 291 290 290 290 289 289 290 288
302 302 303 303 302 303 303 303 304 304 305 307 308 309 309 309 309 309 310 311 312 313 313 314 311 310 308 308 304 301 299 296 294 293 293 288 289 288 289 289 289 288 289
299 301 300 299 300 300 301 301 301 301 302 305 307 307 308 309 309 308 308 308 308 308 309 308 306 304 302 299 296 294 292 291 290 290 289 288 289 289 289 289 288 288 287
298 298 297 297 297 298 298 298 298 298 299 301 302 303 303 303 302 302 301 302 303 302 302 301 299 296 295 293 292 291 290 290 290 290 289 289 289 288 288 287 286 286 286
295 295 295 295 296 296 296 296 296 296 297 298 298 297 296 295 294 295 295 294 294 293 292 293 293 292 292 291 290 290 290 290 290 290 290 289 288 287 286 287 287 286 285
293 293 293 294 295 295 296 296 296 295 296 296 295 294 294 293 292 293 293 293 293 292 292 291 291 291 291 291 291 290 290 288 287 287 287 286 287 289 288 287 287 287 286
290 291 291 293 294 295 295 296 295 295 295 293 292 293 292 292 291 292 293 292 292 293 292 292 293 292 293 294 293 290 287 287 285 284 285 286 287 288 288 288 288 288 286
290 290 291 291 293 294 294 294 294 295 294 293 292 292 291 290 290 290 289 289 290 290 290 290 290 291 292 294 293 290 285 284 284 285 285 285 286 285 285 285 286 287 287
290 289 291 291 292 293 294 294 294 292 291 290 290 290 289 289 289 289 288 288 288 287 287 286 285 286 289 290 289 287 286 285 285 285 285 285 284 284 285 285 286 286 287
290 290 290 290 292 292 293 293 292 291 290 289 289 290 290 288 288 287 286 285 285 285 285 285 286 287 287 288 287 286 285 284 284 284 285 285 284 284 286 286 285 285 285
291 291 291 290 290 290 292 292 290 289 288 289 289 289 289 287 286 285 285 286 286 285 286 285 288 289 289 289 286 285 285 284 284 284 284 284 285 285 286 286 284 282 282
291 291 291 289 290 291 291 289 289 288 289 289 289 289 288 287 287 286 286 286 285 284 285 284 285 287 288 288 287 286 285 284 283 283 283 284 284 285 284 284 284 282 284
290 291 290 290 291 291 290 288 287 289 289 289 288 288 289 288 286 285 285 285 284 283 282 282 282 283 285 286 286 286 285 285 283 282 283 283 283 282 282 283 283 284 284
289 290 289 288 289 290 291 288 288 289 289 289 286 285 285 284 285 284 284 283 283 283 281 281 281 281 283 284 284 284 284 284 283 283 283 282 281 281 281 281 282 282 282
289 290 289 289 288 290 290 290 289 290 288 285 284 284 284 283 283 283 283 282 282 281 281 281 280 281 282 283 284 284 284 283 282 281 282 280 280 279 280 281 281 281 281
290 290 290 290 289 290 290 290 290 288 285 284 284 283 283 283 283 283 283 282 282 282 281 281 281 281 281 282 284 283 283 283 282 281 279 279 279 280 280 280 280 280 280
290 291 291 290 290 290 288 289 288 286 284 283 283 283 283 283 284 284 284 285 285 284 283 282 282 282 282 283 283 282 282 281 281 278 278 279 279 279 279 279 279 280 280

GFSMW_sfc_thetae_063.txt.gz
Theta_e
310 312 312 313 314 315 316 317 318 319 320 326 331 339 337 337 337 341 343 343 341 339 339 338 336 335 333 333 333 330 329 325 324 319 313 313 312 310 311 313 312 311 311
307 308 307 308 309 311 313 315 317 318 319 321 325 338 337 336 337 339 339 341 342 341 339 338 337 336 334 333 332 329 327 325 323 315 313 309 308 308 308 309 310 310 309
305 306 307 308 309 310 311 311 313 316 318 321 321 325 336 338 338 339 337 338 337 340 341 339 337 337 335 332 332 331 327 323 320 317 316 311 310 305 307 306 307 307 306
306 307 308 309 309 311 314 311 311 312 314 317 317 318 322 327 332 333 336 337 339 337 335 338 337 336 335 333 332 331 329 325 318 314 316 318 311 307 299 304 304 305 304
308 308 309 310 312 313 314 314 313 311 312 313 314 315 317 323 329 330 330 332 335 338 335 332 333 332 333 332 333 330 330 325 321 313 313 312 307 305 303 298 297 301 302
308 310 310 311 312 314 314 314 312 312 313 312 312 313 316 319 323 326 327 330 332 335 336 331 331 331 331 330 329 330 327 325 323 317 315 310 307 303 302 303 299 297 297
308 309 309 310 311 312 313 313 313 312 313 314 314 312 312 315 318 322 326 327 328 330 332 330 329 328 328 328 327 326 325 323 321 321 314 311 310 306 305 303 294 294 291
308 308 309 310 311 311 312 312 311 311 312 312 313 314 315 313 313 314 317 320 323 325 328 331 327 327 327 326 325 324 323 320 320 319 318 312 302 300 298 298 295 292 288
306 307 307 308 309 308 308 309 309 309 310 311 312 313 314 314 315 316 316 316 317 320 323 326 326 323 324 324 322 320 318 317 317 315 308 301 297 296 295 294 295 295 286
306 305 306 306 305 305 306 307 307 307 308 309 310 311 312 312 312 313 314 315 316 317 318 320 319 320 320 318 316 314 313 311 307 300 298 294 294 293 292 292 292 291 290
303 304 304 304 304 305 305 305 305 305 306 308 309 310 310 311 311 311 311 311 311 313 313 313 313 314 313 311 309 306 306 299 296 295 296 292 292 291 290 291 291 290 290
301 302 302 301 302 302 302 302 302 302 302 305 306 306 306 306 305 304 304 305 306 307 307 308 308 307 304 303 299 298 295 293 294 291 291 290 292 291 291 291 290 289 288
300 300 300 299 300 300 300 300 300 300 300 301 302 301 300 299 299 298 298 297 297 296 296 297 297 296 296 295 295 292 291 291 290 290 290 290 291 289 290 288 287 287 287
298 299 299 299 299 299 299 299 298 299 299 299 299 297 297 296 295 295 295 295 294 293 292 292 292 292 292 292 291 291 291 291 291 291 291 291 290 288 287 286 286 287 286
296 296 297 298 298 298 299 299 298 298 298 297 296 295 295 295 295 294 294 294 294 293 293 292 292 292 292 292 291 290 289 288 287 287 287 288 289 290 289 288 287 286 286
294 293 294 296 296 297 297 298 297 297 297 295 294 294 294 293 292 292 292 292 292 291 291 292 292 292 293 294 293 289 287 287 285 284 286 287 289 290 290 290 289 289 287
294 294 294 295 296 296 296 295 296 296 294 293 293 292 292 291 291 291 290 289 289 289 288 288 287 286 288 292 291 290 286 285 285 285 285 286 286 286 285 286 287 287 287
294 292 294 294 295 295 295 296 295 292 291 290 290 291 291 290 290 289 288 288 288 288 287 286 286 286 288 290 289 288 285 285 285 285 285 285 284 284 285 285 286 286 286
294 294 294 293 294 294 295 295 293 292 290 290 289 290 290 289 288 287 286 286 286 286 285 286 287 287 287 288 288 286 285 284 284 284 285 285 284 285 286 286 285 285 284
294 293 293 292 292 292 294 293 291 289 289 289 289 290 289 288 287 286 286 286 286 286 287 288 289 290 287 288 288 286 285 284 284 284 284 285 285 286 286 285 284 281 281
294 294 293 291 292 293 292 288 289 288 289 289 290 289 289 287 287 287 288 288 287 286 286 285 286 287 287 287 288 287 285 283 283 282 282 283 284 285 284 284 282 281 283
292 293 292 292 292 291 290 287 287 289 290 290 289 289 290 289 288 287 286 286 285 284 283 283 282 284 285 286 286 286 286 285 283 282 282 283 283 283 282 282 283 284 284
292 293 291 289 290 291 290 288 288 290 290 290 288 287 286 286 286 286 285 284 284 283 281 281 281 281 283 284 284 284 284 284 282 282 282 282 281 281 282 282 283 283 281
291 292 290 289 289 291 291 290 291 291 291 287 285 285 284 284 284 284 284 283 282 281 281 280 280 281 282 283 284 284 284 284 283 283 282 280 280 281 281 281 281 281 280
291 292 291 290 289 290 291 292 292 291 287 285 285 284 284 284 283 284 283 282 283 283 281 281 281 280 280 282 283 283 282 282 282 281 279 278 279 279 280 280 280 280 280
291 291 292 290 290 291 292 292 291 289 286 284 284 284 284 284 284 284 284 285 285 284 284 283 282 282 282 283 283 283 283 282 282 279 277 278 279 279 279 279 279 280 280

GFSMW_sfc_thetae_066.txt.gz
Theta_e
305 305 306 306 306 307 308 310 311 313 314 315 321 335 334 334 335 338 338 339 333 334 332 332 330 328 326 327 328 326 324 321 317 311 307 305 305 304 306 307 306 307 308
301 303 303 301 303 304 305 307 309 311 312 313 314 326 335 334 334 334 337 337 336 335 332 331 331 328 326 325 326 326 323 324 320 310 304 301 303 303 304 304 306 305 306
300 302 303 304 305 306 307 306 306 307 309 312 313 314 330 331 329 330 332 335 336 334 332 333 331 329 329 328 323 326 323 321 319 314 308 304 302 299 302 302 303 303 303
301 303 304 304 305 307 309 309 307 306 308 308 309 308 309 316 326 330 334 334 334 333 333 330 333 332 332 329 328 328 325 321 319 315 314 312 306 300 295 299 301 302 301
302 303 304 307 308 309 309 309 309 308 307 306 307 307 307 310 313 321 324 325 326 332 331 329 327 326 329 331 330 328 327 326 323 316 310 312 307 300 298 293 296 298 300
304 305 306 307 308 309 309 309 308 308 309 308 306 305 306 307 308 314 318 320 323 326 328 329 329 329 329 329 327 329 326 325 325 319 314 311 311 307 301 300 296 296 297
303 304 304 305 307 307 307 308 307 307 308 308 308 308 306 305 305 307 312 316 320 322 325 325 324 326 327 328 327 327 326 324 322 321 314 313 311 311 307 305 296 295 292
303 303 303 304 304 305 304 305 305 305 306 306 307 307 308 309 308 309 308 309 310 313 317 322 323 324 325 325 326 325 324 323 322 320 319 313 307 304 305 305 297 292 290
302 301 301 303 302 301 302 302 303 303 304 305 305 306 306 307 307 308 309 310 311 313 313 314 315 320 322 322 322 322 321 319 319 318 314 303 299 300 299 299 299 299 289
301 301 301 300 300 300 301 301 302 302 303 304 305 306 306 306 306 306 306 306 307 309 309 309 310 311 312 316 317 316 314 313 306 303 300 298 295 294 295 295 295 295 293
299 299 299 299 300 300 299 299 299 299 299 301 302 301 301 302 301 299 300 300 302 303 304 307 309 308 307 308 308 306 306 301 297 297 295 294 295 293 293 294 294 292 291
299 299 298 298 297 297 297 296 296 296 297 298 298 297 297 296 295 295 294 294 293 294 294 295 296 297 297 298 298 297 296 296 294 293 293 292 292 292 293 292 291 290 289
298 297 297 296 296 296 296 296 295 295 296 296 295 294 294 292 292 292 293 293 292 291 292 292 292 292 293 292 292 292 292 292 292 291 291 291 291 290 291 290 288 287 288
297 296 295 294 294 295 295 294 294 294 295 295 294 292 292 291 292 293 294 294 293 290 291 292 291 292 292 292 292 291 291 290 290 290 290 290 289 289 287 287 286 287 286
295 294 294 293 293 293 294 294 294 293 294 293 292 291 292 293 293 294 293 293 292 292 291 292 292 293 292 291 290 290 289 288 287 288 289 289 291 291 290 288 287 286 285
293 292 293 293 294 292 293 294 293 293 293 291 291 291 292 292 291 291 291 291 290 290 289 289 290 291 293 294 293 289 286 286 285 285 285 285 288 290 291 291 290 289 284
293 292 292 291 292 292 293 291 291 292 292 291 290 291 291 290 290 290 289 288 288 288 288 287 287 287 290 293 292 289 285 285 285 285 285 285 286 285 285 286 287 287 288
292 291 291 291 292 292 292 292 292 291 291 290 289 290 290 289 288 288 288 287 287 287 286 286 286 287 289 290 290 288 284 285 285 285 285 284 284 284 285 284 284 283 283
292 291 290 290 291 292 292 291 291 290 290 289 288 289 288 288 288 286 286 285 285 285 285 286 282 282 284 289 288 286 283 283 282 283 283 284 283 286 287 284 282 281 281
291 290 289 290 290 291 290 290 289 289 288 289 289 289 289 288 286 286 285 286 286 283 282 284 283 287 282 289 288 285 281 280 281 281 281 285 284 286 287 282 279 278 278
291 291 289 288 289 290 289 288 288 288 289 290 289 289 288 287 287 286 282 280 281 282 280 280 281 281 283 283 288 288 281 280 280 279 278 280 285 285 284 284 278 279 280
291 291 289 288 289 291 290 288 287 289 290 289 289 287 288 288 287 282 282 280 279 278 277 277 277 278 281 286 285 286 285 284 279 278 278 279 284 283 283 281 284 284 284
290 290 288 289 289 290 290 287 288 290 290 288 286 284 283 283 283 280 279 278 278 276 276 276 276 276 279 279 284 285 285 284 280 280 281 282 282 282 281 283 283 283 277
290 290 288 288 288 290 290 289 290 290 288 285 281 280 280 280 280 279 279 277 276 276 275 276 275 275 277 278 279 280 278 283 281 281 278 280 281 282 281 280 279 278 277
291 289 288 288 289 290 290 290 290 289 285 281 280 280 280 278 278 279 279 277 279 280 276 276 277 276 276 279 282 282 280 279 281 280 276 275 276 276 277 277 277 277 278
290 289 289 289 289 290 290 289 289 287 282 280 279 279 278 278 279 279 279 286 284 284 284 283 280 280 282 283 283 283 283 283 282 277 274 274 275 275 276 276 277 277 279

GFSMW_sfc_thetae_069.txt.gz
Theta_e
302 302 301 301 302 303 303 304 307 308 311 316 330 330 332 329 330 334 335 335 335 332 329 330 328 326 325 324 326 325 322 320 316 312 310 304 304 304 305 306 306 310 314
299 300 301 301 303 304 304 304 304 305 307 309 311 330 332 332 334 334 333 333 332 333 332 328 329 327 324 322 324 323 320 321 317 313 306 303 302 303 303 303 305 305 307
299 300 302 304 305 305 306 306 304 304 305 306 309 309 326 328 328 328 328 331 332 332 331 330 327 326 325 322 321 325 323 321 316 315 308 302 300 300 301 303 303 303 303
300 302 303 304 305 306 307 307 307 305 306 305 305 305 306 309 320 327 329 330 331 331 330 329 329 327 326 326 327 327 326 323 319 315 317 312 306 300 297 299 303 303 302
300 302 303 306 308 308 307 306 307 306 306 304 304 304 304 305 307 310 316 325 329 330 330 329 327 324 324 323 323 322 323 325 324 319 315 312 311 306 298 297 300 303 302
301 303 304 306 307 307 307 306 307 306 307 306 306 304 302 302 303 305 308 313 318 321 325 327 326 325 327 326 324 326 325 324 324 324 318 314 313 311 303 300 298 300 298
301 302 303 304 304 304 304 306 305 305 305 305 305 306 306 305 304 304 305 306 309 312 313 320 322 322 323 326 326 325 324 324 323 323 319 317 314 314 310 305 299 296 294
301 302 302 302 301 301 301 302 302 302 304 304 304 305 305 305 306 306 306 307 307 308 310 312 315 318 323 324 324 322 323 323 321 320 319 315 315 310 309 307 301 295 292
301 300 300 299 299 299 300 300 301 301 302 303 303 304 304 304 304 304 304 305 305 309 307 308 308 310 311 313 317 318 319 319 319 317 316 309 303 303 304 304 303 305 292
299 298 298 298 298 299 298 298 299 298 299 300 301 300 299 299 298 298 296 298 299 300 302 304 305 305 305 305 307 307 309 312 305 303 301 298 296 297 298 298 299 298 297
297 297 296 297 298 297 296 295 296 296 296 297 296 295 295 295 294 293 293 292 293 293 294 296 297 296 297 298 300 301 300 300 298 297 296 294 295 294 294 294 296 294 293
297 297 296 296 295 295 295 294 294 294 295 295 294 293 293 292 291 291 292 291 290 291 291 291 291 291 292 291 293 294 296 295 294 293 293 292 294 293 294 293 292 291 290
297 296 295 294 294 294 294 293 293 293 294 293 292 291 291 291 290 291 291 291 290 290 290 290 290 290 291 291 292 292 292 291 291 292 292 292 292 290 290 289 289 289 289
297 295 294 293 293 294 293 293 292 292 293 293 291 291 291 293 292 291 291 292 291 290 290 291 291 291 290 290 290 290 290 290 290 290 290 290 289 288 287 287 287 288 287
294 294 293 292 292 292 292 292 292 292 292 291 290 290 290 292 293 292 292 291 291 291 292 292 292 292 290 290 288 289 288 288 287 287 289 290 291 292 291 288 287 286 285
293 292 292 292 292 291 292 292 291 291 291 289 289 290 291 291 290 290 290 290 290 289 289 289 291 291 292 293 292 289 287 286 286 285 285 286 287 288 291 291 289 289 286
292 291 291 291 291 291 291 289 289 290 290 289 289 291 290 290 289 290 289 288 288 288 287 288 288 289 291 293 292 289 284 284 284 284 285 285 286 286 285 287 287 287 288
292 291 290 290 291 291 290 289 290 291 290 290 290 290 290 289 289 288 287 287 286 285 286 285 284 284 288 290 290 288 278 278 281 282 282 281 282 283 284 284 283 283 283
291 290 290 290 289 290 290 289 289 290 289 289 289 288 289 288 288 286 285 285 285 285 285 279 279 280 283 289 288 284 281 280 280 280 281 281 281 287 288 282 279 280 279
290 288 289 288 288 288 289 288 287 289 288 288 288 289 289 288 286 286 285 285 279 283 285 285 279 287 281 289 289 283 279 277 279 278 279 285 283 286 286 280 278 276 277
289 289 288 287 287 288 287 286 288 288 289 290 290 289 288 287 286 285 279 277 279 279 279 279 279 280 282 283 288 287 280 280 279 279 278 279 285 284 284 283 278 278 280
290 289 287 287 288 288 288 288 287 289 290 289 288 287 285 287 285 282 281 281 279 277 276 276 276 278 279 285 285 286 285 284 279 278 278 278 283 283 283 281 284 285 283
289 289 287 286 287 290 290 288 288 290 289 289 286 285 285 283 282 279 278 277 276 275 274 275 275 276 278 278 285 286 286 284 280 280 282 283 282 282 280 283 284 283 277
290 288 287 286 288 289 289 290 290 290 289 285 283 281 280 280 279 278 277 276 275 274 275 275 275 275 276 277 278 279 278 282 280 281 277 281 281 282 281 280 279 278 277
290 288 287 287 288 290 289 290 290 288 286 282 279 279 280 278 278 279 276 277 278 277 276 276 276 275 275 279 282 281 280 278 281 280 277 275 276 276 277 277 277 277 278
290 288 287 287 289 290 289 290 290 287 283 279 278 278 277 277 277 278 278 285 284 285 284 284 280 280 282 283 283 283 283 283 283 277 274 273 274 275 276 276 276 276 279

GFSMW_sfc_thetae_072.txt.gz
Theta_e
298 300 299 299 300 303 303 303 305 306 320 329 329 328 329 329 328 330 334 335 335 332 328 326 325 324 324 325 325 323 321 320 316 313 311 309 308 304 305 305 307 316 317
298 298 299 301 303 303 303 303 303 303 305 308 311 329 329 329 331 330 330 330 331 331 331 328 327 325 323 322 321 322 318 320 317 313 308 308 308 305 304 303 305 306 315
297 299 301 303 303 303 304 305 305 302 304 305 306 308 324 326 326 326 327 330 331 331 330 330 328 325 323 323 321 322 320 321 315 314 313 303 303 301 302 302 303 304 303
298 300 301 303 304 304 305 305 305 303 303 303 303 304 305 309 318 320 324 327 328 329 328 328 327 327 324 324 323 321 322 320 320 316 318 313 309 303 301 300 303 305 306
299 300 303 306 307 306 305 304 305 306 305 305 302 302 302 304 305 306 309 314 320 326 328 327 325 324 323 322 321 321 320 320 321 315 312 314 312 309 304 306 302 305 305
299 301 304 306 305 305 304 304 305 304 304 305 305 304 301 300 302 302 303 305 311 314 314 320 323 323 321 321 322 324 321 319 321 322 320 316 310 310 308 303 299 301 301
299 301 302 303 303 302 302 304 303 303 304 304 304 304 304 304 304 304 305 305 306 307 309 313 316 318 319 321 322 324 323 321 321 322 322 319 318 316 312 309 303 299 297
300 301 301 301 300 300 300 300 301 302 302 302 303 303 304 304 304 303 304 303 304 306 307 308 310 311 312 314 315 317 316 318 315 316 315 315 316 315 314 310 305 295 294
300 299 299 298 298 298 298 299 299 300 301 302 301 300 300 300 298 297 299 300 299 304 303 305 305 306 306 307 308 309 308 309 312 310 309 308 303 303 304 304 304 304 298
298 298 297 297 297 297 296 296 297 297 298 297 297 296 295 294 293 293 292 292 293 294 296 297 297 297 298 300 301 301 304 306 302 301 299 299 297 297 298 299 299 299 298
297 297 296 297 297 295 294 294 294 295 295 295 294 292 292 292 292 291 290 290 291 291 291 292 292 292 292 293 295 296 296 298 297 296 296 294 295 294 295 295 295 295 294
297 296 296 296 294 294 293 293 293 294 294 293 292 291 291 291 290 290 290 290 289 290 290 290 290 290 290 290 291 291 292 294 293 293 293 293 294 292 293 292 291 290 291
297 295 294 293 293 293 292 292 292 292 292 292 291 291 290 290 290 290 291 291 290 290 290 290 289 289 290 289 289 290 290 291 292 292 292 291 291 290 290 289 288 288 289
297 295 293 293 292 292 292 291 291 291 291 291 290 290 291 293 292 291 292 291 290 289 289 290 289 289 288 289 289 290 289 290 290 290 290 290 289 288 287 287 287 288 286
295 294 293 292 292 292 291 291 291 291 290 290 289 289 292 292 292 291 291 291 291 291 291 292 291 290 289 289 287 287 287 287 287 287 289 291 292 293 291 288 287 286 285
293 293 293 291 292 291 291 291 290 290 290 289 288 289 291 291 290 290 290 290 289 289 290 290 291 291 292 293 292 287 284 284 284 285 286 286 287 288 292 291 291 289 286
292 292 291 292 291 291 291 289 289 289 288 288 289 291 291 290 290 290 289 288 287 288 288 289 289 289 290 293 292 289 282 281 280 279 280 283 285 285 284 286 288 287 289
293 291 290 291 291 290 289 289 289 290 291 290 290 290 289 289 289 288 287 286 286 286 285 282 280 280 286 290 289 287 276 277 278 279 279 279 280 282 283 282 281 281 281
292 290 290 290 289 289 289 289 289 290 290 289 289 289 289 288 288 286 286 285 285 279 277 275 277 279 282 289 288 283 279 279 278 280 280 280 280 287 287 280 279 278 278
290 289 289 288 288 289 289 288 287 289 288 289 288 289 289 288 287 286 285 285 285 282 279 278 278 286 280 289 287 282 279 277 279 278 279 286 283 286 285 279 277 276 277
289 289 288 288 288 289 288 286 286 288 289 290 289 289 288 287 286 285 279 276 277 279 278 278 278 279 281 281 287 286 280 279 279 278 278 279 285 285 284 283 278 278 279
289 289 287 286 287 287 287 286 287 290 290 290 289 288 288 287 286 281 281 280 278 277 275 275 276 277 278 285 285 286 285 283 279 278 278 278 283 283 283 281 284 285 281
290 288 287 286 286 287 287 287 289 290 289 289 287 285 284 284 283 281 280 277 276 275 274 274 275 275 278 277 286 285 285 285 279 280 282 284 283 282 280 283 284 282 277
290 289 286 285 285 286 289 290 290 290 289 288 284 283 282 280 279 279 279 276 274 273 274 274 275 274 276 277 278 280 278 282 281 281 277 280 281 282 281 280 279 278 277
291 289 287 286 286 288 289 290 290 290 287 286 282 279 279 279 277 277 276 277 276 276 274 275 276 275 275 278 282 282 280 279 281 280 276 275 275 276 276 277 277 277 277
289 287 287 287 287 288 289 290 290 289 285 282 278 277 277 276 277 279 278 284 284 286 285 284 279 279 282 284 284 284 284 284 284 277 274 273 273 274 275 275 276 276 278

GFSMW_sfc_thetae_075.txt.gz
Theta_e
299 299 299 299 301 301 302 303 308 308 324 329 328 327 328 328 330 331 334 334 332 327 325 325 324 323 322 323 322 321 320 319 316 313 312 310 311 311 310 309 306 311 316
297 297 300 301 302 302 301 301 302 303 305 311 320 329 328 328 329 328 329 330 330 330 329 326 325 324 323 322 321 320 318 318 316 314 308 312 310 306 309 304 305 305 313
297 298 300 301 302 302 303 303 303 302 302 303 305 308 322 325 327 326 326 328 330 330 330 329 328 326 323 322 320 319 318 320 314 314 314 303 304 303 305 302 302 303 304
296 299 301 302 302 303 304 304 303 303 303 302 302 302 305 317 317 315 317 315 323 326 327 327 326 326 323 322 322 320 319 317 318 312 315 313 308 306 305 303 302 303 303
297 299 301 304 305 305 304 303 304 305 304 304 301 301 301 303 304 304 305 308 313 316 319 323 324 323 322 321 321 319 317 319 320 318 316 315 313 308 307 309 308 304 304
297 299 303 305 303 303 303 303 303 303 304 305 305 302 301 301 303 304 303 304 308 309 310 315 319 320 320 320 320 319 318 317 319 321 320 317 313 311 307 305 309 303 303
297 299 302 302 301 301 301 302 302 301 302 303 303 303 303 303 302 303 303 304 305 305 306 308 311 313 316 318 319 318 318 317 319 320 319 317 316 317 313 310 308 302 300
297 299 301 300 299 299 299 299 300 300 301 302 302 302 302 302 301 300 301 300 301 303 303 305 306 307 308 311 312 312 312 310 313 315 314 315 314 313 312 310 306 299 297
298 299 299 298 298 297 297 298 298 299 300 299 297 295 295 295 294 294 294 294 294 299 299 300 299 300 301 303 305 305 306 308 307 306 305 305 302 302 302 304 305 304 300
298 298 297 297 296 296 295 295 296 296 295 295 295 293 293 292 292 291 290 291 291 292 293 294 293 293 294 297 298 298 303 303 301 300 299 298 297 296 298 298 299 299 298
298 296 296 296 296 295 294 293 294 294 294 293 292 291 291 291 290 290 289 289 290 290 291 291 291 291 291 292 293 293 297 298 296 296 295 294 295 295 295 295 295 294 294
297 296 295 295 294 293 292 292 293 293 292 292 291 291 291 290 289 289 289 289 289 290 289 290 290 289 290 289 290 290 292 293 293 293 294 293 294 292 293 292 291 291 291
297 295 295 294 293 292 292 292 292 291 291 291 290 290 290 289 288 289 289 289 289 289 289 289 288 288 289 288 288 288 289 291 291 292 291 291 291 290 289 288 286 287 289
297 295 294 293 292 292 291 291 291 291 291 290 290 289 291 292 291 292 291 291 290 289 289 289 288 288 287 288 288 289 289 289 290 290 290 290 289 288 284 286 287 287 287
295 295 293 292 292 291 291 290 290 290 290 289 288 288 292 292 292 291 291 291 291 291 292 291 290 289 289 289 286 288 288 288 287 288 288 290 292 293 290 286 285 285 283
295 294 294 292 292 291 291 291 290 290 290 288 288 290 291 291 291 291 290 290 289 290 290 291 291 291 292 293 292 286 283 283 285 283 282 284 285 287 291 291 291 289 286
295 294 293 293 292 291 292 290 289 289 288 288 288 291 291 290 290 289 289 288 288 289 288 288 288 288 290 292 291 288 280 278 276 276 278 282 283 283 282 286 287 287 289
294 293 292 291 291 291 290 290 289 289 289 288 290 290 290 289 289 288 287 287 287 285 284 280 279 279 286 289 288 286 273 274 277 278 278 279 280 283 282 280 280 280 279
295 293 291 291 290 290 289 289 288 289 288 289 290 290 290 288 288 286 285 285 280 276 275 274 277 279 281 288 287 282 278 278 278 279 279 280 280 287 287 280 279 278 278
292 290 289 289 289 288 288 288 287 287 289 289 289 290 290 288 286 286 285 284 278 275 276 278 277 286 280 288 287 281 279 276 278 278 278 285 283 286 285 279 277 276 277
289 289 289 288 289 288 288 286 286 286 289 290 289 289 289 287 286 285 283 283 283 283 277 278 277 278 280 280 287 286 280 279 279 278 278 279 284 284 284 284 277 279 279
289 289 287 286 287 288 287 285 285 288 290 289 289 288 288 288 287 284 280 279 277 276 275 275 276 277 277 284 285 286 285 283 279 278 278 278 284 283 284 282 284 285 281
290 289 287 286 286 287 287 286 288 290 290 289 288 287 287 286 284 280 279 278 276 275 274 274 274 276 278 277 285 285 285 285 279 280 281 284 284 283 280 282 284 282 277
289 289 288 286 285 286 287 287 290 290 289 288 287 286 284 281 280 280 279 277 275 274 275 275 275 275 276 277 278 280 278 282 281 281 277 280 281 282 281 279 278 278 277
290 289 288 287 286 286 286 288 290 290 288 288 286 283 282 282 278 277 276 276 275 276 274 275 276 275 275 278 281 281 280 278 281 280 276 274 275 275 276 276 276 276 277
289 288 288 287 287 287 287 289 291 290 288 287 284 281 278 277 276 276 277 283 283 285 286 284 279 279 282 283 285 285 284 284 284 277 274 272 273 273 275 275 275 275 276

GFSMW_sfc_thetae_078.txt.gz
Theta_e
300 299 299 298 302 301 303 308 324 325 329 328 327 326 326 327 329 330 332 331 327 326 325 325 323 321 320 321 319 318 317 317 316 314 315 312 313 312 313 314 308 307 311
295 296 298 297 301 301 301 301 303 304 308 319 325 327 327 327 328 328 328 329 331 330 327 324 323 322 321 320 319 319 316 317 315 318 313 314 316 309 309 308 307 305 308
297 296 298 299 301 302 302 303 302 301 302 303 305 307 319 323 324 326 325 326 327 328 329 329 327 325 322 322 320 318 318 318 314 315 318 309 308 305 307 304 303 303 302
295 296 298 300 301 302 303 303 303 303 303 302 302 302 305 313 315 312 311 311 316 320 324 326 326 326 323 322 321 319 318 317 319 315 317 316 312 310 309 308 305 304 303
295 297 299 301 302 302 302 303 304 305 305 304 301 301 300 301 302 303 303 305 311 312 313 316 321 322 322 321 321 319 317 317 319 318 316 315 314 310 308 309 310 306 306
295 298 300 303 301 301 302 302 303 303 305 305 305 302 300 301 303 304 304 305 306 307 307 310 312 320 322 320 319 318 317 317 319 320 318 314 314 311 308 306 307 308 307
295 298 301 301 300 300 300 301 301 301 302 303 303 303 302 302 302 302 302 302 303 303 303 305 306 310 314 317 320 320 319 318 319 319 318 316 316 316 313 311 308 305 302
294 298 300 299 299 298 298 299 300 299 301 301 300 300 300 300 299 298 298 297 298 299 300 301 302 302 304 309 313 313 312 310 313 311 308 311 308 308 309 310 307 302 299
296 298 299 298 297 297 297 298 298 298 298 297 295 294 293 293 292 292 292 292 292 297 295 295 296 296 298 301 303 306 308 307 306 305 304 304 301 301 302 303 304 303 298
297 297 296 296 296 296 295 295 297 296 294 294 293 292 291 291 291 291 290 290 291 291 292 292 292 293 294 296 297 298 304 303 301 301 300 299 297 294 294 297 299 299 298
297 296 295 295 295 293 293 293 294 293 292 292 291 290 290 290 290 289 289 289 290 290 290 290 290 291 291 291 292 295 299 298 297 296 296 295 295 295 295 295 295 294 294
296 295 294 294 293 292 292 292 292 292 291 291 290 290 290 289 289 288 289 289 289 289 289 289 289 289 289 288 289 290 294 294 293 293 293 293 294 292 292 292 291 291 290
295 294 294 293 292 291 291 291 291 291 290 290 289 289 288 288 287 288 288 288 288 288 288 288 287 287 288 288 288 289 291 291 291 291 290 290 291 289 289 288 287 287 287
296 294 293 294 293 292 291 291 291 291 290 290 289 288 289 291 291 292 290 290 289 288 287 287 287 287 286 288 290 290 290 290 290 291 290 290 289 287 286 284 284 285 284
294 294 293 293 292 291 291 291 291 290 290 289 289 289 292 292 292 291 291 291 291 292 292 291 290 290 289 288 288 289 289 288 287 287 288 289 292 293 290 285 283 283 281
295 294 293 293 291 290 290 291 290 290 290 289 289 290 292 291 291 291 290 290 290 291 291 290 291 292 292 293 291 286 285 284 282 280 280 282 284 286 291 291 291 287 281
296 295 294 293 292 291 291 289 289 289 288 288 288 290 291 290 290 289 289 288 288 289 288 287 288 289 290 292 290 287 279 277 275 275 277 281 284 283 281 286 286 286 289
297 295 294 292 292 292 291 290 289 288 288 288 288 290 290 289 289 288 288 287 287 285 283 280 279 280 286 289 288 285 274 275 277 278 278 279 280 282 281 280 279 279 280
296 296 294 292 291 291 290 289 288 288 288 288 289 290 290 289 288 287 286 285 283 276 276 276 277 278 282 288 287 281 277 277 277 279 279 280 280 286 286 280 279 278 278
295 292 291 291 290 289 289 288 288 288 287 288 290 290 290 288 287 286 285 284 278 276 277 278 277 285 279 288 286 281 278 276 279 277 278 285 283 286 285 278 277 276 276
290 289 289 289 289 289 289 287 286 286 288 289 290 290 289 288 287 285 284 278 279 279 277 277 276 277 280 280 288 286 279 279 279 278 277 279 285 284 284 283 278 279 279
289 290 288 287 287 288 288 286 286 287 288 289 289 289 288 288 287 285 283 283 281 277 275 275 276 277 276 284 285 287 285 283 279 278 278 278 284 284 284 282 284 285 281
289 289 289 287 285 286 287 285 286 287 287 288 288 287 288 287 286 283 280 277 276 275 274 274 274 275 278 277 285 285 285 285 280 280 281 284 283 283 280 282 284 282 277
289 289 287 287 286 285 286 286 287 290 289 288 287 287 286 285 284 281 281 278 275 274 274 274 274 274 276 277 278 279 278 282 281 281 277 280 281 282 281 279 278 277 276
289 288 288 288 287 286 286 287 289 290 289 288 287 286 286 286 280 279 278 278 275 276 274 274 275 274 274 277 281 280 280 278 281 280 276 274 274 275 276 276 276 276 276
290 288 287 287 287 287 287 288 289 290 288 287 286 285 284 281 278 277 276 283 283 284 285 283 278 278 282 283 285 286 286 285 285 277 275 273 272 273 274 275 275 275 276

GFSMW_sfc_thetae_081.txt.gz
Theta_e
306 304 304 306 308 310 320 330 333 335 336 335 334 333 334 335 336 337 337 335 333 331 333 333 332 330 329 329 328 327 325 325 326 323 325 326 326 326 327 327 325 323 321
303 303 302 303 306 306 309 312 325 324 331 333 333 334 334 335 335 336 336 337 337 336 332 331 330 330 329 328 327 325 325 325 325 324 319 318 323 323 322 322 319 319 317
302 302 301 303 305 305 306 306 307 308 309 314 316 317 326 330 332 332 333 332 332 333 335 335 332 330 329 328 328 327 325 325 324 324 321 314 314 313 320 315 311 312 314
301 301 301 303 304 306 307 306 306 306 306 306 308 309 314 319 322 319 315 316 319 321 324 328 331 332 331 330 331 328 327 324 322 321 322 323 319 314 311 315 313 311 310
302 301 301 304 305 306 306 307 308 308 308 306 306 306 306 307 307 308 308 310 314 314 314 318 321 326 327 328 329 328 325 324 324 323 320 319 318 318 314 310 316 314 313
302 301 302 304 305 305 306 306 307 307 309 309 308 306 306 306 307 308 309 310 311 311 310 312 315 319 322 324 324 326 326 324 323 323 322 320 318 315 313 310 312 312 314
300 299 302 303 303 303 304 305 306 305 306 307 307 307 307 307 307 307 306 307 308 306 306 308 309 311 313 316 321 323 323 322 322 322 321 321 318 317 316 313 312 312 308
297 299 303 304 303 302 303 304 304 304 305 305 304 304 304 304 302 302 302 300 301 302 302 303 303 304 307 310 314 315 314 315 314 313 312 314 311 311 311 311 309 306 303
296 300 302 302 302 301 302 303 303 303 302 301 299 298 298 298 297 296 297 297 296 298 298 298 299 300 302 304 308 311 309 310 309 308 307 306 303 303 303 304 307 306 302
297 300 300 300 300 300 300 301 302 301 299 298 297 296 295 295 295 295 294 294 294 295 295 296 296 297 298 300 303 305 306 305 305 304 303 302 299 300 301 302 304 305 304
298 299 299 299 298 298 298 298 298 297 297 296 295 295 294 293 293 293 293 293 293 293 294 294 294 295 295 296 300 302 301 300 299 300 299 297 298 298 298 298 298 297 298
299 299 298 297 296 296 296 297 297 296 295 295 294 294 293 293 293 292 292 292 292 292 292 293 292 292 293 293 296 296 297 296 295 295 295 295 295 294 293 293 293 293 293
297 297 296 296 295 295 295 295 295 295 294 294 293 293 292 292 292 292 292 292 291 291 291 291 291 291 291 292 293 293 293 293 293 293 293 293 293 292 292 291 292 292 292
298 297 296 296 295 294 294 294 294 294 293 293 292 292 292 292 293 293 292 293 292 291 291 291 290 290 290 291 292 292 291 292 292 292 292 292 291 290 289 289 289 289 290
296 296 296 295 295 294 294 293 294 293 293 292 292 292 294 294 293 293 292 292 293 292 292 292 292 291 290 290 290 291 290 290 289 289 290 292 293 293 292 290 289 288 288
297 297 296 296 295 294 293 293 293 292 293 292 291 292 293 293 292 291 291 291 291 292 292 292 292 292 292 293 292 290 288 287 286 284 285 287 286 290 292 292 291 289 286
298 297 297 296 296 294 294 292 292 292 291 291 291 292 292 292 291 290 290 290 289 290 289 290 291 291 291 292 290 287 284 283 282 283 285 285 286 286 285 287 287 288 289
298 298 297 296 295 294 293 292 291 291 290 290 290 291 291 291 290 289 288 288 288 287 286 285 286 287 289 289 288 285 282 282 282 283 284 285 285 286 284 284 283 284 286
299 299 298 296 294 294 293 292 290 290 290 289 290 291 291 290 289 288 287 286 285 283 282 283 284 285 287 288 287 283 282 282 282 283 284 285 285 287 285 282 282 282 282
296 296 295 294 293 292 292 291 289 289 289 290 290 291 291 289 288 287 286 285 283 282 283 283 283 286 285 288 286 283 282 281 281 282 283 286 285 286 286 282 281 280 281
293 292 292 292 292 291 291 290 289 289 290 291 291 291 291 289 287 286 285 283 282 282 282 282 282 282 283 285 287 285 282 281 281 281 281 282 285 285 285 283 283 283 283
290 290 290 290 289 290 291 289 288 290 290 290 290 290 289 289 287 286 285 284 283 281 280 280 280 281 281 285 287 288 285 284 281 280 281 282 284 284 284 284 284 286 282
289 290 289 288 288 289 290 288 289 289 289 289 289 289 288 288 287 285 284 283 282 280 279 279 279 279 280 281 286 288 286 286 282 282 282 284 283 284 282 283 285 283 281
289 289 289 288 287 289 288 289 288 289 289 289 289 288 287 286 286 285 284 282 280 279 279 278 278 278 279 280 281 283 283 284 283 283 282 282 282 282 282 282 282 280 280
291 290 289 289 289 288 289 289 289 290 289 289 288 287 287 287 285 284 283 282 281 280 279 278 278 278 278 279 282 282 281 281 282 282 280 278 277 278 279 279 279 280 280
290 289 289 289 289 288 288 288 290 290 289 288 287 287 286 286 284 283 282 286 285 285 286 285 280 280 282 284 285 286 285 286 286 281 279 278 277 277 278 278 278 278 279

GFSMW_sfc_thetae_084.txt.gz
Theta_e
316 315 312 313 324 331 336 337 339 341 342 341 341 341 340 342 343 344 345 344 343 341 340 340 339 339 336 335 336 335 334 333 333 329 330 332 333 332 331 332 332 331 330
314 313 310 310 315 324 326 332 336 339 339 340 341 342 341 342 342 343 343 343 343 342 340 340 339 337 336 335 335 334 332 332 333 329 327 322 322 325 329 329 328 328 327
313 313 311 309 311 314 317 321 327 335 336 337 336 335 338 339 339 339 339 340 339 340 340 339 338 338 337 336 336 334 332 329 333 331 327 320 315 321 325 325 324 323 321
313 312 309 307 308 311 313 313 314 316 318 319 327 331 334 334 336 335 331 328 325 327 328 329 332 333 334 333 334 335 333 332 329 329 329 329 324 316 315 323 323 321 319
312 308 308 309 310 312 313 313 312 312 312 312 314 315 315 316 316 316 315 317 320 319 319 321 324 327 329 330 331 331 331 330 327 327 325 324 324 323 317 313 318 323 321
311 310 312 311 310 312 311 312 312 313 314 313 312 312 312 311 312 313 313 315 316 316 315 317 320 323 323 325 327 328 329 328 327 326 324 323 321 319 317 312 316 315 320
309 310 308 308 310 310 310 311 311 311 313 314 313 314 314 314 313 313 313 313 314 313 313 313 315 317 318 319 323 326 325 325 323 324 323 323 322 319 318 314 312 311 315
305 307 308 309 309 310 310 310 311 310 311 312 311 312 312 312 312 311 311 309 310 310 308 309 310 310 312 315 318 320 319 320 319 318 316 314 312 312 311 311 311 310 311
302 301 304 307 309 309 309 310 310 310 310 309 308 307 307 307 306 305 306 305 304 303 304 305 305 306 307 310 313 318 315 313 312 311 312 310 308 306 306 308 309 308 303
302 302 304 306 308 308 309 310 310 309 308 307 306 305 304 303 303 304 303 302 302 301 302 302 303 303 304 306 309 312 310 310 307 309 309 307 305 305 309 309 309 308 306
301 302 305 305 305 306 307 308 308 306 305 305 304 303 302 301 301 301 301 300 300 300 300 300 300 301 301 303 307 307 306 305 305 305 305 303 304 305 305 305 305 304 304
302 304 304 304 304 304 304 305 306 305 305 304 303 302 301 300 300 299 299 299 299 298 298 298 298 299 299 301 303 302 302 301 301 300 300 299 300 299 299 299 298 299 299
302 304 305 304 304 304 304 303 303 303 302 301 301 300 299 299 299 298 298 297 297 297 297 297 297 297 297 297 298 298 297 297 297 298 299 298 298 297 297 297 297 297 298
302 304 304 304 304 303 302 302 302 302 301 300 300 299 299 299 299 298 298 297 297 296 296 296 296 294 294 294 295 295 295 295 295 296 296 295 295 294 294 294 294 295 297
302 304 304 304 304 302 302 302 301 300 300 299 299 299 299 299 299 298 297 296 295 295 296 295 295 293 293 293 293 294 293 293 293 294 294 295 294 293 293 294 293 293 294
303 304 305 305 304 303 302 301 301 300 299 299 298 298 298 297 297 296 295 294 294 293 294 294 293 293 293 294 294 293 291 290 289 288 289 291 291 293 293 292 292 290 289
302 304 305 305 305 304 303 301 300 300 298 298 298 297 297 296 295 294 293 292 292 292 292 293 293 293 293 293 292 290 289 288 287 288 288 287 287 288 288 288 289 290 289
301 304 306 306 306 305 303 302 300 298 297 297 296 296 296 295 294 292 291 291 290 290 290 290 290 291 291 290 289 287 286 286 287 287 288 288 288 287 286 287 287 288 288
303 305 307 307 306 304 302 300 297 297 296 295 295 295 295 294 292 290 290 288 286 286 286 288 289 289 289 289 287 286 286 285 285 286 287 287 288 288 285 285 285 285 285
302 304 306 304 304 303 301 299 297 296 295 295 295 295 295 294 292 289 288 287 287 286 288 287 288 288 288 288 287 285 285 284 284 285 287 286 287 286 285 284 284 283 284
300 303 302 302 302 299 299 297 296 295 296 296 295 295 295 293 291 288 287 285 285 287 287 287 287 287 288 288 287 286 284 284 283 283 284 285 286 285 286 284 286 285 286
296 298 299 298 298 298 297 296 294 296 295 294 294 293 293 291 289 288 286 285 285 286 285 285 285 286 287 287 289 287 285 285 283 283 284 285 285 285 285 286 285 287 285
297 297 298 295 295 296 297 295 295 294 294 293 293 292 292 290 288 287 285 284 286 285 284 283 283 283 284 286 288 289 289 288 284 284 284 285 285 285 284 285 286 286 284
296 296 296 295 294 295 296 297 295 295 294 293 293 292 290 288 287 287 286 286 286 285 284 283 282 283 282 283 285 288 288 287 286 284 285 284 283 283 283 283 285 285 284
295 295 295 295 295 294 294 294 294 294 293 293 291 291 289 288 286 286 286 286 287 287 285 284 283 282 281 283 285 285 285 285 285 284 284 282 281 281 281 282 282 283 282
293 292 292 291 293 292 293 293 294 293 292 291 290 290 288 288 286 286 285 289 288 287 287 286 284 283 284 284 285 286 286 286 285 284 282 282 281 280 280 280 281 281 282

GFSMW_sfc_thetae_087.txt.gz
Theta_e
318 317 315 313 325 337 339 341 341 342 342 342 340 341 340 343 343 343 344 344 343 343 342 341 340 341 339 338 337 337 335 335 336 332 331 332 333 332 331 332 330 332 332
316 316 314 312 313 327 334 339 340 341 341 342 342 343 344 344 345 345 345 345 344 344 342 340 340 340 339 337 337 336 334 334 335 329 328 322 323 324 326 330 328 328 329
314 316 314 313 313 318 326 331 336 339 341 342 341 338 338 340 340 340 341 341 341 342 341 339 338 338 337 335 336 335 332 329 333 332 328 320 315 321 325 327 326 325 323
315 316 315 314 311 315 322 321 328 334 336 331 334 333 333 334 337 337 338 335 330 331 331 331 332 333 334 333 333 334 332 330 327 331 330 329 326 318 315 322 323 322 322
315 316 315 314 313 316 317 317 317 320 320 322 326 329 330 329 325 321 322 322 322 322 321 322 325 327 329 330 330 331 331 332 329 327 327 325 325 324 318 313 317 322 320
312 316 315 314 312 315 315 316 314 314 314 314 315 317 317 315 314 315 314 315 317 318 317 317 319 322 323 324 325 327 328 329 328 327 326 323 320 320 318 314 315 316 318
311 312 312 312 313 313 313 313 313 312 314 315 314 314 315 315 315 315 314 314 314 315 314 314 315 317 319 320 322 323 323 326 326 326 325 325 323 321 320 317 315 313 314
310 311 313 314 312 312 312 311 312 312 313 314 314 315 315 315 314 313 312 311 311 311 310 310 311 311 312 314 318 321 321 320 320 320 319 315 312 313 314 312 312 309 310
305 307 309 308 311 311 311 311 312 312 312 312 312 311 311 311 309 309 308 308 307 305 305 307 307 308 308 310 312 317 316 314 313 312 312 310 308 309 311 311 312 309 303
304 306 305 306 310 311 312 312 312 311 311 310 310 308 307 307 306 306 305 304 304 303 304 304 304 305 305 306 309 312 312 311 310 310 309 308 308 308 310 309 310 309 307
303 305 305 307 309 310 310 310 310 310 309 308 307 306 305 304 304 303 302 302 302 302 302 302 302 302 302 304 306 308 308 308 307 307 307 305 306 306 306 306 306 305 304
304 305 306 307 307 307 308 309 309 307 307 307 306 305 304 303 303 302 301 301 300 300 300 300 300 300 300 301 303 304 303 303 303 302 303 301 302 302 301 301 300 300 300
304 305 305 305 306 306 307 307 307 307 306 305 304 303 303 302 302 301 300 300 299 299 299 298 298 298 298 299 300 300 300 300 300 300 300 300 300 299 298 299 298 298 299
304 305 305 305 306 307 306 306 305 304 303 303 303 302 302 302 302 301 300 299 299 298 298 297 297 296 296 296 297 297 297 297 297 298 298 297 297 296 295 295 295 296 296
304 305 305 306 307 306 305 305 305 304 303 301 301 301 301 302 301 300 299 299 298 297 297 297 296 294 294 294 295 295 295 295 294 295 295 295 294 294 294 295 294 294 294
302 305 306 307 306 306 305 304 304 302 302 301 301 301 301 300 299 299 298 297 295 295 295 295 294 294 294 294 295 294 292 292 291 289 291 292 293 293 293 293 292 291 290
303 304 306 307 307 307 307 304 304 303 301 301 301 300 300 298 298 297 296 294 293 293 293 294 294 293 293 294 294 293 291 290 289 288 289 288 288 289 288 289 291 290 290
303 304 306 308 309 309 307 306 304 302 301 300 300 299 299 298 297 295 294 293 292 292 292 291 290 291 292 292 291 289 288 288 288 288 288 288 287 286 287 287 286 287 287
304 305 306 308 310 309 308 305 303 301 300 299 299 298 298 297 295 293 292 290 287 286 287 289 290 290 289 289 289 287 286 285 285 286 287 288 288 287 285 286 284 284 285
304 304 306 307 309 309 307 303 301 300 298 299 298 298 298 296 294 292 290 289 288 286 288 289 290 290 289 289 288 286 285 284 284 285 286 287 287 288 285 284 284 282 283
303 304 306 307 308 307 305 301 301 299 300 299 298 297 297 296 294 290 289 287 286 286 288 287 288 288 289 288 288 287 284 283 283 283 283 284 286 286 287 285 284 284 285
298 302 303 304 305 303 302 301 299 300 299 298 296 296 295 293 292 290 288 286 286 286 287 286 286 286 287 288 289 288 286 285 283 282 283 283 286 285 286 286 286 287 285
299 300 300 298 299 300 301 299 298 298 296 295 295 295 294 292 291 288 286 285 285 285 286 284 284 284 285 286 289 290 289 287 284 283 284 285 285 286 285 286 285 287 284
298 299 299 298 297 299 299 300 298 297 296 295 294 294 292 291 290 288 286 285 285 286 285 283 283 283 283 283 285 287 288 289 287 285 284 285 285 285 285 283 284 284 283
297 298 298 298 297 297 297 298 297 297 295 295 294 293 291 290 288 287 286 286 287 288 287 285 284 282 282 282 285 286 286 286 286 285 283 282 281 280 281 281 282 282 282
296 296 295 296 296 296 295 295 295 296 295 294 292 292 290 290 287 286 285 290 290 291 290 289 286 284 286 286 287 287 287 288 287 283 281 281 281 280 280 280 280 280 281

GFSMW_sfc_thetae_090.txt.gz
Theta_e
312 313 311 311 321 332 334 335 335 337 336 336 334 334 333 335 337 339 339 338 339 339 337 336 336 334 333 333 332 332 330 328 329 327 325 325 327 327 327 327 324 325 325
309 310 308 308 318 328 331 335 335 336 336 337 337 335 336 334 335 337 338 338 338 339 337 335 334 336 335 332 331 330 328 328 328 324 321 319 318 319 321 321 321 318 319
305 309 306 306 308 318 326 330 333 334 335 337 334 331 333 335 335 334 335 336 337 338 336 335 335 334 334 333 332 332 330 327 328 329 323 314 310 314 318 318 318 316 313
307 309 308 306 306 309 322 325 329 333 334 333 330 329 329 328 329 332 334 328 327 326 327 329 330 331 331 331 331 331 330 328 325 328 327 324 320 314 309 314 315 315 315
306 308 309 307 308 312 313 314 318 325 326 324 328 329 327 325 322 322 322 321 319 318 318 318 319 321 325 327 328 328 328 329 327 324 321 321 323 322 315 308 310 314 312
306 309 310 308 307 310 311 312 313 315 313 317 317 320 322 312 311 312 312 312 315 314 313 314 315 317 318 318 319 319 322 324 324 323 323 322 319 318 315 313 312 309 310
305 307 307 306 306 308 309 309 309 309 310 309 308 310 310 308 309 309 309 309 310 311 309 310 310 311 312 314 316 316 318 320 321 321 323 321 319 317 315 315 310 307 309
301 306 307 306 306 308 309 308 308 309 310 309 309 310 311 310 310 309 308 307 307 306 306 306 307 307 308 308 310 315 317 315 316 318 318 316 313 313 313 313 311 307 307
298 304 305 306 307 308 309 308 309 309 309 309 309 308 307 307 305 304 305 304 302 302 302 303 303 304 304 305 306 308 314 313 311 310 311 309 308 309 308 309 310 305 298
296 299 301 303 305 307 310 309 308 309 308 308 306 306 305 304 303 303 301 300 300 300 300 300 300 300 301 302 303 305 311 310 308 309 308 307 306 306 307 307 305 304 302
297 298 299 302 304 306 308 308 309 307 306 306 304 302 302 302 301 299 299 299 299 299 298 298 298 298 298 299 300 303 303 304 306 306 306 304 305 305 304 304 304 303 302
299 299 300 302 303 303 305 307 307 306 305 304 304 302 301 301 299 298 298 298 297 297 296 296 296 297 297 297 298 299 299 299 299 299 299 299 300 297 297 296 295 295 295
300 299 300 300 301 301 302 303 304 304 303 302 301 300 299 299 298 298 297 297 296 295 295 295 295 295 295 295 295 296 296 296 296 296 298 299 296 294 293 293 292 292 296
300 300 299 299 300 301 302 302 302 302 301 301 300 299 298 298 298 297 297 296 296 295 294 294 294 293 293 293 295 296 296 296 296 296 295 294 295 292 290 290 290 292 292
298 300 300 299 300 301 301 301 300 299 299 298 298 298 299 299 298 297 296 296 295 294 294 294 293 292 294 294 294 295 294 294 293 294 294 291 293 295 294 291 289 290 290
298 299 301 301 300 300 300 301 299 298 298 297 297 298 297 297 296 295 294 294 293 292 292 292 294 293 294 295 295 294 292 291 290 289 290 292 292 292 294 294 293 291 287
298 298 300 301 301 301 300 299 298 298 297 297 297 297 297 295 295 294 293 293 290 290 290 292 293 292 293 295 295 293 290 289 288 287 286 287 288 288 286 291 290 290 291
298 298 299 301 303 302 301 300 299 298 297 296 296 296 296 295 293 292 292 292 289 290 291 291 289 290 292 294 293 291 287 286 285 286 285 284 283 285 285 285 284 284 284
298 298 300 300 302 302 301 300 298 297 296 296 295 296 295 294 292 290 292 289 287 286 286 287 289 289 288 291 291 287 284 283 282 284 285 285 285 287 287 284 283 282 283
298 298 299 301 302 302 302 299 296 295 295 295 295 295 295 293 291 291 290 288 286 286 287 287 289 290 285 290 289 286 282 281 282 282 284 288 286 289 286 282 281 279 279
296 298 299 300 301 301 299 297 295 294 296 296 296 295 294 292 290 289 288 286 286 286 287 287 287 285 286 287 290 288 282 281 281 281 282 283 287 287 287 285 280 281 282
296 298 298 297 298 299 298 296 294 295 295 294 294 293 292 292 291 289 288 287 286 285 285 285 283 283 284 289 290 289 287 285 281 280 280 281 287 286 287 284 287 287 285
295 297 295 294 295 296 297 294 294 294 293 292 291 291 292 291 290 288 286 285 285 285 285 284 282 281 283 284 290 290 289 287 282 281 283 286 287 287 285 287 286 288 282
294 295 294 293 293 295 296 295 294 294 293 291 291 290 291 290 289 288 287 285 285 285 284 283 281 281 281 281 283 285 286 289 286 285 282 284 285 285 284 283 283 282 281
294 294 294 293 293 293 293 294 294 293 292 291 290 289 291 290 287 287 286 285 286 287 285 283 281 280 279 281 284 285 284 283 285 284 281 280 279 278 278 279 279 279 281
293 292 291 292 292 292 292 292 294 295 294 292 290 289 289 288 287 285 285 290 290 291 292 291 285 282 286 288 288 288 288 290 289 283 279 278 278 277 277 278 278 278 280

GFSMW_sfc_thetae_093.txt.gz
Theta_e
311 312 313 315 325 330 335 336 336 336 336 335 335 333 336 337 337 337 337 336 336 336 335 333 333 333 332 332 332 330 330 329 329 325 324 323 325 325 325 325 324 325 322
306 308 308 309 317 328 333 335 336 337 337 337 336 334 335 332 332 334 336 337 336 336 337 336 334 335 334 333 332 330 329 329 329 326 323 319 317 316 319 319 317 316 315
303 305 304 305 313 326 328 331 333 335 335 336 333 330 330 331 331 333 333 333 335 333 333 333 334 333 333 332 332 331 330 327 328 328 324 316 310 312 316 316 315 313 312
304 307 303 302 304 322 325 329 331 334 333 333 331 328 327 327 329 331 332 330 330 327 326 326 328 330 330 330 330 331 329 328 325 327 327 323 320 315 310 314 314 313 311
304 307 306 305 304 307 317 321 324 328 328 330 332 329 326 327 324 326 325 321 320 320 319 319 319 320 321 323 324 325 326 327 326 325 323 322 319 317 313 312 311 312 310
303 304 308 306 304 309 310 311 315 318 320 321 324 327 325 319 318 317 316 315 314 314 314 315 314 315 316 316 316 317 316 317 320 322 319 317 316 315 316 311 309 308 308
302 303 303 303 305 306 307 308 310 310 311 315 316 316 318 313 313 312 311 310 311 310 309 310 309 310 310 312 313 313 314 315 314 315 317 318 318 316 315 314 311 308 308
298 303 305 304 305 305 306 306 306 306 307 307 307 312 311 310 310 311 309 308 307 306 306 306 307 307 307 307 308 310 313 314 313 314 315 317 313 312 314 314 312 306 308
298 301 303 302 304 305 306 305 306 306 307 307 308 307 307 307 307 304 303 303 301 302 303 303 303 302 303 304 304 305 309 310 310 311 311 311 309 309 310 311 310 310 302
297 299 301 302 303 305 305 306 306 306 307 306 306 305 303 303 302 301 300 300 299 300 301 300 300 300 300 301 301 302 307 307 307 309 307 305 306 304 307 307 307 307 304
296 296 298 301 303 304 304 304 306 308 306 305 303 302 302 301 300 299 299 299 299 299 298 298 298 297 297 298 298 300 302 303 304 305 306 306 305 305 303 303 304 303 303
298 297 297 300 301 302 303 303 305 307 306 304 303 301 301 299 299 298 298 298 297 297 296 296 296 296 296 295 295 296 298 298 298 298 300 300 301 299 299 299 298 299 299
297 298 298 299 299 300 301 303 303 303 302 304 303 301 300 299 296 298 297 297 296 296 296 296 295 295 294 294 294 294 294 294 295 295 296 296 295 293 292 292 292 291 295
298 297 297 298 298 300 300 300 300 301 300 300 300 299 298 298 297 296 296 296 295 294 294 293 293 293 292 293 294 294 293 294 295 295 295 295 296 292 289 290 290 292 291
297 298 298 298 298 298 299 300 299 299 299 298 297 297 297 297 296 296 295 295 294 293 293 293 292 292 293 293 294 295 295 294 293 293 293 293 294 295 293 290 288 290 290
296 299 299 299 298 298 298 299 297 297 298 297 296 297 297 296 295 294 293 293 291 291 291 291 292 292 294 295 296 295 293 292 291 290 291 292 292 293 295 295 294 291 288
296 296 298 300 300 299 300 299 297 296 296 296 296 296 296 295 294 293 292 291 289 289 289 290 291 292 293 296 297 294 290 289 289 288 288 288 289 288 287 291 291 292 292
296 296 296 299 300 301 301 299 298 297 296 295 295 296 295 294 293 291 291 289 288 288 288 290 288 290 292 295 295 293 287 287 288 287 286 284 283 284 285 284 283 283 285
296 296 296 298 300 301 301 299 297 296 295 295 295 295 294 292 291 289 288 287 286 285 286 287 289 289 290 293 293 289 285 284 282 284 284 284 283 288 289 284 283 283 283
296 296 296 297 299 300 300 298 296 295 295 294 294 295 294 292 290 288 287 289 287 286 288 288 289 290 287 292 292 286 282 280 281 281 284 289 286 288 288 283 281 280 280
295 296 295 297 298 299 299 297 295 295 295 295 295 294 293 291 289 288 288 288 287 286 287 287 288 288 286 285 291 289 281 281 281 281 281 283 289 289 287 285 281 281 281
294 296 294 294 295 297 298 295 294 294 295 294 293 292 291 291 289 287 288 287 287 286 286 286 285 285 284 289 291 290 288 285 281 280 281 283 288 288 288 285 288 289 286
294 294 293 293 294 296 296 293 293 293 293 292 291 290 290 289 288 288 287 286 286 285 285 285 284 283 282 283 290 291 290 288 282 281 283 285 288 287 286 287 288 288 281
294 294 293 292 292 294 295 294 293 293 292 291 289 289 289 289 290 289 287 286 285 285 285 284 283 282 281 281 283 286 286 288 286 285 284 285 286 286 285 284 285 282 282
292 293 292 292 292 292 292 293 292 292 291 290 289 289 290 290 288 288 287 286 286 287 286 285 284 282 279 281 284 285 284 284 285 283 281 280 280 280 279 280 280 280 281
293 291 290 291 290 291 291 291 292 292 291 291 291 290 290 289 288 286 286 291 290 291 291 290 286 283 286 287 288 288 289 289 290 285 280 279 279 279 279 278 278 278 280

GFSMW_sfc_thetae_096.txt.gz
Theta_e
311 312 316 327 329 331 331 334 334 335 337 337 336 334 332 336 335 336 336 335 335 334 332 332 331 333 332 331 330 330 328 328 328 326 327 326 327 324 322 323 323 321 318
304 309 310 314 325 331 333 333 334 333 334 334 334 335 333 334 336 336 337 337 336 336 335 333 333 334 333 332 330 330 329 328 329 326 324 318 316 315 316 315 316 313 315
302 306 307 307 312 325 331 333 334 334 335 335 332 330 330 331 331 330 331 333 334 335 334 334 333 333 332 332 331 330 329 327 328 329 324 315 310 311 315 314 312 311 310
302 305 307 304 305 319 327 333 334 335 335 334 331 331 331 329 330 329 330 330 332 331 332 332 331 331 330 329 329 331 329 328 325 326 326 324 318 313 312 314 311 311 310
302 304 306 307 305 308 318 322 327 328 329 330 333 329 325 326 325 326 327 323 321 323 323 323 324 324 324 324 324 322 322 323 324 322 323 323 322 320 316 310 308 309 308
302 304 306 305 302 303 313 317 321 323 325 326 325 326 325 323 321 319 320 317 315 315 316 316 316 317 318 318 317 316 316 316 316 316 318 319 318 315 312 310 307 308 305
301 300 304 303 302 305 309 310 315 317 318 320 320 322 322 319 319 319 319 315 313 312 311 312 312 311 312 313 314 314 315 314 313 312 313 315 318 319 317 314 312 309 304
298 299 302 303 303 305 307 308 309 310 309 311 312 312 315 314 315 315 315 314 313 309 309 307 306 307 307 307 308 309 312 312 312 311 313 314 315 315 315 315 312 307 307
298 298 302 301 302 304 305 306 306 305 305 305 306 308 309 310 310 309 312 311 309 306 304 304 303 303 302 303 303 305 305 310 309 309 309 310 311 310 311 312 312 311 304
295 299 300 300 301 302 303 304 305 305 305 305 304 304 303 304 303 304 301 299 299 301 301 300 300 300 300 300 301 301 303 306 305 306 305 305 307 307 307 308 307 306 306
294 295 298 300 302 303 303 303 304 305 304 304 303 302 302 302 300 299 298 299 298 298 299 299 298 298 298 298 297 297 300 302 302 303 303 303 304 304 305 305 305 304 303
295 295 297 299 300 301 302 302 303 304 304 304 303 301 301 300 300 298 298 299 298 298 297 297 297 297 297 297 296 296 298 297 298 298 299 300 301 301 301 301 300 300 300
296 296 297 298 299 300 301 301 302 303 301 301 301 300 298 299 299 299 298 298 297 297 296 296 295 294 295 294 294 295 295 295 295 295 295 295 298 296 296 295 295 295 297
296 296 296 297 298 300 300 301 301 301 300 299 299 298 297 298 298 298 297 297 295 294 293 294 293 293 292 292 292 294 293 293 294 294 295 296 297 295 291 290 290 291 290
296 296 297 296 297 298 299 300 300 299 299 298 297 297 297 297 296 295 294 295 294 294 293 293 292 291 291 293 292 293 292 293 293 293 293 294 295 296 294 290 289 289 289
295 298 298 297 297 297 299 299 298 298 298 296 296 296 296 295 294 293 293 292 292 292 291 291 291 291 293 296 296 296 294 293 292 290 291 292 293 295 296 294 293 292 288
294 294 297 298 297 298 299 299 298 297 296 296 295 295 295 294 293 292 292 290 289 289 289 289 290 289 291 296 297 296 291 290 289 289 289 289 290 289 288 292 292 293 293
294 294 294 295 299 299 299 299 297 297 296 295 295 295 294 293 292 291 290 289 288 288 288 288 287 287 292 296 296 294 287 287 289 289 288 286 285 285 285 283 283 283 283
295 296 296 296 297 299 300 298 297 296 295 294 294 294 294 292 290 289 288 286 286 285 285 286 288 289 291 295 294 291 287 286 286 286 285 284 282 287 289 284 282 283 284
296 295 295 295 295 298 299 298 296 295 295 294 294 294 294 292 290 288 287 288 287 286 287 286 289 291 289 293 293 289 284 283 282 281 283 289 285 289 290 283 282 281 281
294 295 295 295 296 297 298 297 295 295 296 294 294 294 293 291 289 288 288 285 288 287 285 287 288 289 289 288 293 291 281 280 280 280 281 283 290 290 288 287 281 282 282
293 294 293 293 294 296 297 295 294 294 294 294 294 293 292 291 289 288 286 287 288 287 286 286 286 287 287 290 291 291 288 285 281 281 282 283 289 289 289 286 286 288 286
293 293 292 291 292 294 295 293 291 293 293 292 292 291 289 289 287 286 285 287 287 286 286 286 285 285 284 284 291 292 292 290 282 282 283 286 288 288 287 288 289 289 281
292 292 292 291 291 292 294 293 294 293 293 291 290 289 288 287 287 287 288 287 286 286 286 285 284 284 283 283 284 286 286 290 286 285 284 285 286 287 285 285 285 283 281
292 292 292 291 290 291 291 292 292 292 291 290 289 288 288 288 287 288 288 287 288 288 286 286 285 283 283 283 286 285 284 284 285 284 281 281 281 281 281 281 281 281 282
292 291 290 290 290 290 290 290 291 291 290 288 288 290 290 289 288 287 287 291 291 291 292 291 287 285 288 289 289 289 289 290 290 285 280 279 280 279 280 279 279 279 281

GFSMW_sfc_thetae_099.txt.gz
Theta_e
309 313 318 325 328 331 333 332 333 334 336 334 334 333 333 332 332 332 334 334 333 332 330 329 328 328 327 328 328 328 327 327 328 326 326 324 327 324 317 317 320 320 318
304 308 310 315 324 328 330 331 333 332 335 336 335 334 333 333 334 334 334 335 334 334 332 331 330 330 332 332 330 328 327 327 327 325 324 317 316 315 315 314 314 311 313
304 304 307 308 316 323 328 331 333 332 333 332 331 328 330 329 329 330 331 334 335 335 333 332 332 331 332 330 330 329 327 326 327 328 324 314 310 311 315 312 312 311 308
301 303 305 306 307 317 326 329 331 332 333 331 330 329 330 328 331 329 329 330 332 331 331 331 331 332 331 329 330 329 328 327 323 325 325 323 320 315 313 312 310 311 309
302 302 304 307 307 307 319 323 326 328 328 329 329 328 327 328 325 325 326 327 326 328 327 326 326 326 326 325 326 325 325 325 323 321 319 318 318 317 313 310 309 310 307
302 302 303 305 305 302 313 319 323 324 325 325 326 326 326 322 321 320 322 320 319 320 321 322 321 321 320 320 319 318 318 318 316 317 317 317 314 313 312 310 308 309 305
301 301 301 302 302 302 305 313 318 321 322 322 324 324 322 321 320 319 318 316 315 316 317 316 313 313 314 314 314 314 313 315 314 313 313 314 314 315 315 315 312 306 303
296 299 300 303 302 302 303 308 312 315 317 317 320 319 321 318 316 316 316 316 314 313 311 310 309 309 308 308 307 308 310 311 312 311 311 311 312 315 315 316 312 309 304
295 297 299 301 302 301 304 306 308 309 308 308 309 309 311 310 311 310 311 312 312 311 310 308 306 304 303 303 303 304 304 306 309 309 308 308 309 309 311 312 312 312 306
296 298 297 299 300 301 303 304 305 305 304 304 305 306 306 307 306 306 305 305 305 304 301 300 300 300 299 299 299 299 302 303 306 306 306 305 305 306 307 308 309 308 306
294 296 298 298 299 301 302 302 303 303 303 303 302 301 301 301 301 300 299 298 299 299 298 297 297 297 297 297 297 297 299 301 303 304 304 303 302 303 305 305 305 304 304
294 294 297 298 299 300 301 302 302 303 303 302 301 300 299 298 298 298 299 299 298 297 296 296 296 296 296 296 297 297 296 297 297 298 298 300 300 299 298 299 301 301 301
294 295 296 296 298 299 300 300 301 302 301 300 299 298 297 297 296 296 296 297 297 296 297 296 296 295 294 293 293 293 293 293 294 294 294 296 296 297 296 296 296 297 298
295 295 295 296 296 298 299 299 299 300 299 299 298 297 297 297 297 298 297 297 296 296 295 295 294 293 292 292 292 293 291 292 293 294 294 294 296 296 294 293 293 293 293
295 296 296 295 295 297 298 298 299 299 299 298 297 297 297 297 296 295 294 294 293 292 293 292 292 291 292 293 291 292 291 291 291 292 293 294 295 297 295 293 292 289 288
293 294 296 296 296 296 297 299 298 298 298 297 297 297 296 295 294 293 292 291 291 290 291 291 291 291 292 295 297 296 292 293 292 291 291 293 293 295 297 296 295 293 288
294 294 294 296 296 296 298 298 298 297 296 296 296 295 295 293 292 292 291 290 289 289 289 289 289 289 290 295 297 297 292 291 290 290 290 289 291 290 289 292 293 293 294
293 293 293 293 294 297 297 298 298 296 296 295 295 294 294 292 291 290 290 288 287 287 287 287 286 286 290 295 297 295 288 288 289 290 289 288 286 287 286 285 285 285 284
294 294 295 295 294 294 297 297 296 295 295 295 295 294 294 292 290 289 288 286 286 285 285 286 287 286 287 295 295 292 288 287 287 287 286 286 285 287 289 283 282 282 284
294 294 294 294 295 295 296 296 295 295 295 296 295 294 294 292 290 289 287 288 288 286 287 287 286 290 288 293 294 291 286 285 284 284 284 289 285 288 290 282 281 281 282
293 294 294 294 295 296 296 295 295 295 297 295 294 294 293 292 290 287 288 287 287 287 287 287 285 288 290 289 293 294 283 282 281 280 280 282 290 290 289 289 282 282 283
293 293 292 292 292 294 295 293 294 294 294 294 293 292 291 291 289 289 287 285 285 287 288 287 285 287 288 291 291 294 291 285 280 279 279 280 288 291 290 287 287 288 286
292 292 291 290 291 292 294 292 291 293 293 292 291 291 290 290 289 287 285 285 287 288 287 286 286 285 286 286 291 292 293 292 283 280 282 286 288 289 288 289 288 289 282
291 291 291 290 289 290 291 292 292 295 294 293 289 289 288 288 287 286 286 286 287 287 287 286 285 284 285 284 284 285 288 291 289 286 282 285 286 287 286 285 285 283 281
291 291 290 289 289 290 289 290 293 294 293 291 290 289 289 287 285 286 287 287 289 289 287 286 286 284 284 285 287 286 284 285 286 283 281 280 281 281 282 282 281 281 282
291 290 289 290 289 290 290 290 291 292 291 290 288 287 287 288 289 288 288 292 292 292 292 292 288 286 289 290 290 290 290 290 290 283 279 279 280 280 280 280 280 280 282

GFSMW_sfc_thetae_102.txt.gz
Theta_e
310 318 325 328 329 331 333 334 336 336 338 333 331 331 332 331 330 330 331 331 330 329 327 326 326 326 325 324 324 324 325 324 325 323 322 323 321 318 315 315 317 317 317
304 306 313 322 326 329 331 332 334 335 336 336 336 335 335 333 333 332 331 331 330 330 330 330 329 328 327 326 326 327 326 325 326 322 319 313 315 314 314 313 313 311 312
302 304 306 311 320 325 327 330 332 333 334 334 333 330 331 330 330 331 331 332 332 333 331 332 331 330 329 328 329 328 326 324 325 326 321 313 309 311 312 311 311 310 309
301 302 304 307 308 318 326 330 331 331 332 331 331 328 329 328 330 329 330 331 331 331 331 330 330 329 329 328 329 329 327 326 322 324 325 322 317 313 309 311 310 310 309
301 302 302 305 309 309 317 324 328 328 329 328 330 328 327 328 325 326 327 326 327 327 328 328 328 328 328 326 326 325 324 324 324 322 320 318 317 316 312 308 307 309 308
300 302 303 303 305 305 311 320 324 326 327 326 327 327 327 325 321 320 322 323 323 323 323 324 325 324 323 322 321 320 319 317 317 316 317 316 315 313 311 309 306 306 305
298 299 300 301 303 302 304 314 319 321 323 324 326 327 326 324 322 320 320 319 318 318 319 319 319 319 319 316 316 315 314 314 312 313 312 312 313 314 315 314 311 307 303
294 296 300 302 302 302 301 305 312 316 319 322 323 324 325 324 322 319 316 319 316 314 313 311 310 311 311 309 308 309 310 311 309 310 310 310 310 312 314 314 311 308 304
295 295 298 299 301 301 302 303 307 309 313 315 319 317 317 316 316 314 313 312 311 311 309 308 307 306 305 305 303 305 304 303 305 306 305 305 306 307 308 308 310 310 304
295 298 297 297 298 299 301 303 306 308 308 307 309 308 308 309 308 308 308 308 306 305 305 305 304 302 300 299 299 298 300 300 302 304 303 303 303 303 304 305 306 308 307
294 297 298 297 298 299 301 302 304 304 303 304 303 303 304 304 304 304 304 304 304 303 303 300 298 297 296 296 296 296 297 298 299 300 301 302 301 302 302 303 303 303 305
293 294 296 298 298 299 299 301 301 302 302 302 301 300 300 299 298 298 297 298 297 298 297 298 297 296 295 295 294 294 295 295 295 295 296 297 299 297 297 299 300 299 299
293 294 295 295 297 298 298 299 300 300 300 300 299 298 297 297 296 295 295 296 295 295 295 296 295 295 295 293 293 294 293 292 292 293 293 294 294 294 295 296 294 296 298
295 295 294 295 295 296 298 298 298 299 299 299 298 297 296 296 295 295 295 295 295 294 294 294 294 294 294 293 293 292 291 291 291 292 292 293 293 293 293 294 294 294 294
293 295 296 295 295 296 296 297 298 298 298 297 297 296 296 296 295 295 295 295 294 293 293 292 291 290 291 292 291 291 291 290 290 291 292 292 295 297 297 294 293 293 292
293 293 293 295 295 295 296 298 298 297 297 297 297 296 296 295 294 293 292 291 291 290 291 290 290 290 292 296 297 295 290 290 290 291 292 292 293 293 297 297 297 294 291
294 294 294 293 295 296 296 297 297 297 296 296 296 296 295 294 293 292 291 290 289 289 288 288 289 288 289 295 297 297 290 290 290 290 290 290 291 290 289 291 292 292 293
293 293 292 293 293 294 296 296 297 296 295 295 295 295 294 293 291 290 289 288 287 287 287 287 285 286 289 295 296 295 287 289 290 290 290 289 287 287 286 286 285 286 286
293 293 293 294 294 294 294 295 295 295 295 295 295 295 294 292 290 289 288 286 286 285 286 287 287 286 286 294 296 293 289 288 288 288 287 287 286 287 290 284 284 284 285
293 293 293 293 293 294 293 294 293 293 294 295 295 294 293 292 290 289 287 288 288 286 288 288 286 288 286 292 295 293 288 286 286 285 284 288 287 288 290 284 281 280 281
292 293 292 292 294 294 294 293 292 293 295 294 294 293 292 292 290 287 288 288 288 288 288 288 286 285 287 288 293 295 286 285 284 283 282 282 289 291 290 288 281 281 282
293 293 291 291 292 293 294 293 292 293 294 294 294 293 292 291 289 289 288 287 287 286 285 286 287 285 286 292 292 294 293 287 281 280 279 280 287 290 291 287 288 288 286
291 291 290 290 290 291 293 292 292 293 293 292 292 291 290 289 289 289 287 286 285 285 285 287 286 284 285 287 292 293 293 294 283 282 283 286 287 288 289 290 288 288 282
291 290 290 289 289 289 290 291 291 292 293 292 292 290 289 287 287 287 287 286 285 285 286 286 286 284 285 285 285 287 288 292 290 288 285 285 285 287 286 286 285 282 281
291 291 289 289 288 289 289 290 291 292 292 292 291 290 290 288 288 287 287 286 287 290 288 287 285 283 285 285 288 286 284 285 287 284 281 280 280 280 281 281 281 281 281
290 291 289 289 289 288 288 289 291 293 292 291 290 290 290 288 288 287 288 292 292 293 293 292 288 287 290 291 291 291 291 290 290 283 280 278 278 279 280 281 280 280 281

GFSMW_sfc_thetae_105.txt.gz
Theta_e
316 324 328 330 328 329 329 329 331 337 336 333 332 332 333 333 333 335 336 335 336 335 335 335 333 331 329 328 327 328 327 328 331 330 331 331 329 328 325 326 327 325 325
308 314 323 328 329 331 332 335 333 336 336 335 334 335 333 334 335 337 336 336 335 335 334 333 332 331 328 329 329 329 330 330 330 327 327 322 323 323 321 323 321 321 322
305 306 312 321 327 328 331 332 334 334 332 334 332 331 333 332 332 334 332 332 334 334 335 332 332 331 330 329 332 331 330 327 328 329 326 318 316 319 321 319 319 319 319
305 305 308 311 318 326 330 331 332 333 334 334 332 326 327 327 331 332 333 334 333 333 334 334 333 333 333 330 331 330 330 328 322 327 327 328 323 320 317 318 316 316 315
305 306 306 308 312 315 325 330 330 332 333 334 332 331 328 331 332 331 331 330 332 333 333 334 333 332 331 330 328 326 325 327 325 325 323 325 325 324 320 316 314 313 313
304 305 307 307 308 311 313 323 328 329 331 331 331 330 329 329 327 328 327 328 328 328 329 330 330 329 327 327 326 325 322 322 322 322 323 322 320 319 319 315 315 314 311
304 304 305 305 307 308 309 317 324 326 328 328 329 330 329 327 327 325 326 324 323 321 323 324 325 325 326 326 325 323 318 317 318 317 317 318 319 320 317 315 314 312 310
300 301 303 305 306 307 307 311 319 323 326 327 328 330 330 329 328 325 324 324 322 321 321 321 320 317 319 318 317 315 314 315 316 315 315 316 316 317 317 314 313 310 310
298 298 298 302 305 306 307 307 311 316 321 324 325 325 325 325 325 323 322 322 321 318 316 315 313 312 311 309 308 307 307 309 311 311 312 312 312 313 314 315 313 309 304
298 300 299 299 302 304 305 306 308 313 317 319 322 320 319 319 319 318 318 317 315 313 311 309 308 307 305 304 305 303 304 305 308 310 310 310 310 310 311 312 312 311 307
296 299 299 299 301 303 304 306 308 310 311 312 312 312 311 312 312 313 313 312 310 309 308 306 304 302 301 301 302 302 303 303 304 305 306 306 307 308 308 309 309 309 308
296 297 299 300 301 302 303 305 307 308 308 308 307 307 307 307 307 307 307 307 305 303 302 301 300 300 300 300 300 300 300 300 300 300 301 301 302 304 304 305 305 304 304
296 296 297 298 300 301 302 303 304 305 305 305 304 304 304 304 303 302 302 302 301 300 300 300 299 299 298 298 298 298 298 298 298 298 299 299 300 301 301 301 301 301 301
297 297 297 297 298 300 302 302 303 304 303 302 302 301 301 301 300 299 299 299 299 299 298 298 298 297 297 297 297 296 295 296 297 297 297 298 298 298 299 298 298 297 297
295 295 297 297 297 298 299 301 301 302 302 301 301 300 299 299 298 298 298 298 298 297 297 296 295 295 295 295 295 295 295 295 295 295 295 296 297 297 298 298 297 296 295
296 296 295 296 297 298 299 300 300 301 301 300 300 299 298 298 298 297 297 296 295 295 295 295 294 295 295 298 298 296 295 295 294 294 294 295 294 294 297 297 297 296 294
296 296 296 295 295 297 299 299 300 300 300 300 299 298 298 297 297 296 295 294 293 293 293 293 294 293 295 298 298 297 295 294 294 293 293 292 292 291 291 292 292 291 292
295 295 294 295 297 297 297 298 299 299 299 298 298 298 297 296 295 294 293 292 292 292 292 291 291 292 293 297 298 294 290 293 293 292 292 291 290 289 288 288 287 287 288
295 295 296 296 296 296 296 296 297 298 298 298 298 298 297 295 294 293 291 290 288 287 288 290 290 291 292 296 297 293 291 291 290 290 290 289 288 288 290 286 285 285 286
295 294 295 296 295 296 296 295 295 296 297 298 298 297 297 295 294 292 290 290 290 288 290 289 290 291 291 294 296 295 291 290 289 287 286 289 290 289 290 287 285 283 285
294 295 294 293 294 294 295 294 295 294 297 297 297 296 296 294 293 290 290 289 290 289 290 290 290 290 291 291 295 295 290 289 287 286 285 285 288 291 290 290 286 285 286
294 294 293 292 292 293 293 294 294 295 296 296 295 295 294 293 291 290 290 290 290 289 289 289 289 289 290 292 293 294 294 291 287 285 285 284 286 289 291 290 289 288 287
292 292 291 291 291 291 292 293 294 294 294 295 294 294 293 292 291 290 289 289 289 289 288 289 289 288 288 289 292 294 294 295 285 284 285 286 287 288 289 291 290 289 286
291 291 291 290 290 290 291 291 293 294 294 294 293 292 291 290 291 290 289 289 289 289 289 288 288 289 287 288 289 290 291 294 292 290 289 287 287 287 287 288 288 286 285
292 291 290 290 289 290 290 291 293 294 293 292 292 292 292 290 289 290 289 290 291 291 290 289 289 287 287 288 290 289 287 287 288 286 284 283 283 283 284 285 285 285 285
291 291 290 290 289 289 290 292 293 294 293 292 291 291 291 290 290 289 288 292 292 293 294 292 290 288 291 291 291 292 292 291 290 285 283 283 283 282 282 283 284 284 284

GFSMW_sfc_thetae_108.txt.gz
Theta_e
322 325 327 327 329 331 330 331 336 340 339 338 336 336 334 335 334 335 336 338 339 341 341 341 339 338 336 335 335 332 331 331 335 333 333 335 335 334 334 332 332 330 332
318 324 326 326 327 327 329 329 333 337 338 338 337 338 338 339 339 338 338 339 339 340 340 340 339 339 336 335 334 332 331 333 335 330 328 321 325 328 329 329 328 328 330
317 322 325 326 326 327 329 331 332 336 337 338 336 332 332 334 335 338 339 340 339 340 340 339 339 338 336 332 332 333 333 331 333 331 326 320 317 322 326 325 326 326 328
309 315 320 325 324 327 331 331 331 335 335 334 331 327 325 324 333 335 338 336 337 336 334 333 334 336 334 333 333 333 332 329 323 327 328 329 327 320 318 323 323 323 322
310 310 311 317 327 329 328 332 330 331 331 332 330 329 326 326 329 331 330 330 331 334 335 335 334 334 334 334 333 331 329 328 326 326 326 326 327 327 322 316 318 321 321
311 311 312 313 315 323 329 332 331 330 331 330 332 332 328 326 326 328 327 328 329 332 333 334 333 334 334 333 332 332 328 326 327 326 325 324 322 318 318 316 316 316 319
311 310 310 310 311 314 318 326 331 330 331 332 332 332 331 328 327 328 328 329 329 327 329 331 331 332 332 331 329 328 327 324 322 321 323 322 320 320 318 316 314 313 316
309 310 310 312 312 314 315 318 323 329 333 332 331 333 332 332 331 331 331 330 328 327 327 328 329 328 326 325 325 322 321 321 321 319 319 318 319 319 318 315 313 310 312
306 307 307 310 312 313 315 316 319 323 329 331 329 330 332 332 331 331 331 329 328 327 326 324 322 320 319 319 320 322 320 317 315 317 318 317 317 317 318 317 316 312 306
304 305 305 305 307 309 313 314 316 320 325 329 329 328 329 330 330 330 328 326 324 322 321 318 315 313 314 314 313 311 311 312 312 313 313 314 315 315 315 315 315 313 309
304 305 305 305 305 307 310 311 313 316 321 326 325 324 324 325 324 325 321 319 317 316 313 312 310 309 309 309 308 307 308 308 309 310 311 311 312 312 312 313 312 310 309
302 305 305 306 305 308 309 311 313 315 318 321 322 322 320 319 319 319 316 315 314 313 310 309 307 307 306 306 306 305 306 306 306 306 307 307 306 309 309 309 309 308 308
301 303 305 307 307 307 308 310 312 313 314 314 315 314 314 315 316 315 313 312 309 306 304 303 303 304 304 304 304 304 304 304 304 304 304 304 304 306 307 306 306 306 304
301 302 303 304 306 308 308 309 310 312 311 311 311 311 311 312 312 311 310 307 304 303 302 302 303 303 302 302 302 302 302 302 302 302 303 303 303 303 303 303 303 302 301
301 301 302 303 304 306 307 308 308 309 309 308 308 308 309 309 307 307 307 306 305 304 304 302 302 301 301 300 301 301 301 301 300 300 300 300 299 297 300 301 302 301 299
301 302 301 301 302 303 305 306 307 308 308 308 307 306 305 305 304 304 304 303 303 303 302 301 301 300 298 298 298 300 300 299 299 299 299 299 296 296 297 297 297 298 297
301 301 301 300 301 302 303 305 306 307 307 307 306 305 304 303 303 302 302 301 301 301 301 300 300 300 300 299 299 298 299 298 298 298 298 296 295 294 296 293 292 292 292
301 300 300 301 301 302 302 303 304 306 306 307 306 305 304 303 302 301 301 301 301 300 300 299 299 299 299 299 299 295 295 297 297 297 297 296 294 292 292 292 291 290 290
300 301 301 300 301 301 301 301 302 304 305 305 306 305 304 303 302 301 300 299 295 295 298 297 296 298 298 298 298 296 296 295 295 295 295 294 292 291 292 290 288 288 288
300 300 301 301 301 301 301 301 301 301 302 304 305 305 304 303 301 301 299 297 294 291 294 294 297 297 298 297 297 296 296 294 293 292 291 291 291 290 291 291 289 287 286
298 299 300 299 300 300 300 300 301 301 302 303 304 303 303 302 301 295 296 293 292 293 294 294 296 296 297 296 297 296 295 293 292 291 290 287 290 292 291 291 290 289 289
296 297 297 298 298 298 298 299 300 302 302 302 302 302 302 299 298 297 294 294 294 293 293 293 294 295 295 295 295 296 295 294 292 290 291 290 288 289 291 291 290 289 288
296 297 296 295 296 296 296 297 299 299 300 300 301 301 301 299 298 295 292 292 293 293 293 295 294 294 294 295 294 295 296 295 291 290 288 286 287 288 289 291 291 290 289
295 296 296 296 296 295 295 296 298 299 299 300 300 300 299 298 297 295 293 293 292 295 295 294 293 294 292 292 293 294 295 295 293 291 289 290 289 288 288 289 291 290 289
295 295 295 294 294 295 295 296 297 299 299 299 298 297 297 295 293 294 293 293 294 296 295 294 293 291 291 291 293 293 292 293 293 291 288 288 287 286 286 287 288 288 288
293 293 293 292 293 294 294 294 294 297 298 296 294 294 293 292 291 291 290 293 293 294 294 294 292 291 292 292 293 292 292 291 291 288 286 286 286 286 286 285 286 286 286

GFSMW_sfc_thetae_111.txt.gz
Theta_e
323 324 326 327 327 329 331 336 336 336 336 337 334 333 330 332 335 339 342 340 339 338 338 340 339 338 335 335 335 334 331 331 334 335 334 333 334 333 334 334 331 330 331
320 323 325 326 327 327 328 328 332 335 336 337 337 338 336 337 336 336 337 338 338 340 338 338 339 339 337 336 335 335 331 333 338 331 328 321 324 330 330 330 329 328 330
318 320 322 325 325 325 327 327 328 332 335 337 336 336 337 337 336 338 338 339 339 341 342 340 340 339 340 338 335 334 333 332 333 333 326 320 317 322 328 327 327 326 327
319 320 322 324 323 322 324 327 327 329 336 336 333 331 329 329 334 336 338 338 338 339 339 339 338 337 337 335 334 334 334 331 326 327 328 329 325 319 318 325 325 325 324
317 319 323 325 324 322 323 327 327 328 330 332 331 331 329 331 334 333 331 331 331 336 337 336 335 334 334 333 334 331 329 329 327 326 326 326 326 326 322 317 320 322 323
311 314 321 326 324 327 329 327 326 327 329 329 330 330 329 327 328 327 327 327 328 329 333 335 335 333 332 331 331 331 331 329 328 326 325 324 322 321 320 316 316 316 319
311 311 311 313 319 323 326 326 327 326 327 327 326 328 329 327 326 324 324 325 326 327 329 332 332 332 332 332 332 331 331 329 325 325 323 325 324 323 320 317 314 312 315
312 311 312 312 314 318 322 326 327 326 327 326 327 329 329 328 325 325 325 325 326 327 331 331 333 331 331 330 330 329 327 324 322 321 321 321 320 320 319 316 314 310 312
306 312 313 313 313 314 317 321 325 327 328 328 328 329 329 327 327 327 328 328 330 329 329 328 327 326 325 325 324 322 319 321 321 322 320 318 316 319 319 318 317 313 306
306 309 308 309 312 314 316 318 320 323 329 331 331 331 330 331 331 331 330 329 329 326 325 323 320 320 318 318 317 317 315 316 316 316 316 315 315 315 316 315 315 314 309
306 307 307 307 306 309 313 315 317 320 323 330 330 328 330 330 330 328 327 326 323 321 319 316 313 312 313 312 312 312 312 311 311 311 312 313 313 313 313 313 313 311 310
304 307 307 307 307 307 309 312 314 316 321 326 327 326 326 325 324 324 321 320 318 317 315 312 310 308 308 309 309 306 307 307 307 308 308 309 308 309 310 309 309 309 308
303 305 307 307 307 308 310 311 313 315 320 323 324 324 322 322 322 320 317 317 315 312 310 309 307 306 305 306 306 306 306 306 306 306 306 306 306 306 307 307 306 306 305
302 303 304 306 308 309 310 311 313 314 315 317 316 317 317 318 318 316 315 312 310 306 304 304 304 303 304 304 306 304 304 303 303 304 304 304 304 304 304 303 303 303 301
302 302 302 304 306 308 309 310 311 312 312 312 312 312 313 314 313 313 310 308 307 305 303 302 302 302 303 303 302 303 302 302 301 301 301 302 299 298 299 300 301 301 299
302 303 303 303 304 305 306 308 309 309 310 309 309 309 309 308 309 309 309 306 304 303 302 301 301 303 300 301 302 302 301 301 301 299 300 299 296 297 298 298 297 297 297
302 302 301 302 302 303 304 305 307 309 309 309 308 307 306 306 305 305 305 304 303 303 302 302 301 300 299 300 300 301 300 300 299 299 299 298 297 295 298 295 293 293 293
300 301 302 302 303 303 304 304 305 307 308 308 307 306 306 305 304 303 303 302 302 302 301 300 300 300 299 300 299 298 297 298 298 298 298 298 296 295 294 293 292 291 291
300 301 302 302 303 303 303 303 303 304 306 306 307 307 305 304 303 302 302 302 297 297 299 299 299 299 298 300 298 297 297 297 296 297 297 296 295 294 293 291 289 289 288
301 301 302 302 303 303 303 302 302 302 303 304 307 307 306 305 302 302 301 300 296 293 298 297 298 299 298 299 298 297 297 295 294 294 294 292 293 293 293 291 290 286 286
300 300 301 301 301 301 301 301 302 302 304 305 306 307 306 305 304 300 300 297 294 295 296 295 297 297 298 297 298 297 296 294 293 291 291 290 293 293 292 292 290 288 288
297 298 298 299 300 300 300 300 301 303 303 303 303 304 305 303 301 300 297 296 296 294 294 295 295 296 297 298 298 297 296 296 292 290 292 291 291 291 292 292 292 290 288
298 298 298 297 298 298 298 297 299 301 301 302 302 303 303 302 300 298 296 295 295 296 295 295 295 294 295 296 296 297 297 296 293 291 290 290 289 289 289 291 292 291 287
297 297 297 297 297 297 297 297 298 300 300 301 301 302 302 300 300 298 295 296 295 296 295 295 295 294 293 294 295 295 295 296 295 293 289 289 289 289 288 288 290 288 287
297 297 296 295 295 296 296 296 297 299 299 300 300 300 300 299 298 297 295 296 296 297 296 295 294 293 291 293 294 294 294 294 293 291 288 287 286 285 285 285 286 287 286
295 295 294 294 295 295 295 295 296 297 298 297 298 297 296 294 293 293 291 294 294 295 295 296 294 292 294 295 295 295 294 294 295 288 286 286 285 285 285 284 284 285 285

GFSMW_sfc_thetae_114.txt.gz
Theta_e
319 319 320 321 322 324 323 324 325 331 328 329 330 332 331 333 334 335 336 333 333 332 331 334 334 332 330 330 329 328 325 325 327 326 326 326 327 327 327 327 324 324 325
317 319 321 322 323 325 325 329 329 331 330 330 328 327 328 332 336 337 337 337 335 335 334 334 334 334 331 330 330 329 325 325 328 324 321 315 318 323 326 323 323 321 323
317 319 320 321 324 324 323 326 327 330 332 333 333 332 332 331 330 330 330 332 335 335 335 336 336 334 333 331 330 329 328 326 327 327 320 314 312 317 322 320 321 319 320
318 319 320 321 322 322 324 326 325 327 330 334 332 330 329 328 330 332 332 333 335 335 335 334 334 332 332 329 327 330 328 327 323 324 326 323 321 314 313 319 318 319 318
317 316 318 322 322 322 322 323 324 326 327 328 328 326 325 326 331 331 329 327 328 332 333 332 332 331 330 331 328 328 327 326 325 323 323 322 322 320 315 311 313 316 316
315 317 317 323 321 320 320 323 323 323 326 326 327 326 324 325 325 325 325 325 325 326 330 332 331 331 330 328 328 328 328 327 326 326 323 321 318 317 315 313 312 311 314
310 312 317 321 320 318 320 323 323 322 326 325 326 326 325 325 324 323 323 323 323 323 325 329 330 329 329 328 328 328 328 328 327 326 324 323 321 320 315 312 309 308 310
307 310 311 314 319 321 322 324 323 321 323 325 325 325 326 325 324 323 323 323 321 322 325 327 327 328 329 330 329 329 329 329 327 323 322 321 319 317 316 313 309 306 307
305 308 309 310 313 316 321 324 323 322 324 325 325 325 325 326 324 323 323 323 323 324 325 326 326 326 328 328 328 324 322 323 321 321 319 317 317 316 314 313 311 307 301
304 304 305 306 308 311 315 320 324 324 325 326 325 325 325 327 326 325 323 323 324 324 324 324 325 323 323 323 323 320 321 320 318 317 316 313 311 311 312 310 310 308 304
303 303 303 303 302 304 311 314 319 320 321 325 326 325 325 326 326 325 323 324 325 324 323 323 321 319 318 318 319 315 316 314 311 312 310 309 310 308 308 308 307 306 306
302 303 303 302 303 304 306 309 310 314 317 323 324 324 324 323 323 324 324 323 321 320 317 316 314 314 314 312 310 308 309 309 307 306 307 308 307 305 305 304 304 304 303
298 301 303 303 304 305 304 307 309 313 318 321 320 322 322 321 320 317 317 317 315 313 311 312 311 308 308 307 307 307 306 305 305 305 304 303 303 302 302 302 301 301 302
298 298 299 302 303 304 306 307 309 312 314 316 316 316 316 317 317 315 315 313 309 307 305 305 305 304 304 305 305 305 304 304 302 301 301 301 301 300 300 299 298 299 297
298 297 297 298 301 303 304 305 307 308 309 311 312 311 312 312 311 309 309 307 305 304 303 302 302 302 303 303 303 303 302 301 299 299 299 298 297 299 299 297 296 296 295
299 298 298 298 298 299 302 305 305 305 307 306 307 309 308 307 307 306 304 304 302 301 301 301 301 301 301 303 304 303 299 299 298 296 296 296 296 298 299 299 298 296 293
297 297 298 298 297 298 299 300 303 305 305 305 304 304 304 303 303 303 302 301 300 301 300 300 300 298 299 303 304 302 298 297 296 296 295 295 295 296 294 296 295 294 295
296 297 297 297 298 299 299 299 302 304 304 304 303 303 303 302 301 300 299 299 299 299 300 299 298 297 298 301 301 300 295 296 295 296 295 294 292 293 292 291 289 288 288
296 297 298 299 298 298 299 299 299 300 302 303 303 303 302 301 300 299 298 297 294 293 295 296 296 295 297 300 299 297 296 294 294 294 294 293 291 295 294 289 286 286 286
298 297 297 298 298 298 299 298 298 299 298 300 302 303 302 300 298 298 297 295 295 292 294 295 295 297 295 300 298 298 295 292 291 291 291 295 292 294 294 289 287 284 283
297 297 296 296 296 297 297 296 297 297 300 301 300 303 302 300 298 296 295 292 292 293 292 293 294 294 296 297 299 298 294 292 289 289 288 288 294 294 294 293 289 286 285
295 296 294 295 297 296 295 295 295 297 298 299 299 299 300 300 298 295 293 292 291 291 290 291 291 293 294 298 299 298 297 296 289 287 288 288 293 293 294 292 292 291 288
294 295 294 294 294 295 294 293 293 296 297 297 297 298 300 298 296 293 292 291 291 291 291 292 292 292 293 296 299 299 298 296 290 288 289 292 292 292 290 291 292 292 284
294 295 294 293 292 293 294 293 295 296 296 296 296 297 300 298 297 295 293 292 292 292 293 293 293 292 292 292 292 295 296 296 295 293 287 287 287 288 286 287 287 285 284
296 295 293 291 291 292 292 292 293 294 295 297 298 298 299 298 296 295 294 292 293 295 294 293 292 290 289 291 294 294 292 292 293 289 287 286 284 283 284 282 283 284 283
293 294 294 293 293 293 291 291 291 293 293 293 295 295 294 293 293 293 292 294 295 296 296 296 294 293 295 296 296 296 296 296 296 288 286 285 285 284 284 283 282 282 285

GFSMW_sfc_thetae_117.txt.gz
Theta_e
319 319 320 321 321 322 321 323 325 328 331 328 327 324 324 325 324 324 325 326 326 327 328 328 327 327 327 325 326 325 323 322 326 324 323 324 326 325 325 326 324 323 324
316 318 319 321 321 320 322 323 325 329 330 331 330 327 327 328 329 328 328 328 329 330 330 332 330 329 328 328 327 327 324 323 326 322 320 316 316 319 325 323 321 320 323
315 318 319 320 322 323 324 326 324 329 329 331 330 329 332 332 330 331 330 331 331 331 331 333 333 332 330 329 329 328 325 324 325 325 320 313 309 314 320 319 319 318 319
316 318 319 321 322 323 325 324 328 328 330 330 329 327 326 325 328 330 332 333 333 333 333 333 333 332 331 329 328 329 326 326 322 323 324 323 319 312 313 317 317 317 317
317 317 319 321 322 321 321 323 325 328 327 327 328 327 325 326 329 331 329 330 331 332 332 332 332 331 330 328 328 327 328 327 325 323 322 321 321 320 314 310 313 315 315
315 316 319 320 320 321 321 321 321 324 326 326 325 325 325 328 327 325 324 325 326 329 330 330 330 329 329 329 328 327 327 325 325 324 323 322 318 317 316 312 311 310 312
315 314 317 317 316 318 319 321 320 321 324 325 325 324 323 324 324 325 326 323 322 322 326 328 327 327 328 328 328 327 327 326 324 324 324 324 322 321 316 313 310 308 310
311 313 315 318 318 317 318 321 319 320 323 324 324 324 324 323 323 322 323 322 322 323 324 327 327 326 327 325 326 327 327 327 327 327 326 325 323 319 317 314 311 307 307
303 307 312 315 318 319 318 322 321 320 322 322 324 323 324 323 323 323 323 322 322 321 322 324 324 324 324 324 325 325 326 326 327 325 323 321 318 317 317 315 312 307 299
302 303 303 305 311 316 319 322 323 321 321 322 323 323 324 325 325 324 322 322 322 322 322 322 323 324 324 324 325 323 322 323 321 320 319 317 315 314 313 312 310 308 305
301 301 301 303 302 305 313 319 321 321 322 323 324 323 323 324 325 324 323 322 323 323 323 323 323 321 321 322 322 321 321 320 317 316 316 312 311 310 308 308 307 306 304
299 302 302 303 303 302 306 311 316 320 322 323 324 323 324 324 324 325 325 325 322 323 322 321 320 320 320 320 320 317 318 315 313 311 311 309 308 305 306 306 304 304 302
296 299 302 301 303 304 305 307 310 314 319 321 322 321 321 322 322 323 323 321 319 317 317 317 316 315 315 314 311 311 309 309 308 308 307 305 305 304 303 302 301 300 301
296 296 297 300 302 304 305 307 308 312 313 317 318 317 316 318 317 317 316 314 313 313 312 313 311 310 308 308 306 307 306 305 305 305 304 303 302 301 300 300 299 298 297
295 295 295 295 297 300 303 304 305 307 310 311 312 312 312 312 312 312 311 308 307 307 306 305 304 304 305 304 305 304 303 302 301 301 299 298 298 300 300 298 296 296 295
295 296 296 296 296 296 299 303 303 304 306 306 307 308 309 310 308 306 305 304 303 302 302 302 302 302 302 304 304 303 301 300 299 297 296 296 298 300 301 300 299 296 293
294 295 295 295 295 296 297 298 302 303 303 303 304 304 305 305 305 303 302 300 299 299 299 299 299 299 301 304 304 302 300 298 297 295 295 294 295 296 295 298 297 296 297
294 295 295 295 295 296 297 297 298 302 302 302 302 302 303 302 302 301 300 299 298 298 298 298 298 298 300 303 303 301 297 296 296 296 295 293 292 293 292 290 288 287 288
295 295 295 295 295 295 296 297 297 297 299 301 301 301 301 300 299 299 298 296 294 293 298 298 297 297 299 301 301 298 295 295 294 295 295 293 291 296 296 289 286 286 286
294 294 295 295 294 294 295 295 296 297 297 299 299 302 301 299 298 297 296 295 294 293 294 295 296 297 297 300 300 297 295 293 293 293 293 296 292 297 296 287 286 284 283
294 294 294 293 294 294 294 294 294 294 296 297 299 299 301 299 298 295 294 293 293 293 293 293 293 294 295 297 300 299 294 293 291 290 288 289 296 296 295 292 288 287 285
293 293 292 293 294 293 293 292 291 294 295 296 296 297 297 299 297 295 292 291 291 291 291 291 291 292 293 298 300 299 296 295 290 288 288 289 295 295 294 293 293 293 288
295 293 292 292 292 292 292 290 291 293 294 294 294 295 296 296 294 293 291 290 290 290 290 291 290 290 292 294 299 299 298 297 290 288 290 291 293 294 293 294 293 292 283
294 294 294 291 290 290 291 290 291 292 293 293 294 294 296 298 297 295 293 290 289 289 290 291 291 291 292 294 296 297 297 296 292 292 290 291 289 289 287 287 288 284 283
293 294 294 290 290 290 290 289 290 291 292 293 294 297 298 297 296 295 294 294 293 293 292 293 293 292 291 293 296 296 295 294 293 289 286 284 283 282 282 282 283 283 283
291 291 293 293 293 292 290 289 290 290 291 291 291 294 294 293 294 293 293 295 295 297 296 297 295 293 296 296 296 296 296 296 296 287 286 285 285 284 282 282 283 282 284